<?xml version="1.0" encoding="UTF-8" standalone="no" ?>
<gpx xmlns="http://www.topografix.com/GPX/1/1" xmlns:xsi="http://www.w3.org/2001/XMLSchema-instance" xsi:schemaLocation="http://www.topografix.com/GPX/1/1 http://www.topografix.com/GPX/1/1/gpx.xsd" version="1.1" creator="VisuGPX - https://www.visugpx.com">
  <metadata>
    <name>2016-02-20 Ruchère - Mauvernay</name>
    <desc><![CDATA[Bon choix ! Plein de monde aux Petit et Grand Som, personne à Mauvernay. Neige poudreuse sur sous-couche dure, idéal !]]></desc>
  </metadata>
  <trk>
    <name><![CDATA[2016-02-20 Ruchère-Mauvernay]]></name>
    <trkseg>
      <trkpt lat="45.40115" lon="5.79977">
        <ele>1144</ele>
        <time>2016-02-20T08:54:14Z</time>
      </trkpt>
      <trkpt lat="45.40113" lon="5.7998">
        <ele>1144</ele>
        <time>2016-02-20T08:54:19Z</time>
      </trkpt>
      <trkpt lat="45.4011" lon="5.79977">
        <ele>1144</ele>
        <time>2016-02-20T08:54:24Z</time>
      </trkpt>
      <trkpt lat="45.40114" lon="5.79967">
        <ele>1135.450994522</ele>
        <time>2016-02-20T08:54:35Z</time>
      </trkpt>
      <trkpt lat="45.40114" lon="5.79968">
        <ele>1135.450994522</ele>
        <time>2016-02-20T08:54:40Z</time>
      </trkpt>
      <trkpt lat="45.40115" lon="5.79968">
        <ele>1135.450994522</ele>
        <time>2016-02-20T08:54:55Z</time>
      </trkpt>
      <trkpt lat="45.40115" lon="5.79968">
        <ele>1135.450994522</ele>
        <time>2016-02-20T08:55:00Z</time>
      </trkpt>
      <trkpt lat="45.40113" lon="5.79972">
        <ele>1135.450994522</ele>
        <time>2016-02-20T08:55:10Z</time>
      </trkpt>
      <trkpt lat="45.40111" lon="5.79978">
        <ele>1140.091857817</ele>
        <time>2016-02-20T08:55:15Z</time>
      </trkpt>
      <trkpt lat="45.40111" lon="5.79976">
        <ele>1140.091857817</ele>
        <time>2016-02-20T08:55:26Z</time>
      </trkpt>
      <trkpt lat="45.40111" lon="5.79976">
        <ele>1140.091857817</ele>
        <time>2016-02-20T08:55:30Z</time>
      </trkpt>
      <trkpt lat="45.40109" lon="5.79978">
        <ele>1140.091857817</ele>
        <time>2016-02-20T08:55:40Z</time>
      </trkpt>
      <trkpt lat="45.40109" lon="5.79977">
        <ele>1140.091857817</ele>
        <time>2016-02-20T08:55:45Z</time>
      </trkpt>
      <trkpt lat="45.40111" lon="5.79978">
        <ele>1140.091857817</ele>
        <time>2016-02-20T08:55:56Z</time>
      </trkpt>
      <trkpt lat="45.40112" lon="5.79979">
        <ele>1140.091857817</ele>
        <time>2016-02-20T08:56:00Z</time>
      </trkpt>
      <trkpt lat="45.4011" lon="5.79976">
        <ele>1140.091857817</ele>
        <time>2016-02-20T08:56:10Z</time>
      </trkpt>
      <trkpt lat="45.4011" lon="5.79977">
        <ele>1140.091857817</ele>
        <time>2016-02-20T08:56:14Z</time>
      </trkpt>
      <trkpt lat="45.40111" lon="5.79978">
        <ele>1143.471417818</ele>
        <time>2016-02-20T08:56:25Z</time>
      </trkpt>
      <trkpt lat="45.40113" lon="5.79979">
        <ele>1143.471417818</ele>
        <time>2016-02-20T08:56:29Z</time>
      </trkpt>
      <trkpt lat="45.40113" lon="5.79981">
        <ele>1143.471417818</ele>
        <time>2016-02-20T08:56:35Z</time>
      </trkpt>
      <trkpt lat="45.40113" lon="5.7998">
        <ele>1143.471417818</ele>
        <time>2016-02-20T08:56:45Z</time>
      </trkpt>
      <trkpt lat="45.40112" lon="5.7998">
        <ele>1143.471417818</ele>
        <time>2016-02-20T08:56:50Z</time>
      </trkpt>
      <trkpt lat="45.40112" lon="5.79981">
        <ele>1143.471417818</ele>
        <time>2016-02-20T08:57:00Z</time>
      </trkpt>
      <trkpt lat="45.40111" lon="5.79982">
        <ele>1143.471417818</ele>
        <time>2016-02-20T08:57:06Z</time>
      </trkpt>
      <trkpt lat="45.40111" lon="5.79982">
        <ele>1143.471417818</ele>
        <time>2016-02-20T08:57:16Z</time>
      </trkpt>
      <trkpt lat="45.40111" lon="5.79982">
        <ele>1143.471417818</ele>
        <time>2016-02-20T08:57:20Z</time>
      </trkpt>
      <trkpt lat="45.40111" lon="5.79982">
        <ele>1143.471417818</ele>
        <time>2016-02-20T08:57:31Z</time>
      </trkpt>
      <trkpt lat="45.40111" lon="5.79982">
        <ele>1143.471417818</ele>
        <time>2016-02-20T08:57:35Z</time>
      </trkpt>
      <trkpt lat="45.40112" lon="5.79982">
        <ele>1148.917766295</ele>
        <time>2016-02-20T08:57:46Z</time>
      </trkpt>
      <trkpt lat="45.40113" lon="5.79982">
        <ele>1148.917766295</ele>
        <time>2016-02-20T08:57:50Z</time>
      </trkpt>
      <trkpt lat="45.40114" lon="5.79982">
        <ele>1148.917766295</ele>
        <time>2016-02-20T08:58:00Z</time>
      </trkpt>
      <trkpt lat="45.40114" lon="5.79982">
        <ele>1148.917766295</ele>
        <time>2016-02-20T08:58:06Z</time>
      </trkpt>
      <trkpt lat="45.40114" lon="5.79982">
        <ele>1148.917766295</ele>
        <time>2016-02-20T08:58:15Z</time>
      </trkpt>
      <trkpt lat="45.40114" lon="5.79981">
        <ele>1148.917766295</ele>
        <time>2016-02-20T08:58:20Z</time>
      </trkpt>
      <trkpt lat="45.40113" lon="5.79976">
        <ele>1148.917766295</ele>
        <time>2016-02-20T08:58:30Z</time>
      </trkpt>
      <trkpt lat="45.40112" lon="5.79976">
        <ele>1148.917766295</ele>
        <time>2016-02-20T08:58:35Z</time>
      </trkpt>
      <trkpt lat="45.40112" lon="5.79976">
        <ele>1148.917766295</ele>
        <time>2016-02-20T08:58:46Z</time>
      </trkpt>
      <trkpt lat="45.40112" lon="5.79976">
        <ele>1148.917766295</ele>
        <time>2016-02-20T08:58:50Z</time>
      </trkpt>
      <trkpt lat="45.40112" lon="5.79976">
        <ele>1148.917766295</ele>
        <time>2016-02-20T08:59:05Z</time>
      </trkpt>
      <trkpt lat="45.40112" lon="5.7998">
        <ele>1153.520989916</ele>
        <time>2016-02-20T08:59:10Z</time>
      </trkpt>
      <trkpt lat="45.40111" lon="5.79985">
        <ele>1153.520989916</ele>
        <time>2016-02-20T08:59:21Z</time>
      </trkpt>
      <trkpt lat="45.40107" lon="5.7999">
        <ele>1158.279509136</ele>
        <time>2016-02-20T08:59:25Z</time>
      </trkpt>
      <trkpt lat="45.40105" lon="5.79988">
        <ele>1158.279509136</ele>
        <time>2016-02-20T08:59:35Z</time>
      </trkpt>
      <trkpt lat="45.40104" lon="5.79989">
        <ele>1158.279509136</ele>
        <time>2016-02-20T08:59:40Z</time>
      </trkpt>
      <trkpt lat="45.40104" lon="5.79989">
        <ele>1158.279509136</ele>
        <time>2016-02-20T08:59:50Z</time>
      </trkpt>
      <trkpt lat="45.40104" lon="5.79989">
        <ele>1158.279509136</ele>
        <time>2016-02-20T08:59:55Z</time>
      </trkpt>
      <trkpt lat="45.40102" lon="5.7999">
        <ele>1158.279509136</ele>
        <time>2016-02-20T09:00:04Z</time>
      </trkpt>
      <trkpt lat="45.40101" lon="5.79989">
        <ele>1158.279509136</ele>
        <time>2016-02-20T09:00:09Z</time>
      </trkpt>
      <trkpt lat="45.40103" lon="5.79986">
        <ele>1163.178428006</ele>
        <time>2016-02-20T09:00:19Z</time>
      </trkpt>
      <trkpt lat="45.40104" lon="5.79986">
        <ele>1163.178428006</ele>
        <time>2016-02-20T09:00:25Z</time>
      </trkpt>
      <trkpt lat="45.40104" lon="5.79986">
        <ele>1163.178428006</ele>
        <time>2016-02-20T09:00:36Z</time>
      </trkpt>
      <trkpt lat="45.40099" lon="5.79986">
        <ele>1163.178428006</ele>
        <time>2016-02-20T09:00:40Z</time>
      </trkpt>
      <trkpt lat="45.40086" lon="5.79982">
        <ele>1166.214446897</ele>
        <time>2016-02-20T09:00:56Z</time>
      </trkpt>
      <trkpt lat="45.40081" lon="5.79984">
        <ele>1166.214446897</ele>
        <time>2016-02-20T09:01:06Z</time>
      </trkpt>
      <trkpt lat="45.40081" lon="5.79985">
        <ele>1166.214446897</ele>
        <time>2016-02-20T09:01:10Z</time>
      </trkpt>
      <trkpt lat="45.40082" lon="5.79987">
        <ele>1166.214446897</ele>
        <time>2016-02-20T09:01:25Z</time>
      </trkpt>
      <trkpt lat="45.40081" lon="5.79987">
        <ele>1166.214446897</ele>
        <time>2016-02-20T09:01:30Z</time>
      </trkpt>
      <trkpt lat="45.4008" lon="5.79986">
        <ele>1168.818556352</ele>
        <time>2016-02-20T09:01:41Z</time>
      </trkpt>
      <trkpt lat="45.4008" lon="5.79986">
        <ele>1168.818556352</ele>
        <time>2016-02-20T09:01:46Z</time>
      </trkpt>
      <trkpt lat="45.4008" lon="5.79986">
        <ele>1168.818556352</ele>
        <time>2016-02-20T09:01:56Z</time>
      </trkpt>
      <trkpt lat="45.4008" lon="5.79986">
        <ele>1168.818556352</ele>
        <time>2016-02-20T09:02:00Z</time>
      </trkpt>
      <trkpt lat="45.4008" lon="5.79986">
        <ele>1168.818556352</ele>
        <time>2016-02-20T09:02:10Z</time>
      </trkpt>
      <trkpt lat="45.4008" lon="5.79986">
        <ele>1168.818556352</ele>
        <time>2016-02-20T09:02:15Z</time>
      </trkpt>
      <trkpt lat="45.40078" lon="5.79989">
        <ele>1168.818556352</ele>
        <time>2016-02-20T09:02:25Z</time>
      </trkpt>
      <trkpt lat="45.40079" lon="5.7999">
        <ele>1168.818556352</ele>
        <time>2016-02-20T09:02:31Z</time>
      </trkpt>
      <trkpt lat="45.40078" lon="5.79991">
        <ele>1168.818556352</ele>
        <time>2016-02-20T09:02:41Z</time>
      </trkpt>
      <trkpt lat="45.40078" lon="5.79991">
        <ele>1168.818556352</ele>
        <time>2016-02-20T09:02:45Z</time>
      </trkpt>
      <trkpt lat="45.40078" lon="5.79992">
        <ele>1168.818556352</ele>
        <time>2016-02-20T09:02:56Z</time>
      </trkpt>
      <trkpt lat="45.40078" lon="5.79992">
        <ele>1168.818556352</ele>
        <time>2016-02-20T09:03:00Z</time>
      </trkpt>
      <trkpt lat="45.40078" lon="5.79992">
        <ele>1168.818556352</ele>
        <time>2016-02-20T09:03:10Z</time>
      </trkpt>
      <trkpt lat="45.40078" lon="5.79992">
        <ele>1168.818556352</ele>
        <time>2016-02-20T09:03:15Z</time>
      </trkpt>
      <trkpt lat="45.40078" lon="5.79992">
        <ele>1168.818556352</ele>
        <time>2016-02-20T09:03:25Z</time>
      </trkpt>
      <trkpt lat="45.40078" lon="5.79992">
        <ele>1168.818556352</ele>
        <time>2016-02-20T09:03:30Z</time>
      </trkpt>
      <trkpt lat="45.40078" lon="5.79992">
        <ele>1168.818556352</ele>
        <time>2016-02-20T09:03:40Z</time>
      </trkpt>
      <trkpt lat="45.40078" lon="5.79992">
        <ele>1168.818556352</ele>
        <time>2016-02-20T09:03:44Z</time>
      </trkpt>
      <trkpt lat="45.40078" lon="5.79993">
        <ele>1168.818556352</ele>
        <time>2016-02-20T09:04:00Z</time>
      </trkpt>
      <trkpt lat="45.40079" lon="5.79997">
        <ele>1168.818556352</ele>
        <time>2016-02-20T09:04:11Z</time>
      </trkpt>
      <trkpt lat="45.40078" lon="5.79997">
        <ele>1170.915687981</ele>
        <time>2016-02-20T09:04:15Z</time>
      </trkpt>
      <trkpt lat="45.40077" lon="5.79998">
        <ele>1170.915687981</ele>
        <time>2016-02-20T09:04:25Z</time>
      </trkpt>
      <trkpt lat="45.40075" lon="5.80002">
        <ele>1170.915687981</ele>
        <time>2016-02-20T09:04:30Z</time>
      </trkpt>
      <trkpt lat="45.40072" lon="5.80013">
        <ele>1172.511324342</ele>
        <time>2016-02-20T09:04:40Z</time>
      </trkpt>
      <trkpt lat="45.40071" lon="5.8002">
        <ele>1172.511324342</ele>
        <time>2016-02-20T09:04:45Z</time>
      </trkpt>
      <trkpt lat="45.40068" lon="5.80038">
        <ele>1173.497145404</ele>
        <time>2016-02-20T09:05:00Z</time>
      </trkpt>
      <trkpt lat="45.40066" lon="5.80044">
        <ele>1173.497145404</ele>
        <time>2016-02-20T09:05:05Z</time>
      </trkpt>
      <trkpt lat="45.40061" lon="5.80051">
        <ele>1174.141881604</ele>
        <time>2016-02-20T09:05:16Z</time>
      </trkpt>
      <trkpt lat="45.40061" lon="5.80054">
        <ele>1174.141881604</ele>
        <time>2016-02-20T09:05:20Z</time>
      </trkpt>
      <trkpt lat="45.40059" lon="5.8006">
        <ele>1174.141881604</ele>
        <time>2016-02-20T09:05:31Z</time>
      </trkpt>
      <trkpt lat="45.40058" lon="5.80067">
        <ele>1174.04188243</ele>
        <time>2016-02-20T09:05:35Z</time>
      </trkpt>
      <trkpt lat="45.40056" lon="5.8008">
        <ele>1173.172217488</ele>
        <time>2016-02-20T09:05:46Z</time>
      </trkpt>
      <trkpt lat="45.40056" lon="5.80085">
        <ele>1173.172217488</ele>
        <time>2016-02-20T09:05:50Z</time>
      </trkpt>
      <trkpt lat="45.40054" lon="5.80094">
        <ele>1171.681060707</ele>
        <time>2016-02-20T09:06:01Z</time>
      </trkpt>
      <trkpt lat="45.40048" lon="5.80101">
        <ele>1171.681060707</ele>
        <time>2016-02-20T09:06:05Z</time>
      </trkpt>
      <trkpt lat="45.40049" lon="5.80108">
        <ele>1170.516786879</ele>
        <time>2016-02-20T09:06:15Z</time>
      </trkpt>
      <trkpt lat="45.40048" lon="5.8011">
        <ele>1170.516786879</ele>
        <time>2016-02-20T09:06:20Z</time>
      </trkpt>
      <trkpt lat="45.40045" lon="5.80119">
        <ele>1170.020338762</ele>
        <time>2016-02-20T09:06:31Z</time>
      </trkpt>
      <trkpt lat="45.40041" lon="5.80123">
        <ele>1170.020338762</ele>
        <time>2016-02-20T09:06:35Z</time>
      </trkpt>
      <trkpt lat="45.40035" lon="5.80128">
        <ele>1170.473233289</ele>
        <time>2016-02-20T09:06:45Z</time>
      </trkpt>
      <trkpt lat="45.40035" lon="5.80128">
        <ele>1170.473233289</ele>
        <time>2016-02-20T09:06:50Z</time>
      </trkpt>
      <trkpt lat="45.40034" lon="5.80129">
        <ele>1170.473233289</ele>
        <time>2016-02-20T09:07:01Z</time>
      </trkpt>
      <trkpt lat="45.40034" lon="5.80131">
        <ele>1170.473233289</ele>
        <time>2016-02-20T09:07:05Z</time>
      </trkpt>
      <trkpt lat="45.40025" lon="5.80138">
        <ele>1170.37882186</ele>
        <time>2016-02-20T09:07:14Z</time>
      </trkpt>
      <trkpt lat="45.40022" lon="5.80144">
        <ele>1170.37882186</ele>
        <time>2016-02-20T09:07:20Z</time>
      </trkpt>
      <trkpt lat="45.4002" lon="5.80151">
        <ele>1171.827869478</ele>
        <time>2016-02-20T09:07:35Z</time>
      </trkpt>
      <trkpt lat="45.40019" lon="5.80153">
        <ele>1171.827869478</ele>
        <time>2016-02-20T09:07:39Z</time>
      </trkpt>
      <trkpt lat="45.40014" lon="5.80161">
        <ele>1172.978306974</ele>
        <time>2016-02-20T09:07:46Z</time>
      </trkpt>
      <trkpt lat="45.40012" lon="5.80161">
        <ele>1172.978306974</ele>
        <time>2016-02-20T09:07:50Z</time>
      </trkpt>
      <trkpt lat="45.40009" lon="5.80165">
        <ele>1172.978306974</ele>
        <time>2016-02-20T09:08:00Z</time>
      </trkpt>
      <trkpt lat="45.40007" lon="5.80167">
        <ele>1175.218921533</ele>
        <time>2016-02-20T09:08:05Z</time>
      </trkpt>
      <trkpt lat="45.40002" lon="5.80173">
        <ele>1175.218921533</ele>
        <time>2016-02-20T09:08:20Z</time>
      </trkpt>
      <trkpt lat="45.39997" lon="5.80179">
        <ele>1177.543328477</ele>
        <time>2016-02-20T09:08:25Z</time>
      </trkpt>
      <trkpt lat="45.39993" lon="5.80187">
        <ele>1177.543328477</ele>
        <time>2016-02-20T09:08:35Z</time>
      </trkpt>
      <trkpt lat="45.39993" lon="5.80187">
        <ele>1177.543328477</ele>
        <time>2016-02-20T09:08:40Z</time>
      </trkpt>
      <trkpt lat="45.39993" lon="5.80189">
        <ele>1177.543328477</ele>
        <time>2016-02-20T09:08:51Z</time>
      </trkpt>
      <trkpt lat="45.3999" lon="5.80194">
        <ele>1179.505196845</ele>
        <time>2016-02-20T09:08:55Z</time>
      </trkpt>
      <trkpt lat="45.39987" lon="5.80196">
        <ele>1179.505196845</ele>
        <time>2016-02-20T09:09:05Z</time>
      </trkpt>
      <trkpt lat="45.39986" lon="5.80197">
        <ele>1179.505196845</ele>
        <time>2016-02-20T09:09:10Z</time>
      </trkpt>
      <trkpt lat="45.3998" lon="5.802">
        <ele>1181.71774472</ele>
        <time>2016-02-20T09:09:21Z</time>
      </trkpt>
      <trkpt lat="45.39978" lon="5.802">
        <ele>1181.71774472</ele>
        <time>2016-02-20T09:09:26Z</time>
      </trkpt>
      <trkpt lat="45.39968" lon="5.80203">
        <ele>1184.581077926</ele>
        <time>2016-02-20T09:09:36Z</time>
      </trkpt>
      <trkpt lat="45.39967" lon="5.80204">
        <ele>1184.581077926</ele>
        <time>2016-02-20T09:09:40Z</time>
      </trkpt>
      <trkpt lat="45.39959" lon="5.80208">
        <ele>1187.182721353</ele>
        <time>2016-02-20T09:09:51Z</time>
      </trkpt>
      <trkpt lat="45.39957" lon="5.80208">
        <ele>1187.182721353</ele>
        <time>2016-02-20T09:09:55Z</time>
      </trkpt>
      <trkpt lat="45.39947" lon="5.80209">
        <ele>1189.96432462</ele>
        <time>2016-02-20T09:10:05Z</time>
      </trkpt>
      <trkpt lat="45.39944" lon="5.8021">
        <ele>1189.96432462</ele>
        <time>2016-02-20T09:10:10Z</time>
      </trkpt>
      <trkpt lat="45.39936" lon="5.80213">
        <ele>1192.488801835</ele>
        <time>2016-02-20T09:10:25Z</time>
      </trkpt>
      <trkpt lat="45.39933" lon="5.80214">
        <ele>1192.488801835</ele>
        <time>2016-02-20T09:10:30Z</time>
      </trkpt>
      <trkpt lat="45.3993" lon="5.80212">
        <ele>1192.488801835</ele>
        <time>2016-02-20T09:10:39Z</time>
      </trkpt>
      <trkpt lat="45.39926" lon="5.80213">
        <ele>1195.190933668</ele>
        <time>2016-02-20T09:10:44Z</time>
      </trkpt>
      <trkpt lat="45.39918" lon="5.80215">
        <ele>1195.190933668</ele>
        <time>2016-02-20T09:10:55Z</time>
      </trkpt>
      <trkpt lat="45.39916" lon="5.80217">
        <ele>1198.470074376</ele>
        <time>2016-02-20T09:11:00Z</time>
      </trkpt>
      <trkpt lat="45.39913" lon="5.80221">
        <ele>1198.470074376</ele>
        <time>2016-02-20T09:11:11Z</time>
      </trkpt>
      <trkpt lat="45.39911" lon="5.80221">
        <ele>1198.470074376</ele>
        <time>2016-02-20T09:11:15Z</time>
      </trkpt>
      <trkpt lat="45.39903" lon="5.80228">
        <ele>1201.587007946</ele>
        <time>2016-02-20T09:11:25Z</time>
      </trkpt>
      <trkpt lat="45.39893" lon="5.80234">
        <ele>1205.106139036</ele>
        <time>2016-02-20T09:11:30Z</time>
      </trkpt>
      <trkpt lat="45.39885" lon="5.80241">
        <ele>1208.439935698</ele>
        <time>2016-02-20T09:11:40Z</time>
      </trkpt>
      <trkpt lat="45.39878" lon="5.80247">
        <ele>1208.439935698</ele>
        <time>2016-02-20T09:11:45Z</time>
      </trkpt>
      <trkpt lat="45.39874" lon="5.80252">
        <ele>1211.596939831</ele>
        <time>2016-02-20T09:11:55Z</time>
      </trkpt>
      <trkpt lat="45.39869" lon="5.80254">
        <ele>1211.596939831</ele>
        <time>2016-02-20T09:12:00Z</time>
      </trkpt>
      <trkpt lat="45.39864" lon="5.80253">
        <ele>1214.867070579</ele>
        <time>2016-02-20T09:12:05Z</time>
      </trkpt>
      <trkpt lat="45.39856" lon="5.80258">
        <ele>1217.815978933</ele>
        <time>2016-02-20T09:12:16Z</time>
      </trkpt>
      <trkpt lat="45.3985" lon="5.80259">
        <ele>1217.815978933</ele>
        <time>2016-02-20T09:12:20Z</time>
      </trkpt>
      <trkpt lat="45.39841" lon="5.80264">
        <ele>1220.460645583</ele>
        <time>2016-02-20T09:12:31Z</time>
      </trkpt>
      <trkpt lat="45.39836" lon="5.80266">
        <ele>1220.460645583</ele>
        <time>2016-02-20T09:12:35Z</time>
      </trkpt>
      <trkpt lat="45.39831" lon="5.80267">
        <ele>1223.249568541</ele>
        <time>2016-02-20T09:12:46Z</time>
      </trkpt>
      <trkpt lat="45.39826" lon="5.80266">
        <ele>1223.249568541</ele>
        <time>2016-02-20T09:12:50Z</time>
      </trkpt>
      <trkpt lat="45.3982" lon="5.80264">
        <ele>1227.187919383</ele>
        <time>2016-02-20T09:13:01Z</time>
      </trkpt>
      <trkpt lat="45.39815" lon="5.80263">
        <ele>1227.187919383</ele>
        <time>2016-02-20T09:13:06Z</time>
      </trkpt>
      <trkpt lat="45.39809" lon="5.80264">
        <ele>1230.166446255</ele>
        <time>2016-02-20T09:13:15Z</time>
      </trkpt>
      <trkpt lat="45.39806" lon="5.80264">
        <ele>1230.166446255</ele>
        <time>2016-02-20T09:13:21Z</time>
      </trkpt>
      <trkpt lat="45.39797" lon="5.80262">
        <ele>1232.827425475</ele>
        <time>2016-02-20T09:13:31Z</time>
      </trkpt>
      <trkpt lat="45.39793" lon="5.80259">
        <ele>1232.827425475</ele>
        <time>2016-02-20T09:13:35Z</time>
      </trkpt>
      <trkpt lat="45.39783" lon="5.80258">
        <ele>1235.634039624</ele>
        <time>2016-02-20T09:13:44Z</time>
      </trkpt>
      <trkpt lat="45.39776" lon="5.80257">
        <ele>1235.634039624</ele>
        <time>2016-02-20T09:13:51Z</time>
      </trkpt>
      <trkpt lat="45.39765" lon="5.80259">
        <ele>1239.023624137</ele>
        <time>2016-02-20T09:14:05Z</time>
      </trkpt>
      <trkpt lat="45.39752" lon="5.80264">
        <ele>1242.064326649</ele>
        <time>2016-02-20T09:14:16Z</time>
      </trkpt>
      <trkpt lat="45.39746" lon="5.80264">
        <ele>1242.064326649</ele>
        <time>2016-02-20T09:14:20Z</time>
      </trkpt>
      <trkpt lat="45.39743" lon="5.80264">
        <ele>1244.928894931</ele>
        <time>2016-02-20T09:14:31Z</time>
      </trkpt>
      <trkpt lat="45.39741" lon="5.80264">
        <ele>1244.928894931</ele>
        <time>2016-02-20T09:14:35Z</time>
      </trkpt>
      <trkpt lat="45.39741" lon="5.80265">
        <ele>1244.928894931</ele>
        <time>2016-02-20T09:14:51Z</time>
      </trkpt>
      <trkpt lat="45.39741" lon="5.80264">
        <ele>1244.928894931</ele>
        <time>2016-02-20T09:14:55Z</time>
      </trkpt>
      <trkpt lat="45.39741" lon="5.80264">
        <ele>1244.928894931</ele>
        <time>2016-02-20T09:15:05Z</time>
      </trkpt>
      <trkpt lat="45.39741" lon="5.80264">
        <ele>1244.928894931</ele>
        <time>2016-02-20T09:15:10Z</time>
      </trkpt>
      <trkpt lat="45.39741" lon="5.80264">
        <ele>1244.928894931</ele>
        <time>2016-02-20T09:15:20Z</time>
      </trkpt>
      <trkpt lat="45.39741" lon="5.80264">
        <ele>1244.928894931</ele>
        <time>2016-02-20T09:15:25Z</time>
      </trkpt>
      <trkpt lat="45.39741" lon="5.80264">
        <ele>1244.928894931</ele>
        <time>2016-02-20T09:15:35Z</time>
      </trkpt>
      <trkpt lat="45.39741" lon="5.80264">
        <ele>1244.928894931</ele>
        <time>2016-02-20T09:15:40Z</time>
      </trkpt>
      <trkpt lat="45.39741" lon="5.80264">
        <ele>1244.928894931</ele>
        <time>2016-02-20T09:15:45Z</time>
      </trkpt>
      <trkpt lat="45.39741" lon="5.80264">
        <ele>1244.928894931</ele>
        <time>2016-02-20T09:15:51Z</time>
      </trkpt>
      <trkpt lat="45.39741" lon="5.80264">
        <ele>1244.928894931</ele>
        <time>2016-02-20T09:15:55Z</time>
      </trkpt>
      <trkpt lat="45.39741" lon="5.80264">
        <ele>1244.928894931</ele>
        <time>2016-02-20T09:16:10Z</time>
      </trkpt>
      <trkpt lat="45.39741" lon="5.80264">
        <ele>1244.928894931</ele>
        <time>2016-02-20T09:16:15Z</time>
      </trkpt>
      <trkpt lat="45.39741" lon="5.80264">
        <ele>1244.928894931</ele>
        <time>2016-02-20T09:16:30Z</time>
      </trkpt>
      <trkpt lat="45.39741" lon="5.80264">
        <ele>1244.928894931</ele>
        <time>2016-02-20T09:16:40Z</time>
      </trkpt>
      <trkpt lat="45.39736" lon="5.80265">
        <ele>1244.928894931</ele>
        <time>2016-02-20T09:16:45Z</time>
      </trkpt>
      <trkpt lat="45.39721" lon="5.80277">
        <ele>1247.030294055</ele>
        <time>2016-02-20T09:16:55Z</time>
      </trkpt>
      <trkpt lat="45.39708" lon="5.8028">
        <ele>1248.576565589</ele>
        <time>2016-02-20T09:17:00Z</time>
      </trkpt>
      <trkpt lat="45.39698" lon="5.8028">
        <ele>1250.518633124</ele>
        <time>2016-02-20T09:17:10Z</time>
      </trkpt>
      <trkpt lat="45.39695" lon="5.8028">
        <ele>1250.518633124</ele>
        <time>2016-02-20T09:17:15Z</time>
      </trkpt>
      <trkpt lat="45.39681" lon="5.80286">
        <ele>1252.078395363</ele>
        <time>2016-02-20T09:17:25Z</time>
      </trkpt>
      <trkpt lat="45.39676" lon="5.80289">
        <ele>1252.078395363</ele>
        <time>2016-02-20T09:17:30Z</time>
      </trkpt>
      <trkpt lat="45.39663" lon="5.80287">
        <ele>1254.04567596</ele>
        <time>2016-02-20T09:17:45Z</time>
      </trkpt>
      <trkpt lat="45.39659" lon="5.80288">
        <ele>1254.04567596</ele>
        <time>2016-02-20T09:17:50Z</time>
      </trkpt>
      <trkpt lat="45.39651" lon="5.80293">
        <ele>1255.639124012</ele>
        <time>2016-02-20T09:18:00Z</time>
      </trkpt>
      <trkpt lat="45.3965" lon="5.80292">
        <ele>1255.639124012</ele>
        <time>2016-02-20T09:18:05Z</time>
      </trkpt>
      <trkpt lat="45.39649" lon="5.80292">
        <ele>1255.639124012</ele>
        <time>2016-02-20T09:18:14Z</time>
      </trkpt>
      <trkpt lat="45.39649" lon="5.80291">
        <ele>1255.639124012</ele>
        <time>2016-02-20T09:18:20Z</time>
      </trkpt>
      <trkpt lat="45.39647" lon="5.80291">
        <ele>1255.639124012</ele>
        <time>2016-02-20T09:18:30Z</time>
      </trkpt>
      <trkpt lat="45.39643" lon="5.80292">
        <ele>1257.798611954</ele>
        <time>2016-02-20T09:18:35Z</time>
      </trkpt>
      <trkpt lat="45.39629" lon="5.80298">
        <ele>1259.578454551</ele>
        <time>2016-02-20T09:18:45Z</time>
      </trkpt>
      <trkpt lat="45.39626" lon="5.80299">
        <ele>1259.578454551</ele>
        <time>2016-02-20T09:18:50Z</time>
      </trkpt>
      <trkpt lat="45.39612" lon="5.80301">
        <ele>1262.066868542</ele>
        <time>2016-02-20T09:19:00Z</time>
      </trkpt>
      <trkpt lat="45.39608" lon="5.80301">
        <ele>1262.066868542</ele>
        <time>2016-02-20T09:19:05Z</time>
      </trkpt>
      <trkpt lat="45.39597" lon="5.8031">
        <ele>1264.607497196</ele>
        <time>2016-02-20T09:19:16Z</time>
      </trkpt>
      <trkpt lat="45.39596" lon="5.80313">
        <ele>1264.607497196</ele>
        <time>2016-02-20T09:19:20Z</time>
      </trkpt>
      <trkpt lat="45.3959" lon="5.80317">
        <ele>1264.607497196</ele>
        <time>2016-02-20T09:19:30Z</time>
      </trkpt>
      <trkpt lat="45.39586" lon="5.80318">
        <ele>1267.647395003</ele>
        <time>2016-02-20T09:19:35Z</time>
      </trkpt>
      <trkpt lat="45.39577" lon="5.80321">
        <ele>1270.397363049</ele>
        <time>2016-02-20T09:19:46Z</time>
      </trkpt>
      <trkpt lat="45.39574" lon="5.80324">
        <ele>1270.397363049</ele>
        <time>2016-02-20T09:19:50Z</time>
      </trkpt>
      <trkpt lat="45.39565" lon="5.80326">
        <ele>1273.628174793</ele>
        <time>2016-02-20T09:20:01Z</time>
      </trkpt>
      <trkpt lat="45.39561" lon="5.80328">
        <ele>1273.628174793</ele>
        <time>2016-02-20T09:20:05Z</time>
      </trkpt>
      <trkpt lat="45.39548" lon="5.80336">
        <ele>1277.150656483</ele>
        <time>2016-02-20T09:20:21Z</time>
      </trkpt>
      <trkpt lat="45.39545" lon="5.80337">
        <ele>1277.150656483</ele>
        <time>2016-02-20T09:20:25Z</time>
      </trkpt>
      <trkpt lat="45.3954" lon="5.80344">
        <ele>1280.047833105</ele>
        <time>2016-02-20T09:20:35Z</time>
      </trkpt>
      <trkpt lat="45.39539" lon="5.80345">
        <ele>1280.047833105</ele>
        <time>2016-02-20T09:20:40Z</time>
      </trkpt>
      <trkpt lat="45.39539" lon="5.80347">
        <ele>1280.047833105</ele>
        <time>2016-02-20T09:20:50Z</time>
      </trkpt>
      <trkpt lat="45.39539" lon="5.80347">
        <ele>1280.047833105</ele>
        <time>2016-02-20T09:20:55Z</time>
      </trkpt>
      <trkpt lat="45.39528" lon="5.8035">
        <ele>1282.963764391</ele>
        <time>2016-02-20T09:21:05Z</time>
      </trkpt>
      <trkpt lat="45.39525" lon="5.80348">
        <ele>1282.963764391</ele>
        <time>2016-02-20T09:21:09Z</time>
      </trkpt>
      <trkpt lat="45.39518" lon="5.8035">
        <ele>1286.340455767</ele>
        <time>2016-02-20T09:21:20Z</time>
      </trkpt>
      <trkpt lat="45.39511" lon="5.80351">
        <ele>1286.340455767</ele>
        <time>2016-02-20T09:21:26Z</time>
      </trkpt>
      <trkpt lat="45.39506" lon="5.80352">
        <ele>1289.106967451</ele>
        <time>2016-02-20T09:21:34Z</time>
      </trkpt>
      <trkpt lat="45.39505" lon="5.80352">
        <ele>1289.106967451</ele>
        <time>2016-02-20T09:21:39Z</time>
      </trkpt>
      <trkpt lat="45.39497" lon="5.80352">
        <ele>1289.106967451</ele>
        <time>2016-02-20T09:21:50Z</time>
      </trkpt>
      <trkpt lat="45.39494" lon="5.80354">
        <ele>1291.754552207</ele>
        <time>2016-02-20T09:21:56Z</time>
      </trkpt>
      <trkpt lat="45.39488" lon="5.80352">
        <ele>1291.754552207</ele>
        <time>2016-02-20T09:22:06Z</time>
      </trkpt>
      <trkpt lat="45.39488" lon="5.80352">
        <ele>1291.754552207</ele>
        <time>2016-02-20T09:22:10Z</time>
      </trkpt>
      <trkpt lat="45.39477" lon="5.80352">
        <ele>1294.880667557</ele>
        <time>2016-02-20T09:22:21Z</time>
      </trkpt>
      <trkpt lat="45.39475" lon="5.80349">
        <ele>1294.880667557</ele>
        <time>2016-02-20T09:22:25Z</time>
      </trkpt>
      <trkpt lat="45.39468" lon="5.80348">
        <ele>1297.860514234</ele>
        <time>2016-02-20T09:22:35Z</time>
      </trkpt>
      <trkpt lat="45.39465" lon="5.80351">
        <ele>1297.860514234</ele>
        <time>2016-02-20T09:22:40Z</time>
      </trkpt>
      <trkpt lat="45.39458" lon="5.80347">
        <ele>1301.436502461</ele>
        <time>2016-02-20T09:22:51Z</time>
      </trkpt>
      <trkpt lat="45.39456" lon="5.80347">
        <ele>1301.436502461</ele>
        <time>2016-02-20T09:22:55Z</time>
      </trkpt>
      <trkpt lat="45.39448" lon="5.80347">
        <ele>1304.684288279</ele>
        <time>2016-02-20T09:23:05Z</time>
      </trkpt>
      <trkpt lat="45.39445" lon="5.80347">
        <ele>1304.684288279</ele>
        <time>2016-02-20T09:23:10Z</time>
      </trkpt>
      <trkpt lat="45.39438" lon="5.80347">
        <ele>1308.211529986</ele>
        <time>2016-02-20T09:23:25Z</time>
      </trkpt>
      <trkpt lat="45.39435" lon="5.80348">
        <ele>1308.211529986</ele>
        <time>2016-02-20T09:23:30Z</time>
      </trkpt>
      <trkpt lat="45.39427" lon="5.80345">
        <ele>1311.413113338</ele>
        <time>2016-02-20T09:23:40Z</time>
      </trkpt>
      <trkpt lat="45.39427" lon="5.80346">
        <ele>1311.413113338</ele>
        <time>2016-02-20T09:23:45Z</time>
      </trkpt>
      <trkpt lat="45.39414" lon="5.80345">
        <ele>1314.749323144</ele>
        <time>2016-02-20T09:23:56Z</time>
      </trkpt>
      <trkpt lat="45.39411" lon="5.80344">
        <ele>1314.749323144</ele>
        <time>2016-02-20T09:24:00Z</time>
      </trkpt>
      <trkpt lat="45.39407" lon="5.80343">
        <ele>1314.749323144</ele>
        <time>2016-02-20T09:24:11Z</time>
      </trkpt>
      <trkpt lat="45.39406" lon="5.80342">
        <ele>1314.749323144</ele>
        <time>2016-02-20T09:24:15Z</time>
      </trkpt>
      <trkpt lat="45.39405" lon="5.80342">
        <ele>1318.498753028</ele>
        <time>2016-02-20T09:24:26Z</time>
      </trkpt>
      <trkpt lat="45.39398" lon="5.80341">
        <ele>1318.498753028</ele>
        <time>2016-02-20T09:24:31Z</time>
      </trkpt>
      <trkpt lat="45.39391" lon="5.80334">
        <ele>1322.482652037</ele>
        <time>2016-02-20T09:24:40Z</time>
      </trkpt>
      <trkpt lat="45.39386" lon="5.80335">
        <ele>1322.482652037</ele>
        <time>2016-02-20T09:24:45Z</time>
      </trkpt>
      <trkpt lat="45.39379" lon="5.80339">
        <ele>1326.535663186</ele>
        <time>2016-02-20T09:24:55Z</time>
      </trkpt>
      <trkpt lat="45.39373" lon="5.80337">
        <ele>1326.535663186</ele>
        <time>2016-02-20T09:25:01Z</time>
      </trkpt>
      <trkpt lat="45.39369" lon="5.80333">
        <ele>1331.372723601</ele>
        <time>2016-02-20T09:25:10Z</time>
      </trkpt>
      <trkpt lat="45.39368" lon="5.80332">
        <ele>1331.372723601</ele>
        <time>2016-02-20T09:25:16Z</time>
      </trkpt>
      <trkpt lat="45.39368" lon="5.80335">
        <ele>1331.372723601</ele>
        <time>2016-02-20T09:25:26Z</time>
      </trkpt>
      <trkpt lat="45.39362" lon="5.80345">
        <ele>1335.629015213</ele>
        <time>2016-02-20T09:25:31Z</time>
      </trkpt>
      <trkpt lat="45.39356" lon="5.80358">
        <ele>1338.911589998</ele>
        <time>2016-02-20T09:25:41Z</time>
      </trkpt>
      <trkpt lat="45.39356" lon="5.80359">
        <ele>1338.911589998</ele>
        <time>2016-02-20T09:25:45Z</time>
      </trkpt>
      <trkpt lat="45.39362" lon="5.8037">
        <ele>1342.014380967</ele>
        <time>2016-02-20T09:25:56Z</time>
      </trkpt>
      <trkpt lat="45.39359" lon="5.8038">
        <ele>1342.014380967</ele>
        <time>2016-02-20T09:26:00Z</time>
      </trkpt>
      <trkpt lat="45.39357" lon="5.80391">
        <ele>1345.960571726</ele>
        <time>2016-02-20T09:26:10Z</time>
      </trkpt>
      <trkpt lat="45.39357" lon="5.80394">
        <ele>1345.960571726</ele>
        <time>2016-02-20T09:26:15Z</time>
      </trkpt>
      <trkpt lat="45.39366" lon="5.8041">
        <ele>1349.963553722</ele>
        <time>2016-02-20T09:26:31Z</time>
      </trkpt>
      <trkpt lat="45.39373" lon="5.80427">
        <ele>1353.583783104</ele>
        <time>2016-02-20T09:26:46Z</time>
      </trkpt>
      <trkpt lat="45.39375" lon="5.80432">
        <ele>1353.583783104</ele>
        <time>2016-02-20T09:26:51Z</time>
      </trkpt>
      <trkpt lat="45.39378" lon="5.80443">
        <ele>1356.992207073</ele>
        <time>2016-02-20T09:27:01Z</time>
      </trkpt>
      <trkpt lat="45.39379" lon="5.80446">
        <ele>1356.992207073</ele>
        <time>2016-02-20T09:27:06Z</time>
      </trkpt>
      <trkpt lat="45.39382" lon="5.80459">
        <ele>1360.780253186</ele>
        <time>2016-02-20T09:27:15Z</time>
      </trkpt>
      <trkpt lat="45.39384" lon="5.80461">
        <ele>1360.780253186</ele>
        <time>2016-02-20T09:27:21Z</time>
      </trkpt>
      <trkpt lat="45.39389" lon="5.80478">
        <ele>1364.485450399</ele>
        <time>2016-02-20T09:27:31Z</time>
      </trkpt>
      <trkpt lat="45.39388" lon="5.80484">
        <ele>1364.485450399</ele>
        <time>2016-02-20T09:27:35Z</time>
      </trkpt>
      <trkpt lat="45.39389" lon="5.80488">
        <ele>1364.485450399</ele>
        <time>2016-02-20T09:27:39Z</time>
      </trkpt>
      <trkpt lat="45.3939" lon="5.80497">
        <ele>1367.535525012</ele>
        <time>2016-02-20T09:27:45Z</time>
      </trkpt>
      <trkpt lat="45.39392" lon="5.80498">
        <ele>1367.535525012</ele>
        <time>2016-02-20T09:27:50Z</time>
      </trkpt>
      <trkpt lat="45.39392" lon="5.80504">
        <ele>1367.535525012</ele>
        <time>2016-02-20T09:28:00Z</time>
      </trkpt>
      <trkpt lat="45.39395" lon="5.80509">
        <ele>1370.699719963</ele>
        <time>2016-02-20T09:28:05Z</time>
      </trkpt>
      <trkpt lat="45.39404" lon="5.80525">
        <ele>1373.969584634</ele>
        <time>2016-02-20T09:28:15Z</time>
      </trkpt>
      <trkpt lat="45.39403" lon="5.80531">
        <ele>1373.969584634</ele>
        <time>2016-02-20T09:28:20Z</time>
      </trkpt>
      <trkpt lat="45.39408" lon="5.80532">
        <ele>1376.904493641</ele>
        <time>2016-02-20T09:28:25Z</time>
      </trkpt>
      <trkpt lat="45.3941" lon="5.80539">
        <ele>1376.904493641</ele>
        <time>2016-02-20T09:28:35Z</time>
      </trkpt>
      <trkpt lat="45.39413" lon="5.8054">
        <ele>1376.904493641</ele>
        <time>2016-02-20T09:28:40Z</time>
      </trkpt>
      <trkpt lat="45.39418" lon="5.8055">
        <ele>1379.962288999</ele>
        <time>2016-02-20T09:28:51Z</time>
      </trkpt>
      <trkpt lat="45.39428" lon="5.80556">
        <ele>1383.566941682</ele>
        <time>2016-02-20T09:29:05Z</time>
      </trkpt>
      <trkpt lat="45.39426" lon="5.80557">
        <ele>1383.566941682</ele>
        <time>2016-02-20T09:29:10Z</time>
      </trkpt>
      <trkpt lat="45.39427" lon="5.80559">
        <ele>1383.566941682</ele>
        <time>2016-02-20T09:29:21Z</time>
      </trkpt>
      <trkpt lat="45.39427" lon="5.80559">
        <ele>1383.566941682</ele>
        <time>2016-02-20T09:29:25Z</time>
      </trkpt>
      <trkpt lat="45.39434" lon="5.8057">
        <ele>1386.667737528</ele>
        <time>2016-02-20T09:29:35Z</time>
      </trkpt>
      <trkpt lat="45.39437" lon="5.80582">
        <ele>1386.667737528</ele>
        <time>2016-02-20T09:29:40Z</time>
      </trkpt>
      <trkpt lat="45.3944" lon="5.8059">
        <ele>1389.734638982</ele>
        <time>2016-02-20T09:29:50Z</time>
      </trkpt>
      <trkpt lat="45.39441" lon="5.80592">
        <ele>1389.734638982</ele>
        <time>2016-02-20T09:29:56Z</time>
      </trkpt>
      <trkpt lat="45.39447" lon="5.80602">
        <ele>1392.049469768</ele>
        <time>2016-02-20T09:30:05Z</time>
      </trkpt>
      <trkpt lat="45.39449" lon="5.80608">
        <ele>1392.049469768</ele>
        <time>2016-02-20T09:30:11Z</time>
      </trkpt>
      <trkpt lat="45.39455" lon="5.80614">
        <ele>1394.102747981</ele>
        <time>2016-02-20T09:30:21Z</time>
      </trkpt>
      <trkpt lat="45.39457" lon="5.80618">
        <ele>1394.102747981</ele>
        <time>2016-02-20T09:30:25Z</time>
      </trkpt>
      <trkpt lat="45.39464" lon="5.80625">
        <ele>1396.782479046</ele>
        <time>2016-02-20T09:30:39Z</time>
      </trkpt>
      <trkpt lat="45.39465" lon="5.80628">
        <ele>1396.782479046</ele>
        <time>2016-02-20T09:30:45Z</time>
      </trkpt>
      <trkpt lat="45.3947" lon="5.8063">
        <ele>1396.782479046</ele>
        <time>2016-02-20T09:30:56Z</time>
      </trkpt>
      <trkpt lat="45.39473" lon="5.80634">
        <ele>1399.900028123</ele>
        <time>2016-02-20T09:31:00Z</time>
      </trkpt>
      <trkpt lat="45.3948" lon="5.80637">
        <ele>1399.900028123</ele>
        <time>2016-02-20T09:31:11Z</time>
      </trkpt>
      <trkpt lat="45.39482" lon="5.80637">
        <ele>1403.423610259</ele>
        <time>2016-02-20T09:31:15Z</time>
      </trkpt>
      <trkpt lat="45.39487" lon="5.80645">
        <ele>1403.423610259</ele>
        <time>2016-02-20T09:31:25Z</time>
      </trkpt>
      <trkpt lat="45.39489" lon="5.80649">
        <ele>1406.024422654</ele>
        <time>2016-02-20T09:31:30Z</time>
      </trkpt>
      <trkpt lat="45.39494" lon="5.80656">
        <ele>1406.024422654</ele>
        <time>2016-02-20T09:31:40Z</time>
      </trkpt>
      <trkpt lat="45.39495" lon="5.80656">
        <ele>1406.024422654</ele>
        <time>2016-02-20T09:31:45Z</time>
      </trkpt>
      <trkpt lat="45.39497" lon="5.80663">
        <ele>1408.926097356</ele>
        <time>2016-02-20T09:31:56Z</time>
      </trkpt>
      <trkpt lat="45.395" lon="5.80667">
        <ele>1408.926097356</ele>
        <time>2016-02-20T09:32:00Z</time>
      </trkpt>
      <trkpt lat="45.39507" lon="5.80673">
        <ele>1412.68446458</ele>
        <time>2016-02-20T09:32:11Z</time>
      </trkpt>
      <trkpt lat="45.39509" lon="5.80677">
        <ele>1412.68446458</ele>
        <time>2016-02-20T09:32:16Z</time>
      </trkpt>
      <trkpt lat="45.3951" lon="5.80687">
        <ele>1416.369641677</ele>
        <time>2016-02-20T09:32:25Z</time>
      </trkpt>
      <trkpt lat="45.39513" lon="5.80688">
        <ele>1416.369641677</ele>
        <time>2016-02-20T09:32:30Z</time>
      </trkpt>
      <trkpt lat="45.39516" lon="5.80696">
        <ele>1416.369641677</ele>
        <time>2016-02-20T09:32:40Z</time>
      </trkpt>
      <trkpt lat="45.39519" lon="5.807">
        <ele>1419.985790731</ele>
        <time>2016-02-20T09:32:45Z</time>
      </trkpt>
      <trkpt lat="45.39523" lon="5.80712">
        <ele>1423.825425997</ele>
        <time>2016-02-20T09:33:01Z</time>
      </trkpt>
      <trkpt lat="45.39516" lon="5.80716">
        <ele>1423.825425997</ele>
        <time>2016-02-20T09:33:05Z</time>
      </trkpt>
      <trkpt lat="45.39513" lon="5.80725">
        <ele>1428.303122344</ele>
        <time>2016-02-20T09:33:15Z</time>
      </trkpt>
      <trkpt lat="45.39512" lon="5.80729">
        <ele>1428.303122344</ele>
        <time>2016-02-20T09:33:20Z</time>
      </trkpt>
      <trkpt lat="45.3951" lon="5.80733">
        <ele>1428.303122344</ele>
        <time>2016-02-20T09:33:31Z</time>
      </trkpt>
      <trkpt lat="45.3951" lon="5.80734">
        <ele>1428.303122344</ele>
        <time>2016-02-20T09:33:35Z</time>
      </trkpt>
      <trkpt lat="45.39505" lon="5.80748">
        <ele>1431.926309776</ele>
        <time>2016-02-20T09:33:45Z</time>
      </trkpt>
      <trkpt lat="45.39506" lon="5.80752">
        <ele>1431.926309776</ele>
        <time>2016-02-20T09:33:50Z</time>
      </trkpt>
      <trkpt lat="45.39504" lon="5.80767">
        <ele>1435.477946939</ele>
        <time>2016-02-20T09:34:00Z</time>
      </trkpt>
      <trkpt lat="45.39504" lon="5.8077">
        <ele>1435.477946939</ele>
        <time>2016-02-20T09:34:04Z</time>
      </trkpt>
      <trkpt lat="45.39498" lon="5.80791">
        <ele>1439.106721399</ele>
        <time>2016-02-20T09:34:21Z</time>
      </trkpt>
      <trkpt lat="45.39499" lon="5.80793">
        <ele>1439.106721399</ele>
        <time>2016-02-20T09:34:25Z</time>
      </trkpt>
      <trkpt lat="45.395" lon="5.80797">
        <ele>1439.106721399</ele>
        <time>2016-02-20T09:34:31Z</time>
      </trkpt>
      <trkpt lat="45.39497" lon="5.80797">
        <ele>1439.106721399</ele>
        <time>2016-02-20T09:34:35Z</time>
      </trkpt>
      <trkpt lat="45.39498" lon="5.80798">
        <ele>1439.106721399</ele>
        <time>2016-02-20T09:34:50Z</time>
      </trkpt>
      <trkpt lat="45.39497" lon="5.80806">
        <ele>1441.94080161</ele>
        <time>2016-02-20T09:34:55Z</time>
      </trkpt>
      <trkpt lat="45.39489" lon="5.80824">
        <ele>1444.760909976</ele>
        <time>2016-02-20T09:35:06Z</time>
      </trkpt>
      <trkpt lat="45.39489" lon="5.80827">
        <ele>1444.760909976</ele>
        <time>2016-02-20T09:35:10Z</time>
      </trkpt>
      <trkpt lat="45.39487" lon="5.80828">
        <ele>1444.760909976</ele>
        <time>2016-02-20T09:35:20Z</time>
      </trkpt>
      <trkpt lat="45.39487" lon="5.80828">
        <ele>1444.760909976</ele>
        <time>2016-02-20T09:35:25Z</time>
      </trkpt>
      <trkpt lat="45.39487" lon="5.80828">
        <ele>1444.760909976</ele>
        <time>2016-02-20T09:35:35Z</time>
      </trkpt>
      <trkpt lat="45.39487" lon="5.80828">
        <ele>1444.760909976</ele>
        <time>2016-02-20T09:35:40Z</time>
      </trkpt>
      <trkpt lat="45.39487" lon="5.80828">
        <ele>1444.760909976</ele>
        <time>2016-02-20T09:35:51Z</time>
      </trkpt>
      <trkpt lat="45.39487" lon="5.80828">
        <ele>1444.760909976</ele>
        <time>2016-02-20T09:35:55Z</time>
      </trkpt>
      <trkpt lat="45.39487" lon="5.80828">
        <ele>1444.760909976</ele>
        <time>2016-02-20T09:36:00Z</time>
      </trkpt>
      <trkpt lat="45.39487" lon="5.80828">
        <ele>1444.760909976</ele>
        <time>2016-02-20T09:36:10Z</time>
      </trkpt>
      <trkpt lat="45.39487" lon="5.80828">
        <ele>1444.760909976</ele>
        <time>2016-02-20T09:36:15Z</time>
      </trkpt>
      <trkpt lat="45.39487" lon="5.80828">
        <ele>1444.760909976</ele>
        <time>2016-02-20T09:36:26Z</time>
      </trkpt>
      <trkpt lat="45.39487" lon="5.80828">
        <ele>1444.760909976</ele>
        <time>2016-02-20T09:36:30Z</time>
      </trkpt>
      <trkpt lat="45.39487" lon="5.80828">
        <ele>1444.760909976</ele>
        <time>2016-02-20T09:36:41Z</time>
      </trkpt>
      <trkpt lat="45.39487" lon="5.80828">
        <ele>1444.760909976</ele>
        <time>2016-02-20T09:36:45Z</time>
      </trkpt>
      <trkpt lat="45.39487" lon="5.80828">
        <ele>1444.760909976</ele>
        <time>2016-02-20T09:36:56Z</time>
      </trkpt>
      <trkpt lat="45.39487" lon="5.80828">
        <ele>1444.760909976</ele>
        <time>2016-02-20T09:37:00Z</time>
      </trkpt>
      <trkpt lat="45.39487" lon="5.80828">
        <ele>1444.760909976</ele>
        <time>2016-02-20T09:37:10Z</time>
      </trkpt>
      <trkpt lat="45.39487" lon="5.80828">
        <ele>1444.760909976</ele>
        <time>2016-02-20T09:37:15Z</time>
      </trkpt>
      <trkpt lat="45.39487" lon="5.80828">
        <ele>1444.760909976</ele>
        <time>2016-02-20T09:37:25Z</time>
      </trkpt>
      <trkpt lat="45.39487" lon="5.80828">
        <ele>1444.760909976</ele>
        <time>2016-02-20T09:37:29Z</time>
      </trkpt>
      <trkpt lat="45.39489" lon="5.80827">
        <ele>1444.760909976</ele>
        <time>2016-02-20T09:37:45Z</time>
      </trkpt>
      <trkpt lat="45.3949" lon="5.80828">
        <ele>1444.760909976</ele>
        <time>2016-02-20T09:37:50Z</time>
      </trkpt>
      <trkpt lat="45.3949" lon="5.80828">
        <ele>1444.760909976</ele>
        <time>2016-02-20T09:38:00Z</time>
      </trkpt>
      <trkpt lat="45.3949" lon="5.80828">
        <ele>1444.760909976</ele>
        <time>2016-02-20T09:38:06Z</time>
      </trkpt>
      <trkpt lat="45.39489" lon="5.80827">
        <ele>1444.760909976</ele>
        <time>2016-02-20T09:38:15Z</time>
      </trkpt>
      <trkpt lat="45.3949" lon="5.80827">
        <ele>1444.760909976</ele>
        <time>2016-02-20T09:38:20Z</time>
      </trkpt>
      <trkpt lat="45.39489" lon="5.80826">
        <ele>1449.011209556</ele>
        <time>2016-02-20T09:38:31Z</time>
      </trkpt>
      <trkpt lat="45.39489" lon="5.80826">
        <ele>1449.011209556</ele>
        <time>2016-02-20T09:38:35Z</time>
      </trkpt>
      <trkpt lat="45.39489" lon="5.80826">
        <ele>1449.011209556</ele>
        <time>2016-02-20T09:38:45Z</time>
      </trkpt>
      <trkpt lat="45.3949" lon="5.80826">
        <ele>1449.011209556</ele>
        <time>2016-02-20T09:38:50Z</time>
      </trkpt>
      <trkpt lat="45.3949" lon="5.80826">
        <ele>1449.011209556</ele>
        <time>2016-02-20T09:39:00Z</time>
      </trkpt>
      <trkpt lat="45.3949" lon="5.80826">
        <ele>1449.011209556</ele>
        <time>2016-02-20T09:39:05Z</time>
      </trkpt>
      <trkpt lat="45.3949" lon="5.80826">
        <ele>1449.011209556</ele>
        <time>2016-02-20T09:39:20Z</time>
      </trkpt>
      <trkpt lat="45.3949" lon="5.80825">
        <ele>1449.011209556</ele>
        <time>2016-02-20T09:39:25Z</time>
      </trkpt>
      <trkpt lat="45.3949" lon="5.80825">
        <ele>1449.011209556</ele>
        <time>2016-02-20T09:39:35Z</time>
      </trkpt>
      <trkpt lat="45.39489" lon="5.80825">
        <ele>1449.011209556</ele>
        <time>2016-02-20T09:39:40Z</time>
      </trkpt>
      <trkpt lat="45.39489" lon="5.80826">
        <ele>1449.011209556</ele>
        <time>2016-02-20T09:39:50Z</time>
      </trkpt>
      <trkpt lat="45.3949" lon="5.80826">
        <ele>1449.011209556</ele>
        <time>2016-02-20T09:39:54Z</time>
      </trkpt>
      <trkpt lat="45.3949" lon="5.80826">
        <ele>1449.011209556</ele>
        <time>2016-02-20T09:40:05Z</time>
      </trkpt>
      <trkpt lat="45.3949" lon="5.80826">
        <ele>1449.011209556</ele>
        <time>2016-02-20T09:40:10Z</time>
      </trkpt>
      <trkpt lat="45.39489" lon="5.80826">
        <ele>1449.011209556</ele>
        <time>2016-02-20T09:40:21Z</time>
      </trkpt>
      <trkpt lat="45.39489" lon="5.80826">
        <ele>1449.011209556</ele>
        <time>2016-02-20T09:40:25Z</time>
      </trkpt>
      <trkpt lat="45.39489" lon="5.80826">
        <ele>1449.011209556</ele>
        <time>2016-02-20T09:40:35Z</time>
      </trkpt>
      <trkpt lat="45.39489" lon="5.80826">
        <ele>1449.011209556</ele>
        <time>2016-02-20T09:40:40Z</time>
      </trkpt>
      <trkpt lat="45.39489" lon="5.80826">
        <ele>1449.011209556</ele>
        <time>2016-02-20T09:40:49Z</time>
      </trkpt>
      <trkpt lat="45.39489" lon="5.80826">
        <ele>1449.011209556</ele>
        <time>2016-02-20T09:40:54Z</time>
      </trkpt>
      <trkpt lat="45.39489" lon="5.80826">
        <ele>1449.011209556</ele>
        <time>2016-02-20T09:41:05Z</time>
      </trkpt>
      <trkpt lat="45.39489" lon="5.80826">
        <ele>1449.011209556</ele>
        <time>2016-02-20T09:41:09Z</time>
      </trkpt>
      <trkpt lat="45.39489" lon="5.80826">
        <ele>1449.011209556</ele>
        <time>2016-02-20T09:41:26Z</time>
      </trkpt>
      <trkpt lat="45.3949" lon="5.80825">
        <ele>1449.011209556</ele>
        <time>2016-02-20T09:41:30Z</time>
      </trkpt>
      <trkpt lat="45.39487" lon="5.80824">
        <ele>1449.011209556</ele>
        <time>2016-02-20T09:41:40Z</time>
      </trkpt>
      <trkpt lat="45.39487" lon="5.80825">
        <ele>1449.011209556</ele>
        <time>2016-02-20T09:41:45Z</time>
      </trkpt>
      <trkpt lat="45.39489" lon="5.80825">
        <ele>1449.011209556</ele>
        <time>2016-02-20T09:41:56Z</time>
      </trkpt>
      <trkpt lat="45.39489" lon="5.80825">
        <ele>1453.14201443</ele>
        <time>2016-02-20T09:42:00Z</time>
      </trkpt>
      <trkpt lat="45.39489" lon="5.80825">
        <ele>1453.14201443</ele>
        <time>2016-02-20T09:42:11Z</time>
      </trkpt>
      <trkpt lat="45.3949" lon="5.80826">
        <ele>1453.14201443</ele>
        <time>2016-02-20T09:42:15Z</time>
      </trkpt>
      <trkpt lat="45.39492" lon="5.80831">
        <ele>1453.14201443</ele>
        <time>2016-02-20T09:42:26Z</time>
      </trkpt>
      <trkpt lat="45.39492" lon="5.80831">
        <ele>1453.14201443</ele>
        <time>2016-02-20T09:42:30Z</time>
      </trkpt>
      <trkpt lat="45.39492" lon="5.80832">
        <ele>1453.14201443</ele>
        <time>2016-02-20T09:42:46Z</time>
      </trkpt>
      <trkpt lat="45.39492" lon="5.80832">
        <ele>1453.14201443</ele>
        <time>2016-02-20T09:42:50Z</time>
      </trkpt>
      <trkpt lat="45.39492" lon="5.80832">
        <ele>1453.14201443</ele>
        <time>2016-02-20T09:42:56Z</time>
      </trkpt>
      <trkpt lat="45.39492" lon="5.80832">
        <ele>1453.14201443</ele>
        <time>2016-02-20T09:43:00Z</time>
      </trkpt>
      <trkpt lat="45.39492" lon="5.80832">
        <ele>1453.14201443</ele>
        <time>2016-02-20T09:43:11Z</time>
      </trkpt>
      <trkpt lat="45.39492" lon="5.80832">
        <ele>1453.14201443</ele>
        <time>2016-02-20T09:43:16Z</time>
      </trkpt>
      <trkpt lat="45.39492" lon="5.80832">
        <ele>1453.14201443</ele>
        <time>2016-02-20T09:43:26Z</time>
      </trkpt>
      <trkpt lat="45.39492" lon="5.80832">
        <ele>1453.14201443</ele>
        <time>2016-02-20T09:43:31Z</time>
      </trkpt>
      <trkpt lat="45.39492" lon="5.80832">
        <ele>1453.14201443</ele>
        <time>2016-02-20T09:43:35Z</time>
      </trkpt>
      <trkpt lat="45.39492" lon="5.80832">
        <ele>1453.14201443</ele>
        <time>2016-02-20T09:43:46Z</time>
      </trkpt>
      <trkpt lat="45.39492" lon="5.80832">
        <ele>1453.14201443</ele>
        <time>2016-02-20T09:43:50Z</time>
      </trkpt>
      <trkpt lat="45.39492" lon="5.80832">
        <ele>1453.14201443</ele>
        <time>2016-02-20T09:44:01Z</time>
      </trkpt>
      <trkpt lat="45.39492" lon="5.80832">
        <ele>1453.14201443</ele>
        <time>2016-02-20T09:44:05Z</time>
      </trkpt>
      <trkpt lat="45.39492" lon="5.80832">
        <ele>1453.14201443</ele>
        <time>2016-02-20T09:44:16Z</time>
      </trkpt>
      <trkpt lat="45.39492" lon="5.80832">
        <ele>1453.14201443</ele>
        <time>2016-02-20T09:44:20Z</time>
      </trkpt>
      <trkpt lat="45.39492" lon="5.80832">
        <ele>1453.14201443</ele>
        <time>2016-02-20T09:44:30Z</time>
      </trkpt>
      <trkpt lat="45.39492" lon="5.80832">
        <ele>1453.14201443</ele>
        <time>2016-02-20T09:44:35Z</time>
      </trkpt>
      <trkpt lat="45.39492" lon="5.80832">
        <ele>1453.14201443</ele>
        <time>2016-02-20T09:44:45Z</time>
      </trkpt>
      <trkpt lat="45.39492" lon="5.80832">
        <ele>1453.14201443</ele>
        <time>2016-02-20T09:44:49Z</time>
      </trkpt>
      <trkpt lat="45.39493" lon="5.80835">
        <ele>1453.14201443</ele>
        <time>2016-02-20T09:45:01Z</time>
      </trkpt>
      <trkpt lat="45.39493" lon="5.80835">
        <ele>1453.14201443</ele>
        <time>2016-02-20T09:45:06Z</time>
      </trkpt>
      <trkpt lat="45.39493" lon="5.80835">
        <ele>1456.727315037</ele>
        <time>2016-02-20T09:45:15Z</time>
      </trkpt>
      <trkpt lat="45.39492" lon="5.80835">
        <ele>1456.727315037</ele>
        <time>2016-02-20T09:45:20Z</time>
      </trkpt>
      <trkpt lat="45.39493" lon="5.80835">
        <ele>1456.727315037</ele>
        <time>2016-02-20T09:45:31Z</time>
      </trkpt>
      <trkpt lat="45.39493" lon="5.80835">
        <ele>1456.727315037</ele>
        <time>2016-02-20T09:45:35Z</time>
      </trkpt>
      <trkpt lat="45.39493" lon="5.80835">
        <ele>1456.727315037</ele>
        <time>2016-02-20T09:45:46Z</time>
      </trkpt>
      <trkpt lat="45.39492" lon="5.80835">
        <ele>1456.727315037</ele>
        <time>2016-02-20T09:45:50Z</time>
      </trkpt>
      <trkpt lat="45.39492" lon="5.80835">
        <ele>1456.727315037</ele>
        <time>2016-02-20T09:46:01Z</time>
      </trkpt>
      <trkpt lat="45.39492" lon="5.80835">
        <ele>1456.727315037</ele>
        <time>2016-02-20T09:46:06Z</time>
      </trkpt>
      <trkpt lat="45.39493" lon="5.80835">
        <ele>1456.727315037</ele>
        <time>2016-02-20T09:46:15Z</time>
      </trkpt>
      <trkpt lat="45.39493" lon="5.80835">
        <ele>1456.727315037</ele>
        <time>2016-02-20T09:46:21Z</time>
      </trkpt>
      <trkpt lat="45.39493" lon="5.80835">
        <ele>1456.727315037</ele>
        <time>2016-02-20T09:46:31Z</time>
      </trkpt>
      <trkpt lat="45.39493" lon="5.80835">
        <ele>1456.727315037</ele>
        <time>2016-02-20T09:46:35Z</time>
      </trkpt>
      <trkpt lat="45.39493" lon="5.80835">
        <ele>1456.727315037</ele>
        <time>2016-02-20T09:46:40Z</time>
      </trkpt>
      <trkpt lat="45.39493" lon="5.80835">
        <ele>1456.727315037</ele>
        <time>2016-02-20T09:46:51Z</time>
      </trkpt>
      <trkpt lat="45.39493" lon="5.80835">
        <ele>1456.727315037</ele>
        <time>2016-02-20T09:46:55Z</time>
      </trkpt>
      <trkpt lat="45.39493" lon="5.80835">
        <ele>1456.727315037</ele>
        <time>2016-02-20T09:47:06Z</time>
      </trkpt>
      <trkpt lat="45.39493" lon="5.80835">
        <ele>1456.727315037</ele>
        <time>2016-02-20T09:47:11Z</time>
      </trkpt>
      <trkpt lat="45.39493" lon="5.80835">
        <ele>1456.727315037</ele>
        <time>2016-02-20T09:47:20Z</time>
      </trkpt>
      <trkpt lat="45.39493" lon="5.80835">
        <ele>1456.727315037</ele>
        <time>2016-02-20T09:47:25Z</time>
      </trkpt>
      <trkpt lat="45.39493" lon="5.80835">
        <ele>1456.727315037</ele>
        <time>2016-02-20T09:47:55Z</time>
      </trkpt>
      <trkpt lat="45.39493" lon="5.80835">
        <ele>1456.727315037</ele>
        <time>2016-02-20T09:48:13Z</time>
      </trkpt>
      <trkpt lat="45.39493" lon="5.80835">
        <ele>1456.727315037</ele>
        <time>2016-02-20T09:48:42Z</time>
      </trkpt>
      <trkpt lat="45.39493" lon="5.80835">
        <ele>1456.727315037</ele>
        <time>2016-02-20T09:48:42Z</time>
      </trkpt>
      <trkpt lat="45.39493" lon="5.80835">
        <ele>1456.727315037</ele>
        <time>2016-02-20T09:48:44Z</time>
      </trkpt>
      <trkpt lat="45.39493" lon="5.80835">
        <ele>1456.727315037</ele>
        <time>2016-02-20T09:48:45Z</time>
      </trkpt>
      <trkpt lat="45.39493" lon="5.80835">
        <ele>1456.727315037</ele>
        <time>2016-02-20T09:48:46Z</time>
      </trkpt>
      <trkpt lat="45.39493" lon="5.80835">
        <ele>1456.727315037</ele>
        <time>2016-02-20T09:48:56Z</time>
      </trkpt>
      <trkpt lat="45.39491" lon="5.80831">
        <ele>1456.727315037</ele>
        <time>2016-02-20T09:49:16Z</time>
      </trkpt>
      <trkpt lat="45.39491" lon="5.80831">
        <ele>1456.727315037</ele>
        <time>2016-02-20T09:49:25Z</time>
      </trkpt>
      <trkpt lat="45.39491" lon="5.80831">
        <ele>1456.727315037</ele>
        <time>2016-02-20T09:49:30Z</time>
      </trkpt>
      <trkpt lat="45.39491" lon="5.80832">
        <ele>1456.727315037</ele>
        <time>2016-02-20T09:49:35Z</time>
      </trkpt>
      <trkpt lat="45.39491" lon="5.80832">
        <ele>1456.727315037</ele>
        <time>2016-02-20T09:49:45Z</time>
      </trkpt>
      <trkpt lat="45.39491" lon="5.80832">
        <ele>1456.727315037</ele>
        <time>2016-02-20T09:49:50Z</time>
      </trkpt>
      <trkpt lat="45.39491" lon="5.80832">
        <ele>1456.727315037</ele>
        <time>2016-02-20T09:50:00Z</time>
      </trkpt>
      <trkpt lat="45.39491" lon="5.80832">
        <ele>1456.727315037</ele>
        <time>2016-02-20T09:50:05Z</time>
      </trkpt>
      <trkpt lat="45.39492" lon="5.80833">
        <ele>1456.727315037</ele>
        <time>2016-02-20T09:50:15Z</time>
      </trkpt>
      <trkpt lat="45.39491" lon="5.80834">
        <ele>1456.727315037</ele>
        <time>2016-02-20T09:50:20Z</time>
      </trkpt>
      <trkpt lat="45.39476" lon="5.80849">
        <ele>1458.797384334</ele>
        <time>2016-02-20T09:50:31Z</time>
      </trkpt>
      <trkpt lat="45.39473" lon="5.80852">
        <ele>1458.797384334</ele>
        <time>2016-02-20T09:50:35Z</time>
      </trkpt>
      <trkpt lat="45.39465" lon="5.80857">
        <ele>1460.188001817</ele>
        <time>2016-02-20T09:50:45Z</time>
      </trkpt>
      <trkpt lat="45.39458" lon="5.80859">
        <ele>1460.188001817</ele>
        <time>2016-02-20T09:50:50Z</time>
      </trkpt>
      <trkpt lat="45.39449" lon="5.80862">
        <ele>1460.666274642</ele>
        <time>2016-02-20T09:51:00Z</time>
      </trkpt>
      <trkpt lat="45.3945" lon="5.80864">
        <ele>1460.666274642</ele>
        <time>2016-02-20T09:51:04Z</time>
      </trkpt>
      <trkpt lat="45.3944" lon="5.80866">
        <ele>1461.02798946</ele>
        <time>2016-02-20T09:51:14Z</time>
      </trkpt>
      <trkpt lat="45.39431" lon="5.8087">
        <ele>1461.02798946</ele>
        <time>2016-02-20T09:51:21Z</time>
      </trkpt>
      <trkpt lat="45.39424" lon="5.80878">
        <ele>1462.0106565</ele>
        <time>2016-02-20T09:51:30Z</time>
      </trkpt>
      <trkpt lat="45.3942" lon="5.80881">
        <ele>1462.0106565</ele>
        <time>2016-02-20T09:51:35Z</time>
      </trkpt>
      <trkpt lat="45.39413" lon="5.80887">
        <ele>1463.57506798</ele>
        <time>2016-02-20T09:51:45Z</time>
      </trkpt>
      <trkpt lat="45.39408" lon="5.80887">
        <ele>1463.57506798</ele>
        <time>2016-02-20T09:51:50Z</time>
      </trkpt>
      <trkpt lat="45.39404" lon="5.80891">
        <ele>1465.106699604</ele>
        <time>2016-02-20T09:52:01Z</time>
      </trkpt>
      <trkpt lat="45.39401" lon="5.80895">
        <ele>1465.106699604</ele>
        <time>2016-02-20T09:52:05Z</time>
      </trkpt>
      <trkpt lat="45.39388" lon="5.80897">
        <ele>1466.901008005</ele>
        <time>2016-02-20T09:52:20Z</time>
      </trkpt>
      <trkpt lat="45.39379" lon="5.809">
        <ele>1468.798534632</ele>
        <time>2016-02-20T09:52:31Z</time>
      </trkpt>
      <trkpt lat="45.39377" lon="5.809">
        <ele>1468.798534632</ele>
        <time>2016-02-20T09:52:36Z</time>
      </trkpt>
      <trkpt lat="45.39374" lon="5.80901">
        <ele>1468.798534632</ele>
        <time>2016-02-20T09:52:40Z</time>
      </trkpt>
      <trkpt lat="45.39361" lon="5.80903">
        <ele>1469.930566756</ele>
        <time>2016-02-20T09:52:50Z</time>
      </trkpt>
      <trkpt lat="45.3936" lon="5.80908">
        <ele>1469.930566756</ele>
        <time>2016-02-20T09:52:55Z</time>
      </trkpt>
      <trkpt lat="45.39345" lon="5.80907">
        <ele>1471.079608766</ele>
        <time>2016-02-20T09:53:05Z</time>
      </trkpt>
      <trkpt lat="45.39341" lon="5.80907">
        <ele>1471.079608766</ele>
        <time>2016-02-20T09:53:10Z</time>
      </trkpt>
      <trkpt lat="45.3934" lon="5.80901">
        <ele>1471.079608766</ele>
        <time>2016-02-20T09:53:20Z</time>
      </trkpt>
      <trkpt lat="45.3934" lon="5.80901">
        <ele>1472.249904048</ele>
        <time>2016-02-20T09:53:25Z</time>
      </trkpt>
      <trkpt lat="45.39339" lon="5.80901">
        <ele>1472.249904048</ele>
        <time>2016-02-20T09:53:35Z</time>
      </trkpt>
      <trkpt lat="45.39339" lon="5.80901">
        <ele>1472.249904048</ele>
        <time>2016-02-20T09:53:40Z</time>
      </trkpt>
      <trkpt lat="45.39324" lon="5.80905">
        <ele>1473.445213592</ele>
        <time>2016-02-20T09:53:51Z</time>
      </trkpt>
      <trkpt lat="45.39322" lon="5.80905">
        <ele>1473.445213592</ele>
        <time>2016-02-20T09:53:55Z</time>
      </trkpt>
      <trkpt lat="45.39317" lon="5.80906">
        <ele>1473.445213592</ele>
        <time>2016-02-20T09:54:05Z</time>
      </trkpt>
      <trkpt lat="45.39316" lon="5.80906">
        <ele>1473.445213592</ele>
        <time>2016-02-20T09:54:11Z</time>
      </trkpt>
      <trkpt lat="45.3931" lon="5.80899">
        <ele>1475.965864755</ele>
        <time>2016-02-20T09:54:21Z</time>
      </trkpt>
      <trkpt lat="45.39308" lon="5.80897">
        <ele>1475.965864755</ele>
        <time>2016-02-20T09:54:25Z</time>
      </trkpt>
      <trkpt lat="45.39302" lon="5.80886">
        <ele>1478.995211105</ele>
        <time>2016-02-20T09:54:36Z</time>
      </trkpt>
      <trkpt lat="45.39301" lon="5.80884">
        <ele>1478.995211105</ele>
        <time>2016-02-20T09:54:40Z</time>
      </trkpt>
      <trkpt lat="45.39299" lon="5.80883">
        <ele>1478.995211105</ele>
        <time>2016-02-20T09:54:51Z</time>
      </trkpt>
      <trkpt lat="45.39295" lon="5.80876">
        <ele>1482.063299899</ele>
        <time>2016-02-20T09:54:55Z</time>
      </trkpt>
      <trkpt lat="45.39293" lon="5.80862">
        <ele>1486.031504345</ele>
        <time>2016-02-20T09:55:06Z</time>
      </trkpt>
      <trkpt lat="45.39292" lon="5.80858">
        <ele>1486.031504345</ele>
        <time>2016-02-20T09:55:10Z</time>
      </trkpt>
      <trkpt lat="45.39291" lon="5.80858">
        <ele>1486.031504345</ele>
        <time>2016-02-20T09:55:14Z</time>
      </trkpt>
      <trkpt lat="45.3929" lon="5.80856">
        <ele>1486.031504345</ele>
        <time>2016-02-20T09:55:25Z</time>
      </trkpt>
      <trkpt lat="45.3929" lon="5.80856">
        <ele>1486.031504345</ele>
        <time>2016-02-20T09:55:30Z</time>
      </trkpt>
      <trkpt lat="45.3929" lon="5.80856">
        <ele>1486.031504345</ele>
        <time>2016-02-20T09:55:39Z</time>
      </trkpt>
      <trkpt lat="45.39279" lon="5.80842">
        <ele>1490.254169417</ele>
        <time>2016-02-20T09:55:46Z</time>
      </trkpt>
      <trkpt lat="45.39269" lon="5.8083">
        <ele>1493.844050857</ele>
        <time>2016-02-20T09:55:55Z</time>
      </trkpt>
      <trkpt lat="45.39262" lon="5.80826">
        <ele>1493.844050857</ele>
        <time>2016-02-20T09:56:00Z</time>
      </trkpt>
      <trkpt lat="45.39252" lon="5.8082">
        <ele>1497.27779852</ele>
        <time>2016-02-20T09:56:11Z</time>
      </trkpt>
      <trkpt lat="45.39245" lon="5.80814">
        <ele>1497.27779852</ele>
        <time>2016-02-20T09:56:15Z</time>
      </trkpt>
      <trkpt lat="45.3924" lon="5.80807">
        <ele>1500.276863863</ele>
        <time>2016-02-20T09:56:26Z</time>
      </trkpt>
      <trkpt lat="45.39231" lon="5.80806">
        <ele>1502.728442434</ele>
        <time>2016-02-20T09:56:30Z</time>
      </trkpt>
      <trkpt lat="45.39233" lon="5.80798">
        <ele>1502.728442434</ele>
        <time>2016-02-20T09:56:46Z</time>
      </trkpt>
      <trkpt lat="45.39233" lon="5.80798">
        <ele>1502.728442434</ele>
        <time>2016-02-20T09:56:50Z</time>
      </trkpt>
      <trkpt lat="45.3923" lon="5.808">
        <ele>1505.682414534</ele>
        <time>2016-02-20T09:57:01Z</time>
      </trkpt>
      <trkpt lat="45.3923" lon="5.80804">
        <ele>1505.682414534</ele>
        <time>2016-02-20T09:57:05Z</time>
      </trkpt>
      <trkpt lat="45.39228" lon="5.80802">
        <ele>1505.682414534</ele>
        <time>2016-02-20T09:57:15Z</time>
      </trkpt>
      <trkpt lat="45.39227" lon="5.80803">
        <ele>1505.682414534</ele>
        <time>2016-02-20T09:57:21Z</time>
      </trkpt>
      <trkpt lat="45.39214" lon="5.80808">
        <ele>1508.957187706</ele>
        <time>2016-02-20T09:57:31Z</time>
      </trkpt>
      <trkpt lat="45.39212" lon="5.8081">
        <ele>1508.957187706</ele>
        <time>2016-02-20T09:57:35Z</time>
      </trkpt>
      <trkpt lat="45.39209" lon="5.80818">
        <ele>1512.095348102</ele>
        <time>2016-02-20T09:57:46Z</time>
      </trkpt>
      <trkpt lat="45.39208" lon="5.8082">
        <ele>1512.095348102</ele>
        <time>2016-02-20T09:57:51Z</time>
      </trkpt>
      <trkpt lat="45.39208" lon="5.8082">
        <ele>1512.095348102</ele>
        <time>2016-02-20T09:58:01Z</time>
      </trkpt>
      <trkpt lat="45.39207" lon="5.8082">
        <ele>1512.095348102</ele>
        <time>2016-02-20T09:58:05Z</time>
      </trkpt>
      <trkpt lat="45.39207" lon="5.8082">
        <ele>1512.095348102</ele>
        <time>2016-02-20T09:58:15Z</time>
      </trkpt>
      <trkpt lat="45.39207" lon="5.8082">
        <ele>1512.095348102</ele>
        <time>2016-02-20T09:58:19Z</time>
      </trkpt>
      <trkpt lat="45.39206" lon="5.8082">
        <ele>1512.095348102</ele>
        <time>2016-02-20T09:58:35Z</time>
      </trkpt>
      <trkpt lat="45.39206" lon="5.8082">
        <ele>1512.095348102</ele>
        <time>2016-02-20T09:58:40Z</time>
      </trkpt>
      <trkpt lat="45.39193" lon="5.80819">
        <ele>1514.817549654</ele>
        <time>2016-02-20T09:58:51Z</time>
      </trkpt>
      <trkpt lat="45.3919" lon="5.80818">
        <ele>1514.817549654</ele>
        <time>2016-02-20T09:58:55Z</time>
      </trkpt>
      <trkpt lat="45.39179" lon="5.80822">
        <ele>1518.019023171</ele>
        <time>2016-02-20T09:59:05Z</time>
      </trkpt>
      <trkpt lat="45.3918" lon="5.80822">
        <ele>1518.019023171</ele>
        <time>2016-02-20T09:59:10Z</time>
      </trkpt>
      <trkpt lat="45.39178" lon="5.80822">
        <ele>1518.019023171</ele>
        <time>2016-02-20T09:59:21Z</time>
      </trkpt>
      <trkpt lat="45.39169" lon="5.80821">
        <ele>1521.519076171</ele>
        <time>2016-02-20T09:59:25Z</time>
      </trkpt>
      <trkpt lat="45.39162" lon="5.80825">
        <ele>1521.519076171</ele>
        <time>2016-02-20T09:59:40Z</time>
      </trkpt>
      <trkpt lat="45.39157" lon="5.80825">
        <ele>1525.005324062</ele>
        <time>2016-02-20T09:59:55Z</time>
      </trkpt>
      <trkpt lat="45.39145" lon="5.80825">
        <ele>1528.188360788</ele>
        <time>2016-02-20T10:00:01Z</time>
      </trkpt>
      <trkpt lat="45.39138" lon="5.80818">
        <ele>1528.188360788</ele>
        <time>2016-02-20T10:00:10Z</time>
      </trkpt>
      <trkpt lat="45.39136" lon="5.80818">
        <ele>1531.665578576</ele>
        <time>2016-02-20T10:00:15Z</time>
      </trkpt>
      <trkpt lat="45.39134" lon="5.80817">
        <ele>1531.665578576</ele>
        <time>2016-02-20T10:00:25Z</time>
      </trkpt>
      <trkpt lat="45.39133" lon="5.80817">
        <ele>1531.665578576</ele>
        <time>2016-02-20T10:00:30Z</time>
      </trkpt>
      <trkpt lat="45.39125" lon="5.80829">
        <ele>1534.548516215</ele>
        <time>2016-02-20T10:00:41Z</time>
      </trkpt>
      <trkpt lat="45.39118" lon="5.80828">
        <ele>1534.548516215</ele>
        <time>2016-02-20T10:00:45Z</time>
      </trkpt>
      <trkpt lat="45.39111" lon="5.80827">
        <ele>1537.168573199</ele>
        <time>2016-02-20T10:00:50Z</time>
      </trkpt>
      <trkpt lat="45.39106" lon="5.80829">
        <ele>1537.168573199</ele>
        <time>2016-02-20T10:01:01Z</time>
      </trkpt>
      <trkpt lat="45.39101" lon="5.80829">
        <ele>1540.265896533</ele>
        <time>2016-02-20T10:01:05Z</time>
      </trkpt>
      <trkpt lat="45.3909" lon="5.80832">
        <ele>1543.804360093</ele>
        <time>2016-02-20T10:01:15Z</time>
      </trkpt>
      <trkpt lat="45.39086" lon="5.80836">
        <ele>1543.804360093</ele>
        <time>2016-02-20T10:01:19Z</time>
      </trkpt>
      <trkpt lat="45.39081" lon="5.80846">
        <ele>1547.605154444</ele>
        <time>2016-02-20T10:01:29Z</time>
      </trkpt>
      <trkpt lat="45.39078" lon="5.80851">
        <ele>1547.605154444</ele>
        <time>2016-02-20T10:01:35Z</time>
      </trkpt>
      <trkpt lat="45.3907" lon="5.80846">
        <ele>1551.069545678</ele>
        <time>2016-02-20T10:01:45Z</time>
      </trkpt>
      <trkpt lat="45.39065" lon="5.80846">
        <ele>1551.069545678</ele>
        <time>2016-02-20T10:01:51Z</time>
      </trkpt>
      <trkpt lat="45.39057" lon="5.80844">
        <ele>1554.364325183</ele>
        <time>2016-02-20T10:02:00Z</time>
      </trkpt>
      <trkpt lat="45.39054" lon="5.80844">
        <ele>1554.364325183</ele>
        <time>2016-02-20T10:02:05Z</time>
      </trkpt>
      <trkpt lat="45.39046" lon="5.80845">
        <ele>1557.788650127</ele>
        <time>2016-02-20T10:02:15Z</time>
      </trkpt>
      <trkpt lat="45.39043" lon="5.80847">
        <ele>1557.788650127</ele>
        <time>2016-02-20T10:02:20Z</time>
      </trkpt>
      <trkpt lat="45.39034" lon="5.80846">
        <ele>1561.619370097</ele>
        <time>2016-02-20T10:02:30Z</time>
      </trkpt>
      <trkpt lat="45.39032" lon="5.80842">
        <ele>1561.619370097</ele>
        <time>2016-02-20T10:02:35Z</time>
      </trkpt>
      <trkpt lat="45.39031" lon="5.80842">
        <ele>1561.619370097</ele>
        <time>2016-02-20T10:02:45Z</time>
      </trkpt>
      <trkpt lat="45.39031" lon="5.80842">
        <ele>1561.619370097</ele>
        <time>2016-02-20T10:02:51Z</time>
      </trkpt>
      <trkpt lat="45.39031" lon="5.80842">
        <ele>1561.619370097</ele>
        <time>2016-02-20T10:03:01Z</time>
      </trkpt>
      <trkpt lat="45.39031" lon="5.80842">
        <ele>1561.619370097</ele>
        <time>2016-02-20T10:03:05Z</time>
      </trkpt>
      <trkpt lat="45.39026" lon="5.80832">
        <ele>1565.967780337</ele>
        <time>2016-02-20T10:03:15Z</time>
      </trkpt>
      <trkpt lat="45.39024" lon="5.80823">
        <ele>1565.967780337</ele>
        <time>2016-02-20T10:03:21Z</time>
      </trkpt>
      <trkpt lat="45.39022" lon="5.80821">
        <ele>1570.50325142</ele>
        <time>2016-02-20T10:03:30Z</time>
      </trkpt>
      <trkpt lat="45.39021" lon="5.8082">
        <ele>1570.50325142</ele>
        <time>2016-02-20T10:03:35Z</time>
      </trkpt>
      <trkpt lat="45.39021" lon="5.8082">
        <ele>1570.50325142</ele>
        <time>2016-02-20T10:03:50Z</time>
      </trkpt>
      <trkpt lat="45.39021" lon="5.8082">
        <ele>1570.50325142</ele>
        <time>2016-02-20T10:03:55Z</time>
      </trkpt>
      <trkpt lat="45.39012" lon="5.8081">
        <ele>1574.774858124</ele>
        <time>2016-02-20T10:04:06Z</time>
      </trkpt>
      <trkpt lat="45.3901" lon="5.80806">
        <ele>1574.774858124</ele>
        <time>2016-02-20T10:04:10Z</time>
      </trkpt>
      <trkpt lat="45.39008" lon="5.808">
        <ele>1574.774858124</ele>
        <time>2016-02-20T10:04:20Z</time>
      </trkpt>
      <trkpt lat="45.39005" lon="5.80796">
        <ele>1579.374396936</ele>
        <time>2016-02-20T10:04:25Z</time>
      </trkpt>
      <trkpt lat="45.38998" lon="5.80795">
        <ele>1579.374396936</ele>
        <time>2016-02-20T10:04:36Z</time>
      </trkpt>
      <trkpt lat="45.38995" lon="5.80798">
        <ele>1583.84054743</ele>
        <time>2016-02-20T10:04:39Z</time>
      </trkpt>
      <trkpt lat="45.38987" lon="5.80797">
        <ele>1583.84054743</ele>
        <time>2016-02-20T10:04:55Z</time>
      </trkpt>
      <trkpt lat="45.38982" lon="5.8079">
        <ele>1588.466897473</ele>
        <time>2016-02-20T10:05:06Z</time>
      </trkpt>
      <trkpt lat="45.38981" lon="5.8079">
        <ele>1588.466897473</ele>
        <time>2016-02-20T10:05:10Z</time>
      </trkpt>
      <trkpt lat="45.38974" lon="5.80793">
        <ele>1588.466897473</ele>
        <time>2016-02-20T10:05:25Z</time>
      </trkpt>
      <trkpt lat="45.3897" lon="5.80793">
        <ele>1593.236879127</ele>
        <time>2016-02-20T10:05:30Z</time>
      </trkpt>
      <trkpt lat="45.38968" lon="5.80793">
        <ele>1593.236879127</ele>
        <time>2016-02-20T10:05:40Z</time>
      </trkpt>
      <trkpt lat="45.38968" lon="5.80793">
        <ele>1593.236879127</ele>
        <time>2016-02-20T10:05:45Z</time>
      </trkpt>
      <trkpt lat="45.38962" lon="5.80794">
        <ele>1593.236879127</ele>
        <time>2016-02-20T10:05:56Z</time>
      </trkpt>
      <trkpt lat="45.38961" lon="5.80794">
        <ele>1593.236879127</ele>
        <time>2016-02-20T10:06:00Z</time>
      </trkpt>
      <trkpt lat="45.38952" lon="5.80798">
        <ele>1597.99072144</ele>
        <time>2016-02-20T10:06:10Z</time>
      </trkpt>
      <trkpt lat="45.3895" lon="5.808">
        <ele>1597.99072144</ele>
        <time>2016-02-20T10:06:15Z</time>
      </trkpt>
      <trkpt lat="45.38942" lon="5.80804">
        <ele>1602.724651027</ele>
        <time>2016-02-20T10:06:26Z</time>
      </trkpt>
      <trkpt lat="45.3894" lon="5.80804">
        <ele>1602.724651027</ele>
        <time>2016-02-20T10:06:30Z</time>
      </trkpt>
      <trkpt lat="45.38936" lon="5.80805">
        <ele>1602.724651027</ele>
        <time>2016-02-20T10:06:45Z</time>
      </trkpt>
      <trkpt lat="45.38935" lon="5.80798">
        <ele>1607.435337056</ele>
        <time>2016-02-20T10:07:01Z</time>
      </trkpt>
      <trkpt lat="45.38936" lon="5.80794">
        <ele>1607.435337056</ele>
        <time>2016-02-20T10:07:05Z</time>
      </trkpt>
      <trkpt lat="45.38937" lon="5.80787">
        <ele>1607.435337056</ele>
        <time>2016-02-20T10:07:15Z</time>
      </trkpt>
      <trkpt lat="45.38935" lon="5.8079">
        <ele>1612.840435343</ele>
        <time>2016-02-20T10:07:21Z</time>
      </trkpt>
      <trkpt lat="45.38927" lon="5.80802">
        <ele>1617.729601816</ele>
        <time>2016-02-20T10:07:30Z</time>
      </trkpt>
      <trkpt lat="45.38924" lon="5.80806">
        <ele>1617.729601816</ele>
        <time>2016-02-20T10:07:35Z</time>
      </trkpt>
      <trkpt lat="45.38918" lon="5.80812">
        <ele>1622.135877389</ele>
        <time>2016-02-20T10:07:45Z</time>
      </trkpt>
      <trkpt lat="45.38914" lon="5.80815">
        <ele>1622.135877389</ele>
        <time>2016-02-20T10:07:50Z</time>
      </trkpt>
      <trkpt lat="45.38908" lon="5.80822">
        <ele>1626.23547405</ele>
        <time>2016-02-20T10:07:59Z</time>
      </trkpt>
      <trkpt lat="45.38906" lon="5.80822">
        <ele>1626.23547405</ele>
        <time>2016-02-20T10:08:06Z</time>
      </trkpt>
      <trkpt lat="45.38898" lon="5.80833">
        <ele>1629.616205408</ele>
        <time>2016-02-20T10:08:15Z</time>
      </trkpt>
      <trkpt lat="45.38895" lon="5.80838">
        <ele>1629.616205408</ele>
        <time>2016-02-20T10:08:20Z</time>
      </trkpt>
      <trkpt lat="45.38888" lon="5.80847">
        <ele>1632.474755436</ele>
        <time>2016-02-20T10:08:30Z</time>
      </trkpt>
      <trkpt lat="45.38887" lon="5.80854">
        <ele>1632.474755436</ele>
        <time>2016-02-20T10:08:35Z</time>
      </trkpt>
      <trkpt lat="45.38882" lon="5.80866">
        <ele>1635.571390489</ele>
        <time>2016-02-20T10:08:46Z</time>
      </trkpt>
      <trkpt lat="45.38881" lon="5.80869">
        <ele>1635.571390489</ele>
        <time>2016-02-20T10:08:50Z</time>
      </trkpt>
      <trkpt lat="45.38879" lon="5.80872">
        <ele>1635.571390489</ele>
        <time>2016-02-20T10:08:55Z</time>
      </trkpt>
      <trkpt lat="45.38876" lon="5.8088">
        <ele>1638.745302049</ele>
        <time>2016-02-20T10:09:06Z</time>
      </trkpt>
      <trkpt lat="45.38874" lon="5.8088">
        <ele>1638.745302049</ele>
        <time>2016-02-20T10:09:10Z</time>
      </trkpt>
      <trkpt lat="45.38867" lon="5.80883">
        <ele>1641.991489774</ele>
        <time>2016-02-20T10:09:21Z</time>
      </trkpt>
      <trkpt lat="45.38864" lon="5.80881">
        <ele>1641.991489774</ele>
        <time>2016-02-20T10:09:25Z</time>
      </trkpt>
      <trkpt lat="45.38857" lon="5.80873">
        <ele>1645.593431504</ele>
        <time>2016-02-20T10:09:35Z</time>
      </trkpt>
      <trkpt lat="45.38857" lon="5.80874">
        <ele>1645.593431504</ele>
        <time>2016-02-20T10:09:41Z</time>
      </trkpt>
      <trkpt lat="45.38854" lon="5.80866">
        <ele>1645.593431504</ele>
        <time>2016-02-20T10:09:50Z</time>
      </trkpt>
      <trkpt lat="45.38853" lon="5.80865">
        <ele>1645.593431504</ele>
        <time>2016-02-20T10:09:55Z</time>
      </trkpt>
      <trkpt lat="45.38852" lon="5.80857">
        <ele>1648.948198016</ele>
        <time>2016-02-20T10:10:06Z</time>
      </trkpt>
      <trkpt lat="45.38848" lon="5.80861">
        <ele>1648.948198016</ele>
        <time>2016-02-20T10:10:10Z</time>
      </trkpt>
      <trkpt lat="45.38843" lon="5.80863">
        <ele>1652.218476096</ele>
        <time>2016-02-20T10:10:20Z</time>
      </trkpt>
      <trkpt lat="45.38841" lon="5.80858">
        <ele>1652.218476096</ele>
        <time>2016-02-20T10:10:25Z</time>
      </trkpt>
      <trkpt lat="45.3884" lon="5.80846">
        <ele>1655.267084092</ele>
        <time>2016-02-20T10:10:35Z</time>
      </trkpt>
      <trkpt lat="45.3884" lon="5.80841">
        <ele>1655.267084092</ele>
        <time>2016-02-20T10:10:41Z</time>
      </trkpt>
      <trkpt lat="45.3884" lon="5.80833">
        <ele>1655.267084092</ele>
        <time>2016-02-20T10:10:51Z</time>
      </trkpt>
      <trkpt lat="45.3884" lon="5.80832">
        <ele>1657.96759942</ele>
        <time>2016-02-20T10:10:55Z</time>
      </trkpt>
      <trkpt lat="45.38831" lon="5.80826">
        <ele>1660.203912996</ele>
        <time>2016-02-20T10:11:05Z</time>
      </trkpt>
      <trkpt lat="45.3883" lon="5.80827">
        <ele>1660.203912996</ele>
        <time>2016-02-20T10:11:11Z</time>
      </trkpt>
      <trkpt lat="45.3883" lon="5.80827">
        <ele>1660.203912996</ele>
        <time>2016-02-20T10:11:26Z</time>
      </trkpt>
      <trkpt lat="45.3883" lon="5.80827">
        <ele>1660.203912996</ele>
        <time>2016-02-20T10:11:30Z</time>
      </trkpt>
      <trkpt lat="45.38829" lon="5.80827">
        <ele>1660.203912996</ele>
        <time>2016-02-20T10:11:40Z</time>
      </trkpt>
      <trkpt lat="45.38829" lon="5.80827">
        <ele>1660.203912996</ele>
        <time>2016-02-20T10:11:45Z</time>
      </trkpt>
      <trkpt lat="45.38826" lon="5.80826">
        <ele>1660.203912996</ele>
        <time>2016-02-20T10:11:55Z</time>
      </trkpt>
      <trkpt lat="45.38826" lon="5.80823">
        <ele>1660.203912996</ele>
        <time>2016-02-20T10:12:00Z</time>
      </trkpt>
      <trkpt lat="45.38829" lon="5.80815">
        <ele>1663.16678828</ele>
        <time>2016-02-20T10:12:10Z</time>
      </trkpt>
      <trkpt lat="45.38832" lon="5.80813">
        <ele>1663.16678828</ele>
        <time>2016-02-20T10:12:15Z</time>
      </trkpt>
      <trkpt lat="45.38831" lon="5.80803">
        <ele>1666.516396324</ele>
        <time>2016-02-20T10:12:26Z</time>
      </trkpt>
      <trkpt lat="45.3883" lon="5.80801">
        <ele>1666.516396324</ele>
        <time>2016-02-20T10:12:30Z</time>
      </trkpt>
      <trkpt lat="45.38823" lon="5.80802">
        <ele>1666.516396324</ele>
        <time>2016-02-20T10:12:44Z</time>
      </trkpt>
      <trkpt lat="45.3882" lon="5.808">
        <ele>1669.360363571</ele>
        <time>2016-02-20T10:12:50Z</time>
      </trkpt>
      <trkpt lat="45.38813" lon="5.80806">
        <ele>1669.360363571</ele>
        <time>2016-02-20T10:13:00Z</time>
      </trkpt>
      <trkpt lat="45.38812" lon="5.80805">
        <ele>1673.179083128</ele>
        <time>2016-02-20T10:13:05Z</time>
      </trkpt>
      <trkpt lat="45.38808" lon="5.80806">
        <ele>1673.179083128</ele>
        <time>2016-02-20T10:13:15Z</time>
      </trkpt>
      <trkpt lat="45.3881" lon="5.80793">
        <ele>1676.459251677</ele>
        <time>2016-02-20T10:13:31Z</time>
      </trkpt>
      <trkpt lat="45.38813" lon="5.8079">
        <ele>1676.459251677</ele>
        <time>2016-02-20T10:13:35Z</time>
      </trkpt>
      <trkpt lat="45.38818" lon="5.80781">
        <ele>1680.250142515</ele>
        <time>2016-02-20T10:13:46Z</time>
      </trkpt>
      <trkpt lat="45.38818" lon="5.80778">
        <ele>1680.250142515</ele>
        <time>2016-02-20T10:13:50Z</time>
      </trkpt>
      <trkpt lat="45.38813" lon="5.80774">
        <ele>1680.250142515</ele>
        <time>2016-02-20T10:14:00Z</time>
      </trkpt>
      <trkpt lat="45.3881" lon="5.80775">
        <ele>1684.081412329</ele>
        <time>2016-02-20T10:14:06Z</time>
      </trkpt>
      <trkpt lat="45.38803" lon="5.80775">
        <ele>1684.081412329</ele>
        <time>2016-02-20T10:14:16Z</time>
      </trkpt>
      <trkpt lat="45.38802" lon="5.80776">
        <ele>1684.081412329</ele>
        <time>2016-02-20T10:14:20Z</time>
      </trkpt>
      <trkpt lat="45.38794" lon="5.80774">
        <ele>1688.093608327</ele>
        <time>2016-02-20T10:14:30Z</time>
      </trkpt>
      <trkpt lat="45.38791" lon="5.80773">
        <ele>1688.093608327</ele>
        <time>2016-02-20T10:14:35Z</time>
      </trkpt>
      <trkpt lat="45.38785" lon="5.80774">
        <ele>1691.551785893</ele>
        <time>2016-02-20T10:14:46Z</time>
      </trkpt>
      <trkpt lat="45.38783" lon="5.80774">
        <ele>1691.551785893</ele>
        <time>2016-02-20T10:14:50Z</time>
      </trkpt>
      <trkpt lat="45.38774" lon="5.80778">
        <ele>1695.361775637</ele>
        <time>2016-02-20T10:15:01Z</time>
      </trkpt>
      <trkpt lat="45.38774" lon="5.80779">
        <ele>1695.361775637</ele>
        <time>2016-02-20T10:15:05Z</time>
      </trkpt>
      <trkpt lat="45.38765" lon="5.80779">
        <ele>1699.064887323</ele>
        <time>2016-02-20T10:15:21Z</time>
      </trkpt>
      <trkpt lat="45.3876" lon="5.80779">
        <ele>1699.064887323</ele>
        <time>2016-02-20T10:15:25Z</time>
      </trkpt>
      <trkpt lat="45.38755" lon="5.80782">
        <ele>1702.092322434</ele>
        <time>2016-02-20T10:15:36Z</time>
      </trkpt>
      <trkpt lat="45.38754" lon="5.80783">
        <ele>1702.092322434</ele>
        <time>2016-02-20T10:15:40Z</time>
      </trkpt>
      <trkpt lat="45.38753" lon="5.80784">
        <ele>1702.092322434</ele>
        <time>2016-02-20T10:15:50Z</time>
      </trkpt>
      <trkpt lat="45.38753" lon="5.80784">
        <ele>1702.092322434</ele>
        <time>2016-02-20T10:15:55Z</time>
      </trkpt>
      <trkpt lat="45.38753" lon="5.80784">
        <ele>1702.092322434</ele>
        <time>2016-02-20T10:16:06Z</time>
      </trkpt>
      <trkpt lat="45.38753" lon="5.80784">
        <ele>1702.092322434</ele>
        <time>2016-02-20T10:16:11Z</time>
      </trkpt>
      <trkpt lat="45.38753" lon="5.80784">
        <ele>1702.092322434</ele>
        <time>2016-02-20T10:16:25Z</time>
      </trkpt>
      <trkpt lat="45.38753" lon="5.80784">
        <ele>1702.092322434</ele>
        <time>2016-02-20T10:16:31Z</time>
      </trkpt>
      <trkpt lat="45.38753" lon="5.80784">
        <ele>1702.092322434</ele>
        <time>2016-02-20T10:16:41Z</time>
      </trkpt>
      <trkpt lat="45.38753" lon="5.80784">
        <ele>1702.092322434</ele>
        <time>2016-02-20T10:16:45Z</time>
      </trkpt>
      <trkpt lat="45.38753" lon="5.80784">
        <ele>1702.092322434</ele>
        <time>2016-02-20T10:16:55Z</time>
      </trkpt>
      <trkpt lat="45.38753" lon="5.80784">
        <ele>1702.092322434</ele>
        <time>2016-02-20T10:17:00Z</time>
      </trkpt>
      <trkpt lat="45.38753" lon="5.80784">
        <ele>1702.092322434</ele>
        <time>2016-02-20T10:17:10Z</time>
      </trkpt>
      <trkpt lat="45.38754" lon="5.80784">
        <ele>1702.092322434</ele>
        <time>2016-02-20T10:17:15Z</time>
      </trkpt>
      <trkpt lat="45.38754" lon="5.80784">
        <ele>1702.092322434</ele>
        <time>2016-02-20T10:17:26Z</time>
      </trkpt>
      <trkpt lat="45.38754" lon="5.80784">
        <ele>1702.092322434</ele>
        <time>2016-02-20T10:17:30Z</time>
      </trkpt>
      <trkpt lat="45.38753" lon="5.80785">
        <ele>1702.092322434</ele>
        <time>2016-02-20T10:17:46Z</time>
      </trkpt>
      <trkpt lat="45.38753" lon="5.80785">
        <ele>1702.092322434</ele>
        <time>2016-02-20T10:18:00Z</time>
      </trkpt>
      <trkpt lat="45.38753" lon="5.80785">
        <ele>1702.092322434</ele>
        <time>2016-02-20T10:18:04Z</time>
      </trkpt>
      <trkpt lat="45.38753" lon="5.80785">
        <ele>1702.092322434</ele>
        <time>2016-02-20T10:18:14Z</time>
      </trkpt>
      <trkpt lat="45.38753" lon="5.80785">
        <ele>1702.092322434</ele>
        <time>2016-02-20T10:18:20Z</time>
      </trkpt>
      <trkpt lat="45.38753" lon="5.80785">
        <ele>1702.092322434</ele>
        <time>2016-02-20T10:18:35Z</time>
      </trkpt>
      <trkpt lat="45.38753" lon="5.80785">
        <ele>1702.092322434</ele>
        <time>2016-02-20T10:18:40Z</time>
      </trkpt>
      <trkpt lat="45.38751" lon="5.80787">
        <ele>1702.092322434</ele>
        <time>2016-02-20T10:18:51Z</time>
      </trkpt>
      <trkpt lat="45.38749" lon="5.80789">
        <ele>1702.092322434</ele>
        <time>2016-02-20T10:18:55Z</time>
      </trkpt>
      <trkpt lat="45.38743" lon="5.80798">
        <ele>1705.360080454</ele>
        <time>2016-02-20T10:19:06Z</time>
      </trkpt>
      <trkpt lat="45.38742" lon="5.80801">
        <ele>1705.360080454</ele>
        <time>2016-02-20T10:19:10Z</time>
      </trkpt>
      <trkpt lat="45.38737" lon="5.80806">
        <ele>1705.360080454</ele>
        <time>2016-02-20T10:19:20Z</time>
      </trkpt>
      <trkpt lat="45.38734" lon="5.80811">
        <ele>1707.986865439</ele>
        <time>2016-02-20T10:19:25Z</time>
      </trkpt>
      <trkpt lat="45.38727" lon="5.80821">
        <ele>1710.166694685</ele>
        <time>2016-02-20T10:19:36Z</time>
      </trkpt>
      <trkpt lat="45.38723" lon="5.80827">
        <ele>1710.166694685</ele>
        <time>2016-02-20T10:19:40Z</time>
      </trkpt>
      <trkpt lat="45.38715" lon="5.80833">
        <ele>1711.93646388</ele>
        <time>2016-02-20T10:19:51Z</time>
      </trkpt>
      <trkpt lat="45.38715" lon="5.80833">
        <ele>1711.93646388</ele>
        <time>2016-02-20T10:19:55Z</time>
      </trkpt>
      <trkpt lat="45.38716" lon="5.80834">
        <ele>1711.93646388</ele>
        <time>2016-02-20T10:20:06Z</time>
      </trkpt>
      <trkpt lat="45.38716" lon="5.80834">
        <ele>1711.93646388</ele>
        <time>2016-02-20T10:20:10Z</time>
      </trkpt>
      <trkpt lat="45.38717" lon="5.80833">
        <ele>1711.93646388</ele>
        <time>2016-02-20T10:20:25Z</time>
      </trkpt>
      <trkpt lat="45.38717" lon="5.80833">
        <ele>1711.93646388</ele>
        <time>2016-02-20T10:20:31Z</time>
      </trkpt>
      <trkpt lat="45.38717" lon="5.80834">
        <ele>1711.93646388</ele>
        <time>2016-02-20T10:20:40Z</time>
      </trkpt>
      <trkpt lat="45.38717" lon="5.80834">
        <ele>1711.93646388</ele>
        <time>2016-02-20T10:20:45Z</time>
      </trkpt>
      <trkpt lat="45.38717" lon="5.80834">
        <ele>1711.93646388</ele>
        <time>2016-02-20T10:20:55Z</time>
      </trkpt>
      <trkpt lat="45.38717" lon="5.80834">
        <ele>1711.93646388</ele>
        <time>2016-02-20T10:21:00Z</time>
      </trkpt>
      <trkpt lat="45.38716" lon="5.80833">
        <ele>1711.93646388</ele>
        <time>2016-02-20T10:21:05Z</time>
      </trkpt>
      <trkpt lat="45.38715" lon="5.80833">
        <ele>1711.93646388</ele>
        <time>2016-02-20T10:21:09Z</time>
      </trkpt>
      <trkpt lat="45.38715" lon="5.80833">
        <ele>1711.93646388</ele>
        <time>2016-02-20T10:21:14Z</time>
      </trkpt>
      <trkpt lat="45.38714" lon="5.80833">
        <ele>1711.93646388</ele>
        <time>2016-02-20T10:21:19Z</time>
      </trkpt>
      <trkpt lat="45.38715" lon="5.80834">
        <ele>1711.93646388</ele>
        <time>2016-02-20T10:21:26Z</time>
      </trkpt>
      <trkpt lat="45.38715" lon="5.80834">
        <ele>1711.93646388</ele>
        <time>2016-02-20T10:21:35Z</time>
      </trkpt>
      <trkpt lat="45.38715" lon="5.80834">
        <ele>1711.93646388</ele>
        <time>2016-02-20T10:21:39Z</time>
      </trkpt>
      <trkpt lat="45.38714" lon="5.80836">
        <ele>1711.93646388</ele>
        <time>2016-02-20T10:21:55Z</time>
      </trkpt>
      <trkpt lat="45.38715" lon="5.80836">
        <ele>1711.93646388</ele>
        <time>2016-02-20T10:21:59Z</time>
      </trkpt>
      <trkpt lat="45.38715" lon="5.80836">
        <ele>1711.93646388</ele>
        <time>2016-02-20T10:22:05Z</time>
      </trkpt>
      <trkpt lat="45.38715" lon="5.80836">
        <ele>1711.93646388</ele>
        <time>2016-02-20T10:22:10Z</time>
      </trkpt>
      <trkpt lat="45.38716" lon="5.80835">
        <ele>1714.484378067</ele>
        <time>2016-02-20T10:22:20Z</time>
      </trkpt>
      <trkpt lat="45.38716" lon="5.80835">
        <ele>1714.484378067</ele>
        <time>2016-02-20T10:22:25Z</time>
      </trkpt>
      <trkpt lat="45.38716" lon="5.80835">
        <ele>1714.484378067</ele>
        <time>2016-02-20T10:22:36Z</time>
      </trkpt>
      <trkpt lat="45.38716" lon="5.80835">
        <ele>1714.484378067</ele>
        <time>2016-02-20T10:22:40Z</time>
      </trkpt>
      <trkpt lat="45.38716" lon="5.80835">
        <ele>1714.484378067</ele>
        <time>2016-02-20T10:22:45Z</time>
      </trkpt>
      <trkpt lat="45.38716" lon="5.80835">
        <ele>1714.484378067</ele>
        <time>2016-02-20T10:22:55Z</time>
      </trkpt>
      <trkpt lat="45.38716" lon="5.80835">
        <ele>1714.484378067</ele>
        <time>2016-02-20T10:23:11Z</time>
      </trkpt>
      <trkpt lat="45.38716" lon="5.80836">
        <ele>1714.484378067</ele>
        <time>2016-02-20T10:23:15Z</time>
      </trkpt>
      <trkpt lat="45.38716" lon="5.80837">
        <ele>1714.484378067</ele>
        <time>2016-02-20T10:23:25Z</time>
      </trkpt>
      <trkpt lat="45.38716" lon="5.80837">
        <ele>1714.484378067</ele>
        <time>2016-02-20T10:23:31Z</time>
      </trkpt>
      <trkpt lat="45.38716" lon="5.80837">
        <ele>1714.484378067</ele>
        <time>2016-02-20T10:23:40Z</time>
      </trkpt>
      <trkpt lat="45.38716" lon="5.80837">
        <ele>1714.484378067</ele>
        <time>2016-02-20T10:23:45Z</time>
      </trkpt>
      <trkpt lat="45.38716" lon="5.80837">
        <ele>1714.484378067</ele>
        <time>2016-02-20T10:23:55Z</time>
      </trkpt>
      <trkpt lat="45.38716" lon="5.80837">
        <ele>1714.484378067</ele>
        <time>2016-02-20T10:24:00Z</time>
      </trkpt>
      <trkpt lat="45.38716" lon="5.80837">
        <ele>1714.484378067</ele>
        <time>2016-02-20T10:24:10Z</time>
      </trkpt>
      <trkpt lat="45.38716" lon="5.80837">
        <ele>1714.484378067</ele>
        <time>2016-02-20T10:24:16Z</time>
      </trkpt>
      <trkpt lat="45.38716" lon="5.80837">
        <ele>1714.484378067</ele>
        <time>2016-02-20T10:24:25Z</time>
      </trkpt>
      <trkpt lat="45.38716" lon="5.80837">
        <ele>1714.484378067</ele>
        <time>2016-02-20T10:24:30Z</time>
      </trkpt>
      <trkpt lat="45.38716" lon="5.80837">
        <ele>1714.484378067</ele>
        <time>2016-02-20T10:24:40Z</time>
      </trkpt>
      <trkpt lat="45.38716" lon="5.80837">
        <ele>1714.484378067</ele>
        <time>2016-02-20T10:24:45Z</time>
      </trkpt>
      <trkpt lat="45.38716" lon="5.80836">
        <ele>1714.484378067</ele>
        <time>2016-02-20T10:25:00Z</time>
      </trkpt>
      <trkpt lat="45.38716" lon="5.80837">
        <ele>1714.484378067</ele>
        <time>2016-02-20T10:25:15Z</time>
      </trkpt>
      <trkpt lat="45.38716" lon="5.80837">
        <ele>1714.484378067</ele>
        <time>2016-02-20T10:25:20Z</time>
      </trkpt>
      <trkpt lat="45.38716" lon="5.80837">
        <ele>1714.484378067</ele>
        <time>2016-02-20T10:25:31Z</time>
      </trkpt>
      <trkpt lat="45.38716" lon="5.80837">
        <ele>1714.484378067</ele>
        <time>2016-02-20T10:25:35Z</time>
      </trkpt>
      <trkpt lat="45.38716" lon="5.80837">
        <ele>1714.484378067</ele>
        <time>2016-02-20T10:25:45Z</time>
      </trkpt>
      <trkpt lat="45.38716" lon="5.80837">
        <ele>1714.484378067</ele>
        <time>2016-02-20T10:25:50Z</time>
      </trkpt>
      <trkpt lat="45.38715" lon="5.80837">
        <ele>1714.484378067</ele>
        <time>2016-02-20T10:26:00Z</time>
      </trkpt>
      <trkpt lat="45.38716" lon="5.80837">
        <ele>1714.484378067</ele>
        <time>2016-02-20T10:26:05Z</time>
      </trkpt>
      <trkpt lat="45.38715" lon="5.80837">
        <ele>1714.484378067</ele>
        <time>2016-02-20T10:26:16Z</time>
      </trkpt>
      <trkpt lat="45.38715" lon="5.80837">
        <ele>1714.484378067</ele>
        <time>2016-02-20T10:26:20Z</time>
      </trkpt>
      <trkpt lat="45.38715" lon="5.80857">
        <ele>1715.594582472</ele>
        <time>2016-02-20T10:26:35Z</time>
      </trkpt>
      <trkpt lat="45.38715" lon="5.80866">
        <ele>1715.594582472</ele>
        <time>2016-02-20T10:26:40Z</time>
      </trkpt>
      <trkpt lat="45.38714" lon="5.80879">
        <ele>1716.100209257</ele>
        <time>2016-02-20T10:26:51Z</time>
      </trkpt>
      <trkpt lat="45.38712" lon="5.80885">
        <ele>1716.100209257</ele>
        <time>2016-02-20T10:26:55Z</time>
      </trkpt>
      <trkpt lat="45.38708" lon="5.80899">
        <ele>1716.630711302</ele>
        <time>2016-02-20T10:27:05Z</time>
      </trkpt>
      <trkpt lat="45.38704" lon="5.80907">
        <ele>1716.630711302</ele>
        <time>2016-02-20T10:27:10Z</time>
      </trkpt>
      <trkpt lat="45.38701" lon="5.80915">
        <ele>1717.625042195</ele>
        <time>2016-02-20T10:27:21Z</time>
      </trkpt>
      <trkpt lat="45.38701" lon="5.80918">
        <ele>1717.625042195</ele>
        <time>2016-02-20T10:27:25Z</time>
      </trkpt>
      <trkpt lat="45.38698" lon="5.80926">
        <ele>1717.625042195</ele>
        <time>2016-02-20T10:27:35Z</time>
      </trkpt>
      <trkpt lat="45.38698" lon="5.80933">
        <ele>1718.479733764</ele>
        <time>2016-02-20T10:27:40Z</time>
      </trkpt>
      <trkpt lat="45.38693" lon="5.80941">
        <ele>1718.479733764</ele>
        <time>2016-02-20T10:27:50Z</time>
      </trkpt>
      <trkpt lat="45.38692" lon="5.80947">
        <ele>1719.500595235</ele>
        <time>2016-02-20T10:27:55Z</time>
      </trkpt>
      <trkpt lat="45.38685" lon="5.80957">
        <ele>1721.258603274</ele>
        <time>2016-02-20T10:28:09Z</time>
      </trkpt>
      <trkpt lat="45.38684" lon="5.8096">
        <ele>1721.258603274</ele>
        <time>2016-02-20T10:28:14Z</time>
      </trkpt>
      <trkpt lat="45.3868" lon="5.80964">
        <ele>1721.258603274</ele>
        <time>2016-02-20T10:28:21Z</time>
      </trkpt>
      <trkpt lat="45.38678" lon="5.80968">
        <ele>1723.271811554</ele>
        <time>2016-02-20T10:28:25Z</time>
      </trkpt>
      <trkpt lat="45.38675" lon="5.80978">
        <ele>1723.271811554</ele>
        <time>2016-02-20T10:28:40Z</time>
      </trkpt>
      <trkpt lat="45.38674" lon="5.80982">
        <ele>1725.38104568</ele>
        <time>2016-02-20T10:28:46Z</time>
      </trkpt>
      <trkpt lat="45.3867" lon="5.80987">
        <ele>1725.38104568</ele>
        <time>2016-02-20T10:28:55Z</time>
      </trkpt>
      <trkpt lat="45.38667" lon="5.80993">
        <ele>1727.438414339</ele>
        <time>2016-02-20T10:29:00Z</time>
      </trkpt>
      <trkpt lat="45.38661" lon="5.80999">
        <ele>1727.438414339</ele>
        <time>2016-02-20T10:29:10Z</time>
      </trkpt>
      <trkpt lat="45.3866" lon="5.81002">
        <ele>1729.451006426</ele>
        <time>2016-02-20T10:29:15Z</time>
      </trkpt>
      <trkpt lat="45.38658" lon="5.81009">
        <ele>1729.451006426</ele>
        <time>2016-02-20T10:29:25Z</time>
      </trkpt>
      <trkpt lat="45.38658" lon="5.8101">
        <ele>1729.451006426</ele>
        <time>2016-02-20T10:29:31Z</time>
      </trkpt>
      <trkpt lat="45.38654" lon="5.81019">
        <ele>1731.569487256</ele>
        <time>2016-02-20T10:29:40Z</time>
      </trkpt>
      <trkpt lat="45.38652" lon="5.81022">
        <ele>1731.569487256</ele>
        <time>2016-02-20T10:29:45Z</time>
      </trkpt>
      <trkpt lat="45.38649" lon="5.8103">
        <ele>1733.788907938</ele>
        <time>2016-02-20T10:29:56Z</time>
      </trkpt>
      <trkpt lat="45.38645" lon="5.81035">
        <ele>1733.788907938</ele>
        <time>2016-02-20T10:29:59Z</time>
      </trkpt>
      <trkpt lat="45.38639" lon="5.81039">
        <ele>1736.536598293</ele>
        <time>2016-02-20T10:30:10Z</time>
      </trkpt>
      <trkpt lat="45.38637" lon="5.81042">
        <ele>1736.536598293</ele>
        <time>2016-02-20T10:30:15Z</time>
      </trkpt>
      <trkpt lat="45.38632" lon="5.81054">
        <ele>1738.9098823</ele>
        <time>2016-02-20T10:30:30Z</time>
      </trkpt>
      <trkpt lat="45.38632" lon="5.81056">
        <ele>1738.9098823</ele>
        <time>2016-02-20T10:30:35Z</time>
      </trkpt>
      <trkpt lat="45.38637" lon="5.8106">
        <ele>1738.9098823</ele>
        <time>2016-02-20T10:30:45Z</time>
      </trkpt>
      <trkpt lat="45.38639" lon="5.81062">
        <ele>1740.217426567</ele>
        <time>2016-02-20T10:30:50Z</time>
      </trkpt>
      <trkpt lat="45.3864" lon="5.81066">
        <ele>1740.217426567</ele>
        <time>2016-02-20T10:31:00Z</time>
      </trkpt>
      <trkpt lat="45.3864" lon="5.81065">
        <ele>1740.217426567</ele>
        <time>2016-02-20T10:31:05Z</time>
      </trkpt>
      <trkpt lat="45.3864" lon="5.81065">
        <ele>1740.217426567</ele>
        <time>2016-02-20T10:31:14Z</time>
      </trkpt>
      <trkpt lat="45.38639" lon="5.81065">
        <ele>1740.217426567</ele>
        <time>2016-02-20T10:31:20Z</time>
      </trkpt>
      <trkpt lat="45.38639" lon="5.81065">
        <ele>1740.217426567</ele>
        <time>2016-02-20T10:31:30Z</time>
      </trkpt>
      <trkpt lat="45.38639" lon="5.81065">
        <ele>1740.217426567</ele>
        <time>2016-02-20T10:31:35Z</time>
      </trkpt>
      <trkpt lat="45.38639" lon="5.81065">
        <ele>1740.217426567</ele>
        <time>2016-02-20T10:31:45Z</time>
      </trkpt>
      <trkpt lat="45.38639" lon="5.81065">
        <ele>1740.217426567</ele>
        <time>2016-02-20T10:31:50Z</time>
      </trkpt>
      <trkpt lat="45.38639" lon="5.81065">
        <ele>1740.217426567</ele>
        <time>2016-02-20T10:32:00Z</time>
      </trkpt>
      <trkpt lat="45.38639" lon="5.81065">
        <ele>1740.217426567</ele>
        <time>2016-02-20T10:32:06Z</time>
      </trkpt>
      <trkpt lat="45.38639" lon="5.81065">
        <ele>1740.217426567</ele>
        <time>2016-02-20T10:32:16Z</time>
      </trkpt>
      <trkpt lat="45.38639" lon="5.81065">
        <ele>1740.217426567</ele>
        <time>2016-02-20T10:32:20Z</time>
      </trkpt>
      <trkpt lat="45.38639" lon="5.81065">
        <ele>1740.217426567</ele>
        <time>2016-02-20T10:32:25Z</time>
      </trkpt>
      <trkpt lat="45.38639" lon="5.81065">
        <ele>1740.217426567</ele>
        <time>2016-02-20T10:32:36Z</time>
      </trkpt>
      <trkpt lat="45.38639" lon="5.81065">
        <ele>1740.217426567</ele>
        <time>2016-02-20T10:32:40Z</time>
      </trkpt>
      <trkpt lat="45.38639" lon="5.81065">
        <ele>1740.217426567</ele>
        <time>2016-02-20T10:32:50Z</time>
      </trkpt>
      <trkpt lat="45.38639" lon="5.81065">
        <ele>1740.217426567</ele>
        <time>2016-02-20T10:32:56Z</time>
      </trkpt>
      <trkpt lat="45.38639" lon="5.81065">
        <ele>1740.217426567</ele>
        <time>2016-02-20T10:33:06Z</time>
      </trkpt>
      <trkpt lat="45.38639" lon="5.81065">
        <ele>1740.217426567</ele>
        <time>2016-02-20T10:33:10Z</time>
      </trkpt>
      <trkpt lat="45.38639" lon="5.81065">
        <ele>1740.217426567</ele>
        <time>2016-02-20T10:33:21Z</time>
      </trkpt>
      <trkpt lat="45.38639" lon="5.81065">
        <ele>1740.217426567</ele>
        <time>2016-02-20T10:33:25Z</time>
      </trkpt>
      <trkpt lat="45.38639" lon="5.81065">
        <ele>1740.217426567</ele>
        <time>2016-02-20T10:33:35Z</time>
      </trkpt>
      <trkpt lat="45.38639" lon="5.81065">
        <ele>1740.217426567</ele>
        <time>2016-02-20T10:33:40Z</time>
      </trkpt>
      <trkpt lat="45.38639" lon="5.81065">
        <ele>1740.217426567</ele>
        <time>2016-02-20T10:33:50Z</time>
      </trkpt>
      <trkpt lat="45.38639" lon="5.81065">
        <ele>1740.217426567</ele>
        <time>2016-02-20T10:33:55Z</time>
      </trkpt>
      <trkpt lat="45.38639" lon="5.81065">
        <ele>1740.217426567</ele>
        <time>2016-02-20T10:34:05Z</time>
      </trkpt>
      <trkpt lat="45.38639" lon="5.81065">
        <ele>1740.217426567</ele>
        <time>2016-02-20T10:34:10Z</time>
      </trkpt>
      <trkpt lat="45.38639" lon="5.81065">
        <ele>1740.217426567</ele>
        <time>2016-02-20T10:34:20Z</time>
      </trkpt>
      <trkpt lat="45.38639" lon="5.81065">
        <ele>1740.217426567</ele>
        <time>2016-02-20T10:34:25Z</time>
      </trkpt>
      <trkpt lat="45.38639" lon="5.81065">
        <ele>1740.217426567</ele>
        <time>2016-02-20T10:34:35Z</time>
      </trkpt>
      <trkpt lat="45.38639" lon="5.81065">
        <ele>1740.217426567</ele>
        <time>2016-02-20T10:34:39Z</time>
      </trkpt>
      <trkpt lat="45.38639" lon="5.81065">
        <ele>1740.217426567</ele>
        <time>2016-02-20T10:34:55Z</time>
      </trkpt>
      <trkpt lat="45.38639" lon="5.81065">
        <ele>1740.217426567</ele>
        <time>2016-02-20T10:35:00Z</time>
      </trkpt>
      <trkpt lat="45.38639" lon="5.81065">
        <ele>1740.217426567</ele>
        <time>2016-02-20T10:35:10Z</time>
      </trkpt>
      <trkpt lat="45.38639" lon="5.81065">
        <ele>1740.217426567</ele>
        <time>2016-02-20T10:35:16Z</time>
      </trkpt>
      <trkpt lat="45.38639" lon="5.81065">
        <ele>1740.217426567</ele>
        <time>2016-02-20T10:35:26Z</time>
      </trkpt>
      <trkpt lat="45.38639" lon="5.81065">
        <ele>1740.217426567</ele>
        <time>2016-02-20T10:35:30Z</time>
      </trkpt>
      <trkpt lat="45.38639" lon="5.81065">
        <ele>1740.217426567</ele>
        <time>2016-02-20T10:35:40Z</time>
      </trkpt>
      <trkpt lat="45.38639" lon="5.81065">
        <ele>1740.217426567</ele>
        <time>2016-02-20T10:35:45Z</time>
      </trkpt>
      <trkpt lat="45.38639" lon="5.81065">
        <ele>1740.217426567</ele>
        <time>2016-02-20T10:35:55Z</time>
      </trkpt>
      <trkpt lat="45.38639" lon="5.81065">
        <ele>1740.217426567</ele>
        <time>2016-02-20T10:36:00Z</time>
      </trkpt>
      <trkpt lat="45.38639" lon="5.81065">
        <ele>1740.217426567</ele>
        <time>2016-02-20T10:36:18Z</time>
      </trkpt>
      <trkpt lat="45.38639" lon="5.81065">
        <ele>1740.217426567</ele>
        <time>2016-02-20T10:36:25Z</time>
      </trkpt>
      <trkpt lat="45.38639" lon="5.81065">
        <ele>1740.217426567</ele>
        <time>2016-02-20T10:36:43Z</time>
      </trkpt>
      <trkpt lat="45.38639" lon="5.81065">
        <ele>1740.217426567</ele>
        <time>2016-02-20T10:36:50Z</time>
      </trkpt>
      <trkpt lat="45.38639" lon="5.81065">
        <ele>1740.217426567</ele>
        <time>2016-02-20T10:36:50Z</time>
      </trkpt>
      <trkpt lat="45.38638" lon="5.81065">
        <ele>1740.217426567</ele>
        <time>2016-02-20T10:37:36Z</time>
      </trkpt>
      <trkpt lat="45.38638" lon="5.81065">
        <ele>1740.217426567</ele>
        <time>2016-02-20T10:37:37Z</time>
      </trkpt>
      <trkpt lat="45.38638" lon="5.81065">
        <ele>1740.217426567</ele>
        <time>2016-02-20T10:37:49Z</time>
      </trkpt>
      <trkpt lat="45.38638" lon="5.81065">
        <ele>1740.217426567</ele>
        <time>2016-02-20T10:37:49Z</time>
      </trkpt>
      <trkpt lat="45.38638" lon="5.81065">
        <ele>1740.217426567</ele>
        <time>2016-02-20T10:38:03Z</time>
      </trkpt>
      <trkpt lat="45.38638" lon="5.81065">
        <ele>1740.217426567</ele>
        <time>2016-02-20T10:38:12Z</time>
      </trkpt>
      <trkpt lat="45.38638" lon="5.81066">
        <ele>1740.217426567</ele>
        <time>2016-02-20T10:38:22Z</time>
      </trkpt>
      <trkpt lat="45.38638" lon="5.81067">
        <ele>1740.217426567</ele>
        <time>2016-02-20T10:38:24Z</time>
      </trkpt>
      <trkpt lat="45.38638" lon="5.81067">
        <ele>1740.217426567</ele>
        <time>2016-02-20T10:38:29Z</time>
      </trkpt>
      <trkpt lat="45.38638" lon="5.81067">
        <ele>1740.217426567</ele>
        <time>2016-02-20T10:38:38Z</time>
      </trkpt>
      <trkpt lat="45.38638" lon="5.81067">
        <ele>1742.703771008</ele>
        <time>2016-02-20T10:39:17Z</time>
      </trkpt>
      <trkpt lat="45.3864" lon="5.81067">
        <ele>1742.703771008</ele>
        <time>2016-02-20T10:39:50Z</time>
      </trkpt>
      <trkpt lat="45.3864" lon="5.81066">
        <ele>1742.703771008</ele>
        <time>2016-02-20T10:40:31Z</time>
      </trkpt>
      <trkpt lat="45.3864" lon="5.81066">
        <ele>1742.703771008</ele>
        <time>2016-02-20T10:40:35Z</time>
      </trkpt>
      <trkpt lat="45.3864" lon="5.81065">
        <ele>1742.703771008</ele>
        <time>2016-02-20T10:40:45Z</time>
      </trkpt>
      <trkpt lat="45.38639" lon="5.81065">
        <ele>1742.703771008</ele>
        <time>2016-02-20T10:40:50Z</time>
      </trkpt>
      <trkpt lat="45.38639" lon="5.81065">
        <ele>1742.703771008</ele>
        <time>2016-02-20T10:41:01Z</time>
      </trkpt>
      <trkpt lat="45.38639" lon="5.81065">
        <ele>1742.703771008</ele>
        <time>2016-02-20T10:41:05Z</time>
      </trkpt>
      <trkpt lat="45.38639" lon="5.81065">
        <ele>1742.703771008</ele>
        <time>2016-02-20T10:41:15Z</time>
      </trkpt>
      <trkpt lat="45.38639" lon="5.81065">
        <ele>1742.703771008</ele>
        <time>2016-02-20T10:41:20Z</time>
      </trkpt>
      <trkpt lat="45.38617" lon="5.81073">
        <ele>1743.689472621</ele>
        <time>2016-02-20T10:41:30Z</time>
      </trkpt>
      <trkpt lat="45.38605" lon="5.81081">
        <ele>1744.442893432</ele>
        <time>2016-02-20T10:41:34Z</time>
      </trkpt>
      <trkpt lat="45.3858" lon="5.81102">
        <ele>1743.833963303</ele>
        <time>2016-02-20T10:41:50Z</time>
      </trkpt>
      <trkpt lat="45.38572" lon="5.81107">
        <ele>1742.692752062</ele>
        <time>2016-02-20T10:41:55Z</time>
      </trkpt>
      <trkpt lat="45.38545" lon="5.81121">
        <ele>1740.060353641</ele>
        <time>2016-02-20T10:42:05Z</time>
      </trkpt>
      <trkpt lat="45.38544" lon="5.81119">
        <ele>1740.060353641</ele>
        <time>2016-02-20T10:42:10Z</time>
      </trkpt>
      <trkpt lat="45.38532" lon="5.81123">
        <ele>1737.069861651</ele>
        <time>2016-02-20T10:42:20Z</time>
      </trkpt>
      <trkpt lat="45.38528" lon="5.8112">
        <ele>1737.069861651</ele>
        <time>2016-02-20T10:42:26Z</time>
      </trkpt>
      <trkpt lat="45.385" lon="5.81138">
        <ele>1733.186706456</ele>
        <time>2016-02-20T10:42:35Z</time>
      </trkpt>
      <trkpt lat="45.3849" lon="5.81142">
        <ele>1729.358964329</ele>
        <time>2016-02-20T10:42:40Z</time>
      </trkpt>
      <trkpt lat="45.3847" lon="5.81177">
        <ele>1724.447081468</ele>
        <time>2016-02-20T10:42:50Z</time>
      </trkpt>
      <trkpt lat="45.38466" lon="5.81181">
        <ele>1724.447081468</ele>
        <time>2016-02-20T10:42:56Z</time>
      </trkpt>
      <trkpt lat="45.38448" lon="5.812">
        <ele>1719.559616655</ele>
        <time>2016-02-20T10:43:06Z</time>
      </trkpt>
      <trkpt lat="45.38448" lon="5.81199">
        <ele>1719.559616655</ele>
        <time>2016-02-20T10:43:10Z</time>
      </trkpt>
      <trkpt lat="45.38447" lon="5.812">
        <ele>1719.559616655</ele>
        <time>2016-02-20T10:43:20Z</time>
      </trkpt>
      <trkpt lat="45.38447" lon="5.812">
        <ele>1719.559616655</ele>
        <time>2016-02-20T10:43:25Z</time>
      </trkpt>
      <trkpt lat="45.38447" lon="5.81199">
        <ele>1719.559616655</ele>
        <time>2016-02-20T10:43:35Z</time>
      </trkpt>
      <trkpt lat="45.38448" lon="5.81199">
        <ele>1719.559616655</ele>
        <time>2016-02-20T10:43:41Z</time>
      </trkpt>
      <trkpt lat="45.38448" lon="5.812">
        <ele>1719.559616655</ele>
        <time>2016-02-20T10:43:51Z</time>
      </trkpt>
      <trkpt lat="45.38448" lon="5.812">
        <ele>1719.559616655</ele>
        <time>2016-02-20T10:43:55Z</time>
      </trkpt>
      <trkpt lat="45.38448" lon="5.812">
        <ele>1719.559616655</ele>
        <time>2016-02-20T10:43:59Z</time>
      </trkpt>
      <trkpt lat="45.38448" lon="5.812">
        <ele>1719.559616655</ele>
        <time>2016-02-20T10:44:10Z</time>
      </trkpt>
      <trkpt lat="45.38448" lon="5.812">
        <ele>1719.559616655</ele>
        <time>2016-02-20T10:44:14Z</time>
      </trkpt>
      <trkpt lat="45.38448" lon="5.812">
        <ele>1719.559616655</ele>
        <time>2016-02-20T10:44:25Z</time>
      </trkpt>
      <trkpt lat="45.38448" lon="5.812">
        <ele>1719.559616655</ele>
        <time>2016-02-20T10:44:30Z</time>
      </trkpt>
      <trkpt lat="45.38448" lon="5.812">
        <ele>1719.559616655</ele>
        <time>2016-02-20T10:44:40Z</time>
      </trkpt>
      <trkpt lat="45.38448" lon="5.812">
        <ele>1719.559616655</ele>
        <time>2016-02-20T10:44:45Z</time>
      </trkpt>
      <trkpt lat="45.38449" lon="5.81216">
        <ele>1713.561615515</ele>
        <time>2016-02-20T10:44:55Z</time>
      </trkpt>
      <trkpt lat="45.38439" lon="5.81237">
        <ele>1707.133566774</ele>
        <time>2016-02-20T10:45:00Z</time>
      </trkpt>
      <trkpt lat="45.38412" lon="5.81238">
        <ele>1700.18620446</ele>
        <time>2016-02-20T10:45:11Z</time>
      </trkpt>
      <trkpt lat="45.38402" lon="5.81257">
        <ele>1693.214267286</ele>
        <time>2016-02-20T10:45:15Z</time>
      </trkpt>
      <trkpt lat="45.38362" lon="5.81249">
        <ele>1685.666949763</ele>
        <time>2016-02-20T10:45:25Z</time>
      </trkpt>
      <trkpt lat="45.3833" lon="5.81246">
        <ele>1677.899661613</ele>
        <time>2016-02-20T10:45:30Z</time>
      </trkpt>
      <trkpt lat="45.3829" lon="5.81246">
        <ele>1670.097648589</ele>
        <time>2016-02-20T10:45:41Z</time>
      </trkpt>
      <trkpt lat="45.3828" lon="5.81255">
        <ele>1662.576164435</ele>
        <time>2016-02-20T10:45:45Z</time>
      </trkpt>
      <trkpt lat="45.38254" lon="5.81253">
        <ele>1654.473007051</ele>
        <time>2016-02-20T10:45:55Z</time>
      </trkpt>
      <trkpt lat="45.38242" lon="5.81237">
        <ele>1646.719631269</ele>
        <time>2016-02-20T10:46:00Z</time>
      </trkpt>
      <trkpt lat="45.38197" lon="5.81239">
        <ele>1638.448085007</ele>
        <time>2016-02-20T10:46:11Z</time>
      </trkpt>
      <trkpt lat="45.38183" lon="5.81245">
        <ele>1630.728388777</ele>
        <time>2016-02-20T10:46:15Z</time>
      </trkpt>
      <trkpt lat="45.38115" lon="5.81224">
        <ele>1621.811597251</ele>
        <time>2016-02-20T10:46:30Z</time>
      </trkpt>
      <trkpt lat="45.38082" lon="5.81197">
        <ele>1612.097437724</ele>
        <time>2016-02-20T10:46:45Z</time>
      </trkpt>
      <trkpt lat="45.38081" lon="5.81193">
        <ele>1612.097437724</ele>
        <time>2016-02-20T10:46:50Z</time>
      </trkpt>
      <trkpt lat="45.38083" lon="5.81195">
        <ele>1612.097437724</ele>
        <time>2016-02-20T10:47:00Z</time>
      </trkpt>
      <trkpt lat="45.38082" lon="5.81197">
        <ele>1612.097437724</ele>
        <time>2016-02-20T10:47:06Z</time>
      </trkpt>
      <trkpt lat="45.38083" lon="5.81198">
        <ele>1612.097437724</ele>
        <time>2016-02-20T10:47:16Z</time>
      </trkpt>
      <trkpt lat="45.38083" lon="5.81198">
        <ele>1612.097437724</ele>
        <time>2016-02-20T10:47:20Z</time>
      </trkpt>
      <trkpt lat="45.38083" lon="5.81198">
        <ele>1612.097437724</ele>
        <time>2016-02-20T10:47:31Z</time>
      </trkpt>
      <trkpt lat="45.38083" lon="5.81198">
        <ele>1612.097437724</ele>
        <time>2016-02-20T10:47:35Z</time>
      </trkpt>
      <trkpt lat="45.38083" lon="5.81197">
        <ele>1612.097437724</ele>
        <time>2016-02-20T10:47:45Z</time>
      </trkpt>
      <trkpt lat="45.38084" lon="5.81198">
        <ele>1601.525441446</ele>
        <time>2016-02-20T10:47:50Z</time>
      </trkpt>
      <trkpt lat="45.38086" lon="5.81199">
        <ele>1601.525441446</ele>
        <time>2016-02-20T10:48:00Z</time>
      </trkpt>
      <trkpt lat="45.38086" lon="5.81199">
        <ele>1601.525441446</ele>
        <time>2016-02-20T10:48:05Z</time>
      </trkpt>
      <trkpt lat="45.38085" lon="5.81199">
        <ele>1601.525441446</ele>
        <time>2016-02-20T10:48:15Z</time>
      </trkpt>
      <trkpt lat="45.38085" lon="5.812">
        <ele>1601.525441446</ele>
        <time>2016-02-20T10:48:20Z</time>
      </trkpt>
      <trkpt lat="45.38085" lon="5.812">
        <ele>1601.525441446</ele>
        <time>2016-02-20T10:48:29Z</time>
      </trkpt>
      <trkpt lat="45.38085" lon="5.812">
        <ele>1601.525441446</ele>
        <time>2016-02-20T10:48:35Z</time>
      </trkpt>
      <trkpt lat="45.38085" lon="5.812">
        <ele>1601.525441446</ele>
        <time>2016-02-20T10:48:45Z</time>
      </trkpt>
      <trkpt lat="45.38085" lon="5.812">
        <ele>1601.525441446</ele>
        <time>2016-02-20T10:48:50Z</time>
      </trkpt>
      <trkpt lat="45.38085" lon="5.812">
        <ele>1601.525441446</ele>
        <time>2016-02-20T10:49:00Z</time>
      </trkpt>
      <trkpt lat="45.38085" lon="5.812">
        <ele>1601.525441446</ele>
        <time>2016-02-20T10:49:05Z</time>
      </trkpt>
      <trkpt lat="45.38085" lon="5.812">
        <ele>1601.525441446</ele>
        <time>2016-02-20T10:49:15Z</time>
      </trkpt>
      <trkpt lat="45.38085" lon="5.81201">
        <ele>1601.525441446</ele>
        <time>2016-02-20T10:49:20Z</time>
      </trkpt>
      <trkpt lat="45.38085" lon="5.812">
        <ele>1601.525441446</ele>
        <time>2016-02-20T10:49:31Z</time>
      </trkpt>
      <trkpt lat="45.38085" lon="5.812">
        <ele>1601.525441446</ele>
        <time>2016-02-20T10:49:35Z</time>
      </trkpt>
      <trkpt lat="45.38085" lon="5.812">
        <ele>1601.525441446</ele>
        <time>2016-02-20T10:49:45Z</time>
      </trkpt>
      <trkpt lat="45.38085" lon="5.812">
        <ele>1601.525441446</ele>
        <time>2016-02-20T10:49:50Z</time>
      </trkpt>
      <trkpt lat="45.38084" lon="5.812">
        <ele>1601.525441446</ele>
        <time>2016-02-20T10:50:05Z</time>
      </trkpt>
      <trkpt lat="45.38084" lon="5.812">
        <ele>1601.525441446</ele>
        <time>2016-02-20T10:50:20Z</time>
      </trkpt>
      <trkpt lat="45.38084" lon="5.812">
        <ele>1601.525441446</ele>
        <time>2016-02-20T10:50:25Z</time>
      </trkpt>
      <trkpt lat="45.38084" lon="5.812">
        <ele>1601.525441446</ele>
        <time>2016-02-20T10:50:35Z</time>
      </trkpt>
      <trkpt lat="45.38084" lon="5.812">
        <ele>1601.525441446</ele>
        <time>2016-02-20T10:50:40Z</time>
      </trkpt>
      <trkpt lat="45.38084" lon="5.812">
        <ele>1601.525441446</ele>
        <time>2016-02-20T10:50:50Z</time>
      </trkpt>
      <trkpt lat="45.38084" lon="5.812">
        <ele>1601.525441446</ele>
        <time>2016-02-20T10:50:55Z</time>
      </trkpt>
      <trkpt lat="45.38084" lon="5.812">
        <ele>1601.525441446</ele>
        <time>2016-02-20T10:51:06Z</time>
      </trkpt>
      <trkpt lat="45.38084" lon="5.812">
        <ele>1601.525441446</ele>
        <time>2016-02-20T10:51:10Z</time>
      </trkpt>
      <trkpt lat="45.38084" lon="5.812">
        <ele>1601.525441446</ele>
        <time>2016-02-20T10:51:20Z</time>
      </trkpt>
      <trkpt lat="45.38084" lon="5.812">
        <ele>1601.525441446</ele>
        <time>2016-02-20T10:51:25Z</time>
      </trkpt>
      <trkpt lat="45.38082" lon="5.81206">
        <ele>1592.923461189</ele>
        <time>2016-02-20T10:51:35Z</time>
      </trkpt>
      <trkpt lat="45.38082" lon="5.81208">
        <ele>1592.923461189</ele>
        <time>2016-02-20T10:51:40Z</time>
      </trkpt>
      <trkpt lat="45.38082" lon="5.81209">
        <ele>1592.923461189</ele>
        <time>2016-02-20T10:51:50Z</time>
      </trkpt>
      <trkpt lat="45.38082" lon="5.81209">
        <ele>1592.923461189</ele>
        <time>2016-02-20T10:51:55Z</time>
      </trkpt>
      <trkpt lat="45.38082" lon="5.81209">
        <ele>1592.923461189</ele>
        <time>2016-02-20T10:52:05Z</time>
      </trkpt>
      <trkpt lat="45.38081" lon="5.81209">
        <ele>1592.923461189</ele>
        <time>2016-02-20T10:52:11Z</time>
      </trkpt>
      <trkpt lat="45.38077" lon="5.81205">
        <ele>1592.923461189</ele>
        <time>2016-02-20T10:52:20Z</time>
      </trkpt>
      <trkpt lat="45.38076" lon="5.81204">
        <ele>1586.887774968</ele>
        <time>2016-02-20T10:52:25Z</time>
      </trkpt>
      <trkpt lat="45.38076" lon="5.81204">
        <ele>1586.887774968</ele>
        <time>2016-02-20T10:52:40Z</time>
      </trkpt>
      <trkpt lat="45.38076" lon="5.81204">
        <ele>1586.887774968</ele>
        <time>2016-02-20T10:52:55Z</time>
      </trkpt>
      <trkpt lat="45.38076" lon="5.81204">
        <ele>1586.887774968</ele>
        <time>2016-02-20T10:53:00Z</time>
      </trkpt>
      <trkpt lat="45.38076" lon="5.81204">
        <ele>1586.887774968</ele>
        <time>2016-02-20T10:53:09Z</time>
      </trkpt>
      <trkpt lat="45.38076" lon="5.81204">
        <ele>1586.887774968</ele>
        <time>2016-02-20T10:53:15Z</time>
      </trkpt>
      <trkpt lat="45.38076" lon="5.81204">
        <ele>1586.887774968</ele>
        <time>2016-02-20T10:53:25Z</time>
      </trkpt>
      <trkpt lat="45.38076" lon="5.81204">
        <ele>1586.887774968</ele>
        <time>2016-02-20T10:53:30Z</time>
      </trkpt>
      <trkpt lat="45.38077" lon="5.81203">
        <ele>1586.887774968</ele>
        <time>2016-02-20T10:53:41Z</time>
      </trkpt>
      <trkpt lat="45.38077" lon="5.81202">
        <ele>1586.887774968</ele>
        <time>2016-02-20T10:53:45Z</time>
      </trkpt>
      <trkpt lat="45.38077" lon="5.812">
        <ele>1586.887774968</ele>
        <time>2016-02-20T10:53:56Z</time>
      </trkpt>
      <trkpt lat="45.38077" lon="5.812">
        <ele>1586.887774968</ele>
        <time>2016-02-20T10:54:00Z</time>
      </trkpt>
      <trkpt lat="45.38078" lon="5.812">
        <ele>1586.887774968</ele>
        <time>2016-02-20T10:54:10Z</time>
      </trkpt>
      <trkpt lat="45.38078" lon="5.812">
        <ele>1586.887774968</ele>
        <time>2016-02-20T10:54:15Z</time>
      </trkpt>
      <trkpt lat="45.38079" lon="5.81198">
        <ele>1586.887774968</ele>
        <time>2016-02-20T10:54:25Z</time>
      </trkpt>
      <trkpt lat="45.38078" lon="5.81199">
        <ele>1586.887774968</ele>
        <time>2016-02-20T10:54:30Z</time>
      </trkpt>
      <trkpt lat="45.38078" lon="5.812">
        <ele>1586.887774968</ele>
        <time>2016-02-20T10:54:40Z</time>
      </trkpt>
      <trkpt lat="45.3808" lon="5.81201">
        <ele>1580.64834113</ele>
        <time>2016-02-20T10:54:45Z</time>
      </trkpt>
      <trkpt lat="45.3808" lon="5.81201">
        <ele>1580.64834113</ele>
        <time>2016-02-20T10:54:55Z</time>
      </trkpt>
      <trkpt lat="45.3808" lon="5.81201">
        <ele>1580.64834113</ele>
        <time>2016-02-20T10:55:00Z</time>
      </trkpt>
      <trkpt lat="45.3808" lon="5.81201">
        <ele>1580.64834113</ele>
        <time>2016-02-20T10:55:05Z</time>
      </trkpt>
      <trkpt lat="45.3808" lon="5.81201">
        <ele>1580.64834113</ele>
        <time>2016-02-20T10:55:15Z</time>
      </trkpt>
      <trkpt lat="45.3808" lon="5.81201">
        <ele>1580.64834113</ele>
        <time>2016-02-20T10:55:21Z</time>
      </trkpt>
      <trkpt lat="45.3808" lon="5.81203">
        <ele>1580.64834113</ele>
        <time>2016-02-20T10:55:30Z</time>
      </trkpt>
      <trkpt lat="45.38081" lon="5.81203">
        <ele>1580.64834113</ele>
        <time>2016-02-20T10:55:35Z</time>
      </trkpt>
      <trkpt lat="45.38081" lon="5.81203">
        <ele>1580.64834113</ele>
        <time>2016-02-20T10:55:45Z</time>
      </trkpt>
      <trkpt lat="45.38081" lon="5.81203">
        <ele>1580.64834113</ele>
        <time>2016-02-20T10:55:50Z</time>
      </trkpt>
      <trkpt lat="45.38081" lon="5.81203">
        <ele>1580.64834113</ele>
        <time>2016-02-20T10:56:01Z</time>
      </trkpt>
      <trkpt lat="45.38082" lon="5.81205">
        <ele>1580.64834113</ele>
        <time>2016-02-20T10:56:05Z</time>
      </trkpt>
      <trkpt lat="45.38084" lon="5.81206">
        <ele>1580.64834113</ele>
        <time>2016-02-20T10:56:16Z</time>
      </trkpt>
      <trkpt lat="45.38084" lon="5.81206">
        <ele>1580.64834113</ele>
        <time>2016-02-20T10:56:20Z</time>
      </trkpt>
      <trkpt lat="45.38084" lon="5.81206">
        <ele>1580.64834113</ele>
        <time>2016-02-20T10:56:31Z</time>
      </trkpt>
      <trkpt lat="45.38084" lon="5.81206">
        <ele>1580.64834113</ele>
        <time>2016-02-20T10:56:35Z</time>
      </trkpt>
      <trkpt lat="45.38084" lon="5.81206">
        <ele>1580.64834113</ele>
        <time>2016-02-20T10:56:45Z</time>
      </trkpt>
      <trkpt lat="45.38084" lon="5.81206">
        <ele>1580.64834113</ele>
        <time>2016-02-20T10:56:50Z</time>
      </trkpt>
      <trkpt lat="45.38083" lon="5.81208">
        <ele>1580.64834113</ele>
        <time>2016-02-20T10:57:01Z</time>
      </trkpt>
      <trkpt lat="45.38083" lon="5.81209">
        <ele>1580.64834113</ele>
        <time>2016-02-20T10:57:05Z</time>
      </trkpt>
      <trkpt lat="45.38081" lon="5.81208">
        <ele>1575.673537214</ele>
        <time>2016-02-20T10:57:20Z</time>
      </trkpt>
      <trkpt lat="45.38081" lon="5.81206">
        <ele>1575.673537214</ele>
        <time>2016-02-20T10:57:25Z</time>
      </trkpt>
      <trkpt lat="45.38079" lon="5.81202">
        <ele>1575.673537214</ele>
        <time>2016-02-20T10:57:35Z</time>
      </trkpt>
      <trkpt lat="45.38079" lon="5.81202">
        <ele>1575.673537214</ele>
        <time>2016-02-20T10:57:40Z</time>
      </trkpt>
      <trkpt lat="45.38079" lon="5.81202">
        <ele>1575.673537214</ele>
        <time>2016-02-20T10:57:50Z</time>
      </trkpt>
      <trkpt lat="45.38078" lon="5.81201">
        <ele>1575.673537214</ele>
        <time>2016-02-20T10:57:54Z</time>
      </trkpt>
      <trkpt lat="45.38078" lon="5.81201">
        <ele>1575.673537214</ele>
        <time>2016-02-20T10:57:59Z</time>
      </trkpt>
      <trkpt lat="45.38079" lon="5.81202">
        <ele>1575.673537214</ele>
        <time>2016-02-20T10:58:04Z</time>
      </trkpt>
      <trkpt lat="45.38079" lon="5.81202">
        <ele>1575.673537214</ele>
        <time>2016-02-20T10:58:09Z</time>
      </trkpt>
      <trkpt lat="45.38079" lon="5.81202">
        <ele>1575.673537214</ele>
        <time>2016-02-20T10:58:14Z</time>
      </trkpt>
      <trkpt lat="45.38079" lon="5.81202">
        <ele>1575.673537214</ele>
        <time>2016-02-20T10:58:19Z</time>
      </trkpt>
      <trkpt lat="45.38079" lon="5.81202">
        <ele>1575.673537214</ele>
        <time>2016-02-20T10:58:24Z</time>
      </trkpt>
      <trkpt lat="45.38079" lon="5.81202">
        <ele>1575.673537214</ele>
        <time>2016-02-20T10:58:29Z</time>
      </trkpt>
      <trkpt lat="45.38079" lon="5.81202">
        <ele>1575.673537214</ele>
        <time>2016-02-20T10:58:34Z</time>
      </trkpt>
      <trkpt lat="45.38079" lon="5.81202">
        <ele>1575.673537214</ele>
        <time>2016-02-20T10:58:41Z</time>
      </trkpt>
      <trkpt lat="45.38079" lon="5.81202">
        <ele>1575.673537214</ele>
        <time>2016-02-20T10:58:51Z</time>
      </trkpt>
      <trkpt lat="45.38079" lon="5.81204">
        <ele>1575.673537214</ele>
        <time>2016-02-20T10:58:55Z</time>
      </trkpt>
      <trkpt lat="45.38078" lon="5.81201">
        <ele>1572.310821947</ele>
        <time>2016-02-20T10:59:06Z</time>
      </trkpt>
      <trkpt lat="45.38078" lon="5.81201">
        <ele>1572.310821947</ele>
        <time>2016-02-20T10:59:10Z</time>
      </trkpt>
      <trkpt lat="45.38078" lon="5.81201">
        <ele>1572.310821947</ele>
        <time>2016-02-20T10:59:14Z</time>
      </trkpt>
      <trkpt lat="45.38078" lon="5.81201">
        <ele>1572.310821947</ele>
        <time>2016-02-20T10:59:26Z</time>
      </trkpt>
      <trkpt lat="45.38078" lon="5.81201">
        <ele>1572.310821947</ele>
        <time>2016-02-20T10:59:30Z</time>
      </trkpt>
      <trkpt lat="45.38077" lon="5.81199">
        <ele>1572.310821947</ele>
        <time>2016-02-20T10:59:40Z</time>
      </trkpt>
      <trkpt lat="45.38075" lon="5.81199">
        <ele>1572.310821947</ele>
        <time>2016-02-20T10:59:45Z</time>
      </trkpt>
      <trkpt lat="45.38076" lon="5.81199">
        <ele>1572.310821947</ele>
        <time>2016-02-20T10:59:55Z</time>
      </trkpt>
      <trkpt lat="45.38076" lon="5.81199">
        <ele>1572.310821947</ele>
        <time>2016-02-20T11:00:00Z</time>
      </trkpt>
      <trkpt lat="45.38076" lon="5.81199">
        <ele>1572.310821947</ele>
        <time>2016-02-20T11:00:10Z</time>
      </trkpt>
      <trkpt lat="45.38076" lon="5.81199">
        <ele>1572.310821947</ele>
        <time>2016-02-20T11:00:15Z</time>
      </trkpt>
      <trkpt lat="45.38076" lon="5.81199">
        <ele>1572.310821947</ele>
        <time>2016-02-20T11:00:24Z</time>
      </trkpt>
      <trkpt lat="45.38076" lon="5.81199">
        <ele>1572.310821947</ele>
        <time>2016-02-20T11:00:30Z</time>
      </trkpt>
      <trkpt lat="45.38076" lon="5.81199">
        <ele>1572.310821947</ele>
        <time>2016-02-20T11:00:40Z</time>
      </trkpt>
      <trkpt lat="45.38076" lon="5.81199">
        <ele>1572.310821947</ele>
        <time>2016-02-20T11:00:45Z</time>
      </trkpt>
      <trkpt lat="45.38076" lon="5.81199">
        <ele>1572.310821947</ele>
        <time>2016-02-20T11:00:56Z</time>
      </trkpt>
      <trkpt lat="45.38076" lon="5.81199">
        <ele>1572.310821947</ele>
        <time>2016-02-20T11:01:01Z</time>
      </trkpt>
      <trkpt lat="45.38076" lon="5.81199">
        <ele>1572.310821947</ele>
        <time>2016-02-20T11:01:11Z</time>
      </trkpt>
      <trkpt lat="45.38076" lon="5.81199">
        <ele>1572.310821947</ele>
        <time>2016-02-20T11:01:16Z</time>
      </trkpt>
      <trkpt lat="45.38074" lon="5.81199">
        <ele>1572.310821947</ele>
        <time>2016-02-20T11:01:25Z</time>
      </trkpt>
      <trkpt lat="45.38074" lon="5.81202">
        <ele>1572.310821947</ele>
        <time>2016-02-20T11:01:31Z</time>
      </trkpt>
      <trkpt lat="45.38075" lon="5.812">
        <ele>1572.310821947</ele>
        <time>2016-02-20T11:01:45Z</time>
      </trkpt>
      <trkpt lat="45.38074" lon="5.81201">
        <ele>1569.147579193</ele>
        <time>2016-02-20T11:02:00Z</time>
      </trkpt>
      <trkpt lat="45.38074" lon="5.81201">
        <ele>1569.147579193</ele>
        <time>2016-02-20T11:02:05Z</time>
      </trkpt>
      <trkpt lat="45.38074" lon="5.81201">
        <ele>1569.147579193</ele>
        <time>2016-02-20T11:02:11Z</time>
      </trkpt>
      <trkpt lat="45.38074" lon="5.81201">
        <ele>1569.147579193</ele>
        <time>2016-02-20T11:02:15Z</time>
      </trkpt>
      <trkpt lat="45.38074" lon="5.81201">
        <ele>1569.147579193</ele>
        <time>2016-02-20T11:02:20Z</time>
      </trkpt>
      <trkpt lat="45.38074" lon="5.81201">
        <ele>1569.147579193</ele>
        <time>2016-02-20T11:02:31Z</time>
      </trkpt>
      <trkpt lat="45.38074" lon="5.81201">
        <ele>1569.147579193</ele>
        <time>2016-02-20T11:02:35Z</time>
      </trkpt>
      <trkpt lat="45.38074" lon="5.81202">
        <ele>1569.147579193</ele>
        <time>2016-02-20T11:02:45Z</time>
      </trkpt>
      <trkpt lat="45.38074" lon="5.81202">
        <ele>1569.147579193</ele>
        <time>2016-02-20T11:02:49Z</time>
      </trkpt>
      <trkpt lat="45.38074" lon="5.81202">
        <ele>1569.147579193</ele>
        <time>2016-02-20T11:03:01Z</time>
      </trkpt>
      <trkpt lat="45.38074" lon="5.81202">
        <ele>1569.147579193</ele>
        <time>2016-02-20T11:03:05Z</time>
      </trkpt>
      <trkpt lat="45.38066" lon="5.81199">
        <ele>1566.603081912</ele>
        <time>2016-02-20T11:03:15Z</time>
      </trkpt>
      <trkpt lat="45.3806" lon="5.81197">
        <ele>1566.603081912</ele>
        <time>2016-02-20T11:03:20Z</time>
      </trkpt>
      <trkpt lat="45.3805" lon="5.81196">
        <ele>1564.342901287</ele>
        <time>2016-02-20T11:03:31Z</time>
      </trkpt>
      <trkpt lat="45.38045" lon="5.81194">
        <ele>1564.342901287</ele>
        <time>2016-02-20T11:03:35Z</time>
      </trkpt>
      <trkpt lat="45.38028" lon="5.81195">
        <ele>1562.63226024</ele>
        <time>2016-02-20T11:03:50Z</time>
      </trkpt>
      <trkpt lat="45.38024" lon="5.81195">
        <ele>1562.63226024</ele>
        <time>2016-02-20T11:03:55Z</time>
      </trkpt>
      <trkpt lat="45.38012" lon="5.81192">
        <ele>1561.282510958</ele>
        <time>2016-02-20T11:04:06Z</time>
      </trkpt>
      <trkpt lat="45.38006" lon="5.81189">
        <ele>1561.282510958</ele>
        <time>2016-02-20T11:04:10Z</time>
      </trkpt>
      <trkpt lat="45.37996" lon="5.81185">
        <ele>1560.982058095</ele>
        <time>2016-02-20T11:04:21Z</time>
      </trkpt>
      <trkpt lat="45.37993" lon="5.81186">
        <ele>1560.982058095</ele>
        <time>2016-02-20T11:04:25Z</time>
      </trkpt>
      <trkpt lat="45.37984" lon="5.81184">
        <ele>1561.212497834</ele>
        <time>2016-02-20T11:04:35Z</time>
      </trkpt>
      <trkpt lat="45.37977" lon="5.81183">
        <ele>1561.212497834</ele>
        <time>2016-02-20T11:04:40Z</time>
      </trkpt>
      <trkpt lat="45.37972" lon="5.81178">
        <ele>1562.212225897</ele>
        <time>2016-02-20T11:04:49Z</time>
      </trkpt>
      <trkpt lat="45.37968" lon="5.81174">
        <ele>1562.212225897</ele>
        <time>2016-02-20T11:04:55Z</time>
      </trkpt>
      <trkpt lat="45.37959" lon="5.81167">
        <ele>1563.767344863</ele>
        <time>2016-02-20T11:05:05Z</time>
      </trkpt>
      <trkpt lat="45.37952" lon="5.81163">
        <ele>1563.767344863</ele>
        <time>2016-02-20T11:05:09Z</time>
      </trkpt>
      <trkpt lat="45.37944" lon="5.81157">
        <ele>1565.389661321</ele>
        <time>2016-02-20T11:05:21Z</time>
      </trkpt>
      <trkpt lat="45.37941" lon="5.81157">
        <ele>1565.389661321</ele>
        <time>2016-02-20T11:05:25Z</time>
      </trkpt>
      <trkpt lat="45.37929" lon="5.81148">
        <ele>1567.491155486</ele>
        <time>2016-02-20T11:05:36Z</time>
      </trkpt>
      <trkpt lat="45.37927" lon="5.81146">
        <ele>1567.491155486</ele>
        <time>2016-02-20T11:05:40Z</time>
      </trkpt>
      <trkpt lat="45.37916" lon="5.81144">
        <ele>1569.73153655</ele>
        <time>2016-02-20T11:05:51Z</time>
      </trkpt>
      <trkpt lat="45.37911" lon="5.81142">
        <ele>1569.73153655</ele>
        <time>2016-02-20T11:05:55Z</time>
      </trkpt>
      <trkpt lat="45.37907" lon="5.8114">
        <ele>1572.227406419</ele>
        <time>2016-02-20T11:06:00Z</time>
      </trkpt>
      <trkpt lat="45.37896" lon="5.81136">
        <ele>1574.941981005</ele>
        <time>2016-02-20T11:06:11Z</time>
      </trkpt>
      <trkpt lat="45.37882" lon="5.81132">
        <ele>1578.128848975</ele>
        <time>2016-02-20T11:06:26Z</time>
      </trkpt>
      <trkpt lat="45.37876" lon="5.81129">
        <ele>1578.128848975</ele>
        <time>2016-02-20T11:06:30Z</time>
      </trkpt>
      <trkpt lat="45.3787" lon="5.81126">
        <ele>1582.454094737</ele>
        <time>2016-02-20T11:06:40Z</time>
      </trkpt>
      <trkpt lat="45.37868" lon="5.81125">
        <ele>1582.454094737</ele>
        <time>2016-02-20T11:06:45Z</time>
      </trkpt>
      <trkpt lat="45.3786" lon="5.81122">
        <ele>1587.234847634</ele>
        <time>2016-02-20T11:06:55Z</time>
      </trkpt>
      <trkpt lat="45.3786" lon="5.81119">
        <ele>1587.234847634</ele>
        <time>2016-02-20T11:07:00Z</time>
      </trkpt>
      <trkpt lat="45.37854" lon="5.81111">
        <ele>1591.981455704</ele>
        <time>2016-02-20T11:07:10Z</time>
      </trkpt>
      <trkpt lat="45.37851" lon="5.81109">
        <ele>1591.981455704</ele>
        <time>2016-02-20T11:07:14Z</time>
      </trkpt>
      <trkpt lat="45.37841" lon="5.81101">
        <ele>1596.817051308</ele>
        <time>2016-02-20T11:07:25Z</time>
      </trkpt>
      <trkpt lat="45.37837" lon="5.81099">
        <ele>1596.817051308</ele>
        <time>2016-02-20T11:07:29Z</time>
      </trkpt>
      <trkpt lat="45.37827" lon="5.81093">
        <ele>1602.144019377</ele>
        <time>2016-02-20T11:07:41Z</time>
      </trkpt>
      <trkpt lat="45.37824" lon="5.8109">
        <ele>1602.144019377</ele>
        <time>2016-02-20T11:07:45Z</time>
      </trkpt>
      <trkpt lat="45.37818" lon="5.81085">
        <ele>1607.181290022</ele>
        <time>2016-02-20T11:07:55Z</time>
      </trkpt>
      <trkpt lat="45.37814" lon="5.81082">
        <ele>1607.181290022</ele>
        <time>2016-02-20T11:08:00Z</time>
      </trkpt>
      <trkpt lat="45.378" lon="5.81076">
        <ele>1612.503398766</ele>
        <time>2016-02-20T11:08:15Z</time>
      </trkpt>
      <trkpt lat="45.37796" lon="5.81072">
        <ele>1612.503398766</ele>
        <time>2016-02-20T11:08:20Z</time>
      </trkpt>
      <trkpt lat="45.37787" lon="5.8107">
        <ele>1617.77766493</ele>
        <time>2016-02-20T11:08:31Z</time>
      </trkpt>
      <trkpt lat="45.37785" lon="5.81067">
        <ele>1617.77766493</ele>
        <time>2016-02-20T11:08:35Z</time>
      </trkpt>
      <trkpt lat="45.37779" lon="5.81064">
        <ele>1623.272916345</ele>
        <time>2016-02-20T11:08:45Z</time>
      </trkpt>
      <trkpt lat="45.37775" lon="5.81062">
        <ele>1623.272916345</ele>
        <time>2016-02-20T11:08:50Z</time>
      </trkpt>
      <trkpt lat="45.3777" lon="5.81058">
        <ele>1628.517580148</ele>
        <time>2016-02-20T11:09:00Z</time>
      </trkpt>
      <trkpt lat="45.37768" lon="5.81059">
        <ele>1628.517580148</ele>
        <time>2016-02-20T11:09:05Z</time>
      </trkpt>
      <trkpt lat="45.37764" lon="5.81052">
        <ele>1628.517580148</ele>
        <time>2016-02-20T11:09:15Z</time>
      </trkpt>
      <trkpt lat="45.37765" lon="5.81049">
        <ele>1634.228869348</ele>
        <time>2016-02-20T11:09:20Z</time>
      </trkpt>
      <trkpt lat="45.37767" lon="5.81042">
        <ele>1634.228869348</ele>
        <time>2016-02-20T11:09:30Z</time>
      </trkpt>
      <trkpt lat="45.37767" lon="5.81039">
        <ele>1634.228869348</ele>
        <time>2016-02-20T11:09:35Z</time>
      </trkpt>
      <trkpt lat="45.37761" lon="5.81036">
        <ele>1640.494135986</ele>
        <time>2016-02-20T11:09:45Z</time>
      </trkpt>
      <trkpt lat="45.37757" lon="5.81036">
        <ele>1640.494135986</ele>
        <time>2016-02-20T11:09:50Z</time>
      </trkpt>
      <trkpt lat="45.37756" lon="5.81032">
        <ele>1640.494135986</ele>
        <time>2016-02-20T11:10:00Z</time>
      </trkpt>
      <trkpt lat="45.37755" lon="5.81029">
        <ele>1640.494135986</ele>
        <time>2016-02-20T11:10:05Z</time>
      </trkpt>
      <trkpt lat="45.3775" lon="5.81024">
        <ele>1646.672808367</ele>
        <time>2016-02-20T11:10:16Z</time>
      </trkpt>
      <trkpt lat="45.37748" lon="5.81022">
        <ele>1646.672808367</ele>
        <time>2016-02-20T11:10:21Z</time>
      </trkpt>
      <trkpt lat="45.37742" lon="5.81015">
        <ele>1653.757463317</ele>
        <time>2016-02-20T11:10:30Z</time>
      </trkpt>
      <trkpt lat="45.3774" lon="5.81012">
        <ele>1653.757463317</ele>
        <time>2016-02-20T11:10:35Z</time>
      </trkpt>
      <trkpt lat="45.37736" lon="5.81006">
        <ele>1660.79242631</ele>
        <time>2016-02-20T11:10:45Z</time>
      </trkpt>
      <trkpt lat="45.37735" lon="5.81002">
        <ele>1660.79242631</ele>
        <time>2016-02-20T11:10:50Z</time>
      </trkpt>
      <trkpt lat="45.37725" lon="5.80987">
        <ele>1667.325369018</ele>
        <time>2016-02-20T11:11:06Z</time>
      </trkpt>
      <trkpt lat="45.37723" lon="5.80982">
        <ele>1667.325369018</ele>
        <time>2016-02-20T11:11:10Z</time>
      </trkpt>
      <trkpt lat="45.37719" lon="5.80982">
        <ele>1667.325369018</ele>
        <time>2016-02-20T11:11:20Z</time>
      </trkpt>
      <trkpt lat="45.37713" lon="5.80981">
        <ele>1672.50695121</ele>
        <time>2016-02-20T11:11:26Z</time>
      </trkpt>
      <trkpt lat="45.37705" lon="5.80978">
        <ele>1672.50695121</ele>
        <time>2016-02-20T11:11:36Z</time>
      </trkpt>
      <trkpt lat="45.37701" lon="5.80978">
        <ele>1677.428156415</ele>
        <time>2016-02-20T11:11:40Z</time>
      </trkpt>
      <trkpt lat="45.37695" lon="5.80973">
        <ele>1677.428156415</ele>
        <time>2016-02-20T11:11:51Z</time>
      </trkpt>
      <trkpt lat="45.37693" lon="5.80969">
        <ele>1681.227807071</ele>
        <time>2016-02-20T11:11:55Z</time>
      </trkpt>
      <trkpt lat="45.37685" lon="5.80969">
        <ele>1681.227807071</ele>
        <time>2016-02-20T11:12:05Z</time>
      </trkpt>
      <trkpt lat="45.37684" lon="5.8097">
        <ele>1684.985268701</ele>
        <time>2016-02-20T11:12:10Z</time>
      </trkpt>
      <trkpt lat="45.37678" lon="5.80969">
        <ele>1684.985268701</ele>
        <time>2016-02-20T11:12:21Z</time>
      </trkpt>
      <trkpt lat="45.37676" lon="5.80967">
        <ele>1684.985268701</ele>
        <time>2016-02-20T11:12:25Z</time>
      </trkpt>
      <trkpt lat="45.37671" lon="5.80957">
        <ele>1689.989637238</ele>
        <time>2016-02-20T11:12:36Z</time>
      </trkpt>
      <trkpt lat="45.37669" lon="5.80952">
        <ele>1689.989637238</ele>
        <time>2016-02-20T11:12:39Z</time>
      </trkpt>
      <trkpt lat="45.37666" lon="5.80936">
        <ele>1695.270813711</ele>
        <time>2016-02-20T11:12:56Z</time>
      </trkpt>
      <trkpt lat="45.37658" lon="5.80937">
        <ele>1695.270813711</ele>
        <time>2016-02-20T11:13:06Z</time>
      </trkpt>
      <trkpt lat="45.37654" lon="5.80939">
        <ele>1700.362173213</ele>
        <time>2016-02-20T11:13:10Z</time>
      </trkpt>
      <trkpt lat="45.37651" lon="5.80941">
        <ele>1700.362173213</ele>
        <time>2016-02-20T11:13:15Z</time>
      </trkpt>
      <trkpt lat="45.37646" lon="5.80944">
        <ele>1704.832543578</ele>
        <time>2016-02-20T11:13:25Z</time>
      </trkpt>
      <trkpt lat="45.37645" lon="5.80943">
        <ele>1704.832543578</ele>
        <time>2016-02-20T11:13:30Z</time>
      </trkpt>
      <trkpt lat="45.37642" lon="5.80943">
        <ele>1704.832543578</ele>
        <time>2016-02-20T11:13:40Z</time>
      </trkpt>
      <trkpt lat="45.37639" lon="5.80942">
        <ele>1704.832543578</ele>
        <time>2016-02-20T11:13:45Z</time>
      </trkpt>
      <trkpt lat="45.37632" lon="5.80936">
        <ele>1709.437688233</ele>
        <time>2016-02-20T11:13:55Z</time>
      </trkpt>
      <trkpt lat="45.37631" lon="5.80932">
        <ele>1709.437688233</ele>
        <time>2016-02-20T11:14:00Z</time>
      </trkpt>
      <trkpt lat="45.37628" lon="5.80926">
        <ele>1709.437688233</ele>
        <time>2016-02-20T11:14:11Z</time>
      </trkpt>
      <trkpt lat="45.37627" lon="5.80922">
        <ele>1714.157535676</ele>
        <time>2016-02-20T11:14:15Z</time>
      </trkpt>
      <trkpt lat="45.37629" lon="5.80913">
        <ele>1714.157535676</ele>
        <time>2016-02-20T11:14:25Z</time>
      </trkpt>
      <trkpt lat="45.37628" lon="5.80905">
        <ele>1719.261991476</ele>
        <time>2016-02-20T11:14:30Z</time>
      </trkpt>
      <trkpt lat="45.37633" lon="5.80889">
        <ele>1723.703640216</ele>
        <time>2016-02-20T11:14:46Z</time>
      </trkpt>
      <trkpt lat="45.37632" lon="5.80885">
        <ele>1723.703640216</ele>
        <time>2016-02-20T11:14:50Z</time>
      </trkpt>
      <trkpt lat="45.37628" lon="5.80883">
        <ele>1723.703640216</ele>
        <time>2016-02-20T11:15:00Z</time>
      </trkpt>
      <trkpt lat="45.37627" lon="5.80885">
        <ele>1723.703640216</ele>
        <time>2016-02-20T11:15:06Z</time>
      </trkpt>
      <trkpt lat="45.37626" lon="5.80884">
        <ele>1728.243771386</ele>
        <time>2016-02-20T11:15:15Z</time>
      </trkpt>
      <trkpt lat="45.37626" lon="5.80884">
        <ele>1728.243771386</ele>
        <time>2016-02-20T11:15:20Z</time>
      </trkpt>
      <trkpt lat="45.37626" lon="5.80884">
        <ele>1728.243771386</ele>
        <time>2016-02-20T11:15:30Z</time>
      </trkpt>
      <trkpt lat="45.37626" lon="5.80884">
        <ele>1728.243771386</ele>
        <time>2016-02-20T11:15:35Z</time>
      </trkpt>
      <trkpt lat="45.37626" lon="5.80884">
        <ele>1728.243771386</ele>
        <time>2016-02-20T11:15:45Z</time>
      </trkpt>
      <trkpt lat="45.37626" lon="5.80884">
        <ele>1728.243771386</ele>
        <time>2016-02-20T11:15:49Z</time>
      </trkpt>
      <trkpt lat="45.37626" lon="5.80884">
        <ele>1728.243771386</ele>
        <time>2016-02-20T11:16:05Z</time>
      </trkpt>
      <trkpt lat="45.37626" lon="5.80884">
        <ele>1728.243771386</ele>
        <time>2016-02-20T11:16:11Z</time>
      </trkpt>
      <trkpt lat="45.37626" lon="5.80884">
        <ele>1728.243771386</ele>
        <time>2016-02-20T11:16:20Z</time>
      </trkpt>
      <trkpt lat="45.37626" lon="5.80884">
        <ele>1728.243771386</ele>
        <time>2016-02-20T11:16:25Z</time>
      </trkpt>
      <trkpt lat="45.37625" lon="5.80883">
        <ele>1728.243771386</ele>
        <time>2016-02-20T11:16:36Z</time>
      </trkpt>
      <trkpt lat="45.37622" lon="5.80882">
        <ele>1728.243771386</ele>
        <time>2016-02-20T11:16:40Z</time>
      </trkpt>
      <trkpt lat="45.37612" lon="5.8088">
        <ele>1732.867470342</ele>
        <time>2016-02-20T11:16:51Z</time>
      </trkpt>
      <trkpt lat="45.37607" lon="5.80882">
        <ele>1732.867470342</ele>
        <time>2016-02-20T11:16:55Z</time>
      </trkpt>
      <trkpt lat="45.37601" lon="5.8088">
        <ele>1736.408326255</ele>
        <time>2016-02-20T11:17:05Z</time>
      </trkpt>
      <trkpt lat="45.37597" lon="5.80883">
        <ele>1736.408326255</ele>
        <time>2016-02-20T11:17:10Z</time>
      </trkpt>
      <trkpt lat="45.37587" lon="5.80883">
        <ele>1739.374381658</ele>
        <time>2016-02-20T11:17:21Z</time>
      </trkpt>
      <trkpt lat="45.37586" lon="5.80883">
        <ele>1739.374381658</ele>
        <time>2016-02-20T11:17:25Z</time>
      </trkpt>
      <trkpt lat="45.37582" lon="5.80883">
        <ele>1739.374381658</ele>
        <time>2016-02-20T11:17:30Z</time>
      </trkpt>
      <trkpt lat="45.37578" lon="5.80883">
        <ele>1739.374381658</ele>
        <time>2016-02-20T11:17:36Z</time>
      </trkpt>
      <trkpt lat="45.37575" lon="5.80879">
        <ele>1741.51789733</ele>
        <time>2016-02-20T11:17:40Z</time>
      </trkpt>
      <trkpt lat="45.37569" lon="5.80858">
        <ele>1743.47675844</ele>
        <time>2016-02-20T11:17:55Z</time>
      </trkpt>
      <trkpt lat="45.37567" lon="5.80855">
        <ele>1743.47675844</ele>
        <time>2016-02-20T11:18:00Z</time>
      </trkpt>
      <trkpt lat="45.37563" lon="5.80841">
        <ele>1745.554704008</ele>
        <time>2016-02-20T11:18:11Z</time>
      </trkpt>
      <trkpt lat="45.3756" lon="5.80836">
        <ele>1745.554704008</ele>
        <time>2016-02-20T11:18:15Z</time>
      </trkpt>
      <trkpt lat="45.37558" lon="5.80825">
        <ele>1747.889097034</ele>
        <time>2016-02-20T11:18:25Z</time>
      </trkpt>
      <trkpt lat="45.37555" lon="5.80825">
        <ele>1747.889097034</ele>
        <time>2016-02-20T11:18:30Z</time>
      </trkpt>
      <trkpt lat="45.37546" lon="5.80822">
        <ele>1750.174504095</ele>
        <time>2016-02-20T11:18:40Z</time>
      </trkpt>
      <trkpt lat="45.37546" lon="5.80824">
        <ele>1750.174504095</ele>
        <time>2016-02-20T11:18:46Z</time>
      </trkpt>
      <trkpt lat="45.37546" lon="5.80824">
        <ele>1750.174504095</ele>
        <time>2016-02-20T11:18:59Z</time>
      </trkpt>
      <trkpt lat="45.37546" lon="5.80824">
        <ele>1750.174504095</ele>
        <time>2016-02-20T11:19:05Z</time>
      </trkpt>
      <trkpt lat="45.37544" lon="5.80823">
        <ele>1750.174504095</ele>
        <time>2016-02-20T11:19:15Z</time>
      </trkpt>
      <trkpt lat="45.37539" lon="5.80825">
        <ele>1750.174504095</ele>
        <time>2016-02-20T11:19:20Z</time>
      </trkpt>
      <trkpt lat="45.37529" lon="5.80825">
        <ele>1753.13716003</ele>
        <time>2016-02-20T11:19:30Z</time>
      </trkpt>
      <trkpt lat="45.37524" lon="5.80825">
        <ele>1753.13716003</ele>
        <time>2016-02-20T11:19:36Z</time>
      </trkpt>
      <trkpt lat="45.37516" lon="5.80825">
        <ele>1756.007226426</ele>
        <time>2016-02-20T11:19:45Z</time>
      </trkpt>
      <trkpt lat="45.37514" lon="5.80827">
        <ele>1756.007226426</ele>
        <time>2016-02-20T11:19:50Z</time>
      </trkpt>
      <trkpt lat="45.37515" lon="5.80826">
        <ele>1756.007226426</ele>
        <time>2016-02-20T11:20:01Z</time>
      </trkpt>
      <trkpt lat="45.37515" lon="5.80826">
        <ele>1756.007226426</ele>
        <time>2016-02-20T11:20:06Z</time>
      </trkpt>
      <trkpt lat="45.37515" lon="5.80826">
        <ele>1756.007226426</ele>
        <time>2016-02-20T11:20:16Z</time>
      </trkpt>
      <trkpt lat="45.37512" lon="5.80825">
        <ele>1756.007226426</ele>
        <time>2016-02-20T11:20:20Z</time>
      </trkpt>
      <trkpt lat="45.37504" lon="5.80823">
        <ele>1758.648382042</ele>
        <time>2016-02-20T11:20:31Z</time>
      </trkpt>
      <trkpt lat="45.37503" lon="5.8082">
        <ele>1758.648382042</ele>
        <time>2016-02-20T11:20:36Z</time>
      </trkpt>
      <trkpt lat="45.37498" lon="5.80809">
        <ele>1761.367532206</ele>
        <time>2016-02-20T11:20:45Z</time>
      </trkpt>
      <trkpt lat="45.37496" lon="5.80801">
        <ele>1761.367532206</ele>
        <time>2016-02-20T11:20:51Z</time>
      </trkpt>
      <trkpt lat="45.37495" lon="5.80795">
        <ele>1764.016698988</ele>
        <time>2016-02-20T11:21:00Z</time>
      </trkpt>
      <trkpt lat="45.37494" lon="5.80793">
        <ele>1764.016698988</ele>
        <time>2016-02-20T11:21:05Z</time>
      </trkpt>
      <trkpt lat="45.37494" lon="5.80783">
        <ele>1764.016698988</ele>
        <time>2016-02-20T11:21:16Z</time>
      </trkpt>
      <trkpt lat="45.37495" lon="5.80775">
        <ele>1766.603274208</ele>
        <time>2016-02-20T11:21:20Z</time>
      </trkpt>
      <trkpt lat="45.37494" lon="5.80761">
        <ele>1769.710898229</ele>
        <time>2016-02-20T11:21:30Z</time>
      </trkpt>
      <trkpt lat="45.37494" lon="5.80755">
        <ele>1769.710898229</ele>
        <time>2016-02-20T11:21:35Z</time>
      </trkpt>
      <trkpt lat="45.37493" lon="5.80743">
        <ele>1772.293804367</ele>
        <time>2016-02-20T11:21:45Z</time>
      </trkpt>
      <trkpt lat="45.37493" lon="5.80739">
        <ele>1772.293804367</ele>
        <time>2016-02-20T11:21:51Z</time>
      </trkpt>
      <trkpt lat="45.37495" lon="5.80727">
        <ele>1774.969874973</ele>
        <time>2016-02-20T11:22:00Z</time>
      </trkpt>
      <trkpt lat="45.37494" lon="5.80723">
        <ele>1774.969874973</ele>
        <time>2016-02-20T11:22:05Z</time>
      </trkpt>
      <trkpt lat="45.37489" lon="5.80716">
        <ele>1777.014455436</ele>
        <time>2016-02-20T11:22:19Z</time>
      </trkpt>
      <trkpt lat="45.37487" lon="5.80712">
        <ele>1777.014455436</ele>
        <time>2016-02-20T11:22:24Z</time>
      </trkpt>
      <trkpt lat="45.3748" lon="5.80701">
        <ele>1781.072551308</ele>
        <time>2016-02-20T11:22:35Z</time>
      </trkpt>
      <trkpt lat="45.37474" lon="5.80695">
        <ele>1781.072551308</ele>
        <time>2016-02-20T11:22:51Z</time>
      </trkpt>
      <trkpt lat="45.37473" lon="5.80693">
        <ele>1781.072551308</ele>
        <time>2016-02-20T11:22:55Z</time>
      </trkpt>
      <trkpt lat="45.37464" lon="5.80683">
        <ele>1784.68952443</ele>
        <time>2016-02-20T11:23:06Z</time>
      </trkpt>
      <trkpt lat="45.37461" lon="5.80681">
        <ele>1784.68952443</ele>
        <time>2016-02-20T11:23:10Z</time>
      </trkpt>
      <trkpt lat="45.37451" lon="5.8067">
        <ele>1788.042253919</ele>
        <time>2016-02-20T11:23:21Z</time>
      </trkpt>
      <trkpt lat="45.37449" lon="5.80668">
        <ele>1788.042253919</ele>
        <time>2016-02-20T11:23:25Z</time>
      </trkpt>
      <trkpt lat="45.37446" lon="5.80664">
        <ele>1788.042253919</ele>
        <time>2016-02-20T11:23:35Z</time>
      </trkpt>
      <trkpt lat="45.37442" lon="5.80659">
        <ele>1791.151320044</ele>
        <time>2016-02-20T11:23:40Z</time>
      </trkpt>
      <trkpt lat="45.37433" lon="5.80648">
        <ele>1795.621756763</ele>
        <time>2016-02-20T11:23:50Z</time>
      </trkpt>
      <trkpt lat="45.37432" lon="5.80648">
        <ele>1795.621756763</ele>
        <time>2016-02-20T11:23:55Z</time>
      </trkpt>
      <trkpt lat="45.37432" lon="5.80647">
        <ele>1795.621756763</ele>
        <time>2016-02-20T11:24:00Z</time>
      </trkpt>
      <trkpt lat="45.37432" lon="5.80647">
        <ele>1795.621756763</ele>
        <time>2016-02-20T11:24:10Z</time>
      </trkpt>
      <trkpt lat="45.37433" lon="5.80642">
        <ele>1795.621756763</ele>
        <time>2016-02-20T11:24:16Z</time>
      </trkpt>
      <trkpt lat="45.37436" lon="5.80634">
        <ele>1799.766482102</ele>
        <time>2016-02-20T11:24:25Z</time>
      </trkpt>
      <trkpt lat="45.37435" lon="5.80633">
        <ele>1799.766482102</ele>
        <time>2016-02-20T11:24:30Z</time>
      </trkpt>
      <trkpt lat="45.37431" lon="5.80631">
        <ele>1799.766482102</ele>
        <time>2016-02-20T11:24:41Z</time>
      </trkpt>
      <trkpt lat="45.3743" lon="5.80631">
        <ele>1799.766482102</ele>
        <time>2016-02-20T11:24:45Z</time>
      </trkpt>
      <trkpt lat="45.37432" lon="5.80634">
        <ele>1803.176197828</ele>
        <time>2016-02-20T11:24:55Z</time>
      </trkpt>
      <trkpt lat="45.37433" lon="5.80634">
        <ele>1803.176197828</ele>
        <time>2016-02-20T11:25:01Z</time>
      </trkpt>
      <trkpt lat="45.37436" lon="5.80636">
        <ele>1803.176197828</ele>
        <time>2016-02-20T11:25:10Z</time>
      </trkpt>
      <trkpt lat="45.37436" lon="5.80634">
        <ele>1803.176197828</ele>
        <time>2016-02-20T11:25:16Z</time>
      </trkpt>
      <trkpt lat="45.37437" lon="5.80634">
        <ele>1803.176197828</ele>
        <time>2016-02-20T11:25:26Z</time>
      </trkpt>
      <trkpt lat="45.37437" lon="5.80634">
        <ele>1803.176197828</ele>
        <time>2016-02-20T11:25:29Z</time>
      </trkpt>
      <trkpt lat="45.37437" lon="5.80633">
        <ele>1803.176197828</ele>
        <time>2016-02-20T11:25:45Z</time>
      </trkpt>
      <trkpt lat="45.37436" lon="5.80632">
        <ele>1803.176197828</ele>
        <time>2016-02-20T11:25:50Z</time>
      </trkpt>
      <trkpt lat="45.37437" lon="5.80631">
        <ele>1803.176197828</ele>
        <time>2016-02-20T11:26:00Z</time>
      </trkpt>
      <trkpt lat="45.37437" lon="5.80631">
        <ele>1803.176197828</ele>
        <time>2016-02-20T11:26:06Z</time>
      </trkpt>
      <trkpt lat="45.37437" lon="5.80631">
        <ele>1806.194334186</ele>
        <time>2016-02-20T11:26:16Z</time>
      </trkpt>
      <trkpt lat="45.37438" lon="5.8063">
        <ele>1806.194334186</ele>
        <time>2016-02-20T11:26:20Z</time>
      </trkpt>
      <trkpt lat="45.37437" lon="5.8063">
        <ele>1806.194334186</ele>
        <time>2016-02-20T11:26:31Z</time>
      </trkpt>
      <trkpt lat="45.37438" lon="5.8063">
        <ele>1806.194334186</ele>
        <time>2016-02-20T11:26:36Z</time>
      </trkpt>
      <trkpt lat="45.37438" lon="5.80631">
        <ele>1806.194334186</ele>
        <time>2016-02-20T11:26:46Z</time>
      </trkpt>
      <trkpt lat="45.37438" lon="5.80631">
        <ele>1806.194334186</ele>
        <time>2016-02-20T11:26:50Z</time>
      </trkpt>
      <trkpt lat="45.37438" lon="5.80631">
        <ele>1806.194334186</ele>
        <time>2016-02-20T11:27:00Z</time>
      </trkpt>
      <trkpt lat="45.37438" lon="5.80631">
        <ele>1806.194334186</ele>
        <time>2016-02-20T11:27:06Z</time>
      </trkpt>
      <trkpt lat="45.37438" lon="5.80631">
        <ele>1806.194334186</ele>
        <time>2016-02-20T11:27:16Z</time>
      </trkpt>
      <trkpt lat="45.37438" lon="5.80631">
        <ele>1806.194334186</ele>
        <time>2016-02-20T11:27:21Z</time>
      </trkpt>
      <trkpt lat="45.37438" lon="5.80631">
        <ele>1806.194334186</ele>
        <time>2016-02-20T11:27:31Z</time>
      </trkpt>
      <trkpt lat="45.37438" lon="5.80631">
        <ele>1806.194334186</ele>
        <time>2016-02-20T11:27:36Z</time>
      </trkpt>
      <trkpt lat="45.37438" lon="5.8063">
        <ele>1806.194334186</ele>
        <time>2016-02-20T11:27:46Z</time>
      </trkpt>
      <trkpt lat="45.37438" lon="5.80631">
        <ele>1806.194334186</ele>
        <time>2016-02-20T11:27:50Z</time>
      </trkpt>
      <trkpt lat="45.37438" lon="5.8063">
        <ele>1806.194334186</ele>
        <time>2016-02-20T11:28:01Z</time>
      </trkpt>
      <trkpt lat="45.37438" lon="5.8063">
        <ele>1806.194334186</ele>
        <time>2016-02-20T11:28:05Z</time>
      </trkpt>
      <trkpt lat="45.37438" lon="5.8063">
        <ele>1806.194334186</ele>
        <time>2016-02-20T11:28:15Z</time>
      </trkpt>
      <trkpt lat="45.37438" lon="5.8063">
        <ele>1806.194334186</ele>
        <time>2016-02-20T11:28:20Z</time>
      </trkpt>
      <trkpt lat="45.37438" lon="5.80629">
        <ele>1806.194334186</ele>
        <time>2016-02-20T11:28:30Z</time>
      </trkpt>
      <trkpt lat="45.37437" lon="5.80629">
        <ele>1806.194334186</ele>
        <time>2016-02-20T11:28:35Z</time>
      </trkpt>
      <trkpt lat="45.37437" lon="5.80629">
        <ele>1806.194334186</ele>
        <time>2016-02-20T11:28:45Z</time>
      </trkpt>
      <trkpt lat="45.37437" lon="5.80629">
        <ele>1806.194334186</ele>
        <time>2016-02-20T11:28:50Z</time>
      </trkpt>
      <trkpt lat="45.37437" lon="5.80629">
        <ele>1806.194334186</ele>
        <time>2016-02-20T11:29:05Z</time>
      </trkpt>
      <trkpt lat="45.37437" lon="5.80629">
        <ele>1806.194334186</ele>
        <time>2016-02-20T11:29:10Z</time>
      </trkpt>
      <trkpt lat="45.37437" lon="5.80629">
        <ele>1806.194334186</ele>
        <time>2016-02-20T11:29:19Z</time>
      </trkpt>
      <trkpt lat="45.37437" lon="5.80629">
        <ele>1806.194334186</ele>
        <time>2016-02-20T11:29:25Z</time>
      </trkpt>
      <trkpt lat="45.37436" lon="5.80629">
        <ele>1806.194334186</ele>
        <time>2016-02-20T11:29:36Z</time>
      </trkpt>
      <trkpt lat="45.37436" lon="5.80629">
        <ele>1806.194334186</ele>
        <time>2016-02-20T11:29:41Z</time>
      </trkpt>
      <trkpt lat="45.37436" lon="5.8063">
        <ele>1806.194334186</ele>
        <time>2016-02-20T11:29:50Z</time>
      </trkpt>
      <trkpt lat="45.37436" lon="5.8063">
        <ele>1806.194334186</ele>
        <time>2016-02-20T11:29:56Z</time>
      </trkpt>
      <trkpt lat="45.37436" lon="5.8063">
        <ele>1806.194334186</ele>
        <time>2016-02-20T11:30:05Z</time>
      </trkpt>
      <trkpt lat="45.37436" lon="5.8063">
        <ele>1806.194334186</ele>
        <time>2016-02-20T11:30:11Z</time>
      </trkpt>
      <trkpt lat="45.37436" lon="5.80631">
        <ele>1809.14023021</ele>
        <time>2016-02-20T11:30:21Z</time>
      </trkpt>
      <trkpt lat="45.37436" lon="5.80631">
        <ele>1809.14023021</ele>
        <time>2016-02-20T11:30:25Z</time>
      </trkpt>
      <trkpt lat="45.37436" lon="5.80632">
        <ele>1809.14023021</ele>
        <time>2016-02-20T11:30:35Z</time>
      </trkpt>
      <trkpt lat="45.37438" lon="5.80631">
        <ele>1809.14023021</ele>
        <time>2016-02-20T11:30:40Z</time>
      </trkpt>
      <trkpt lat="45.37438" lon="5.80632">
        <ele>1809.14023021</ele>
        <time>2016-02-20T11:30:50Z</time>
      </trkpt>
      <trkpt lat="45.37438" lon="5.80632">
        <ele>1809.14023021</ele>
        <time>2016-02-20T11:30:56Z</time>
      </trkpt>
      <trkpt lat="45.37438" lon="5.80632">
        <ele>1809.14023021</ele>
        <time>2016-02-20T11:31:05Z</time>
      </trkpt>
      <trkpt lat="45.37438" lon="5.80632">
        <ele>1809.14023021</ele>
        <time>2016-02-20T11:31:10Z</time>
      </trkpt>
      <trkpt lat="45.37439" lon="5.80631">
        <ele>1809.14023021</ele>
        <time>2016-02-20T11:31:21Z</time>
      </trkpt>
      <trkpt lat="45.3744" lon="5.80631">
        <ele>1809.14023021</ele>
        <time>2016-02-20T11:31:25Z</time>
      </trkpt>
      <trkpt lat="45.3744" lon="5.80631">
        <ele>1809.14023021</ele>
        <time>2016-02-20T11:31:36Z</time>
      </trkpt>
      <trkpt lat="45.3744" lon="5.80631">
        <ele>1809.14023021</ele>
        <time>2016-02-20T11:31:40Z</time>
      </trkpt>
      <trkpt lat="45.3744" lon="5.80631">
        <ele>1809.14023021</ele>
        <time>2016-02-20T11:31:56Z</time>
      </trkpt>
      <trkpt lat="45.3744" lon="5.80631">
        <ele>1809.14023021</ele>
        <time>2016-02-20T11:32:11Z</time>
      </trkpt>
      <trkpt lat="45.3744" lon="5.80631">
        <ele>1809.14023021</ele>
        <time>2016-02-20T11:32:15Z</time>
      </trkpt>
      <trkpt lat="45.3744" lon="5.80631">
        <ele>1809.14023021</ele>
        <time>2016-02-20T11:32:26Z</time>
      </trkpt>
      <trkpt lat="45.3744" lon="5.80631">
        <ele>1809.14023021</ele>
        <time>2016-02-20T11:32:30Z</time>
      </trkpt>
      <trkpt lat="45.3744" lon="5.80631">
        <ele>1809.14023021</ele>
        <time>2016-02-20T11:32:40Z</time>
      </trkpt>
      <trkpt lat="45.3744" lon="5.80631">
        <ele>1809.14023021</ele>
        <time>2016-02-20T11:32:44Z</time>
      </trkpt>
      <trkpt lat="45.3744" lon="5.80631">
        <ele>1809.14023021</ele>
        <time>2016-02-20T11:32:55Z</time>
      </trkpt>
      <trkpt lat="45.3744" lon="5.80631">
        <ele>1809.14023021</ele>
        <time>2016-02-20T11:32:59Z</time>
      </trkpt>
      <trkpt lat="45.3744" lon="5.80631">
        <ele>1809.14023021</ele>
        <time>2016-02-20T11:33:11Z</time>
      </trkpt>
      <trkpt lat="45.3744" lon="5.80631">
        <ele>1809.14023021</ele>
        <time>2016-02-20T11:33:16Z</time>
      </trkpt>
      <trkpt lat="45.3744" lon="5.80631">
        <ele>1809.14023021</ele>
        <time>2016-02-20T11:33:26Z</time>
      </trkpt>
      <trkpt lat="45.37441" lon="5.80632">
        <ele>1809.14023021</ele>
        <time>2016-02-20T11:33:30Z</time>
      </trkpt>
      <trkpt lat="45.37439" lon="5.80631">
        <ele>1809.14023021</ele>
        <time>2016-02-20T11:33:40Z</time>
      </trkpt>
      <trkpt lat="45.37439" lon="5.80631">
        <ele>1809.14023021</ele>
        <time>2016-02-20T11:33:45Z</time>
      </trkpt>
      <trkpt lat="45.37439" lon="5.80632">
        <ele>1809.14023021</ele>
        <time>2016-02-20T11:33:56Z</time>
      </trkpt>
      <trkpt lat="45.37439" lon="5.80632">
        <ele>1811.589442945</ele>
        <time>2016-02-20T11:34:00Z</time>
      </trkpt>
      <trkpt lat="45.37439" lon="5.80632">
        <ele>1811.589442945</ele>
        <time>2016-02-20T11:34:10Z</time>
      </trkpt>
      <trkpt lat="45.37439" lon="5.80632">
        <ele>1811.589442945</ele>
        <time>2016-02-20T11:34:15Z</time>
      </trkpt>
      <trkpt lat="45.37439" lon="5.80632">
        <ele>1811.589442945</ele>
        <time>2016-02-20T11:34:26Z</time>
      </trkpt>
      <trkpt lat="45.37439" lon="5.80632">
        <ele>1811.589442945</ele>
        <time>2016-02-20T11:34:30Z</time>
      </trkpt>
      <trkpt lat="45.37439" lon="5.80632">
        <ele>1811.589442945</ele>
        <time>2016-02-20T11:34:40Z</time>
      </trkpt>
      <trkpt lat="45.37439" lon="5.80632">
        <ele>1811.589442945</ele>
        <time>2016-02-20T11:34:45Z</time>
      </trkpt>
      <trkpt lat="45.37439" lon="5.80632">
        <ele>1811.589442945</ele>
        <time>2016-02-20T11:34:55Z</time>
      </trkpt>
      <trkpt lat="45.37439" lon="5.80632">
        <ele>1811.589442945</ele>
        <time>2016-02-20T11:35:01Z</time>
      </trkpt>
      <trkpt lat="45.37439" lon="5.80632">
        <ele>1811.589442945</ele>
        <time>2016-02-20T11:35:05Z</time>
      </trkpt>
      <trkpt lat="45.37439" lon="5.80633">
        <ele>1811.589442945</ele>
        <time>2016-02-20T11:35:16Z</time>
      </trkpt>
      <trkpt lat="45.3744" lon="5.80633">
        <ele>1811.589442945</ele>
        <time>2016-02-20T11:35:20Z</time>
      </trkpt>
      <trkpt lat="45.37439" lon="5.80632">
        <ele>1811.589442945</ele>
        <time>2016-02-20T11:35:30Z</time>
      </trkpt>
      <trkpt lat="45.37439" lon="5.80632">
        <ele>1811.589442945</ele>
        <time>2016-02-20T11:35:35Z</time>
      </trkpt>
      <trkpt lat="45.37439" lon="5.80632">
        <ele>1811.589442945</ele>
        <time>2016-02-20T11:35:45Z</time>
      </trkpt>
      <trkpt lat="45.3744" lon="5.80633">
        <ele>1811.589442945</ele>
        <time>2016-02-20T11:35:51Z</time>
      </trkpt>
      <trkpt lat="45.3744" lon="5.80633">
        <ele>1811.589442945</ele>
        <time>2016-02-20T11:35:59Z</time>
      </trkpt>
      <trkpt lat="45.3744" lon="5.80633">
        <ele>1811.589442945</ele>
        <time>2016-02-20T11:36:05Z</time>
      </trkpt>
      <trkpt lat="45.37441" lon="5.80633">
        <ele>1811.589442945</ele>
        <time>2016-02-20T11:36:15Z</time>
      </trkpt>
      <trkpt lat="45.37441" lon="5.80633">
        <ele>1811.589442945</ele>
        <time>2016-02-20T11:36:20Z</time>
      </trkpt>
      <trkpt lat="45.37441" lon="5.80633">
        <ele>1811.589442945</ele>
        <time>2016-02-20T11:36:30Z</time>
      </trkpt>
      <trkpt lat="45.37441" lon="5.80633">
        <ele>1811.589442945</ele>
        <time>2016-02-20T11:36:36Z</time>
      </trkpt>
      <trkpt lat="45.3744" lon="5.80633">
        <ele>1811.589442945</ele>
        <time>2016-02-20T11:36:46Z</time>
      </trkpt>
      <trkpt lat="45.3744" lon="5.80633">
        <ele>1811.589442945</ele>
        <time>2016-02-20T11:36:50Z</time>
      </trkpt>
      <trkpt lat="45.3744" lon="5.80633">
        <ele>1811.589442945</ele>
        <time>2016-02-20T11:37:01Z</time>
      </trkpt>
      <trkpt lat="45.3744" lon="5.80633">
        <ele>1811.589442945</ele>
        <time>2016-02-20T11:37:05Z</time>
      </trkpt>
      <trkpt lat="45.3744" lon="5.80633">
        <ele>1811.589442945</ele>
        <time>2016-02-20T11:37:16Z</time>
      </trkpt>
      <trkpt lat="45.3744" lon="5.80633">
        <ele>1811.589442945</ele>
        <time>2016-02-20T11:37:20Z</time>
      </trkpt>
      <trkpt lat="45.3744" lon="5.80633">
        <ele>1811.589442945</ele>
        <time>2016-02-20T11:37:36Z</time>
      </trkpt>
      <trkpt lat="45.3744" lon="5.80633">
        <ele>1811.589442945</ele>
        <time>2016-02-20T11:37:40Z</time>
      </trkpt>
      <trkpt lat="45.3744" lon="5.80633">
        <ele>1811.589442945</ele>
        <time>2016-02-20T11:37:50Z</time>
      </trkpt>
      <trkpt lat="45.3744" lon="5.80633">
        <ele>1811.589442945</ele>
        <time>2016-02-20T11:37:56Z</time>
      </trkpt>
      <trkpt lat="45.3744" lon="5.80633">
        <ele>1811.589442945</ele>
        <time>2016-02-20T11:38:05Z</time>
      </trkpt>
      <trkpt lat="45.3744" lon="5.80633">
        <ele>1811.589442945</ele>
        <time>2016-02-20T11:38:11Z</time>
      </trkpt>
      <trkpt lat="45.3744" lon="5.80633">
        <ele>1811.589442945</ele>
        <time>2016-02-20T11:38:21Z</time>
      </trkpt>
      <trkpt lat="45.3744" lon="5.80633">
        <ele>1811.589442945</ele>
        <time>2016-02-20T11:38:25Z</time>
      </trkpt>
      <trkpt lat="45.3744" lon="5.80633">
        <ele>1811.589442945</ele>
        <time>2016-02-20T11:38:41Z</time>
      </trkpt>
      <trkpt lat="45.3744" lon="5.80633">
        <ele>1811.589442945</ele>
        <time>2016-02-20T11:38:56Z</time>
      </trkpt>
      <trkpt lat="45.3744" lon="5.80633">
        <ele>1811.589442945</ele>
        <time>2016-02-20T11:39:01Z</time>
      </trkpt>
      <trkpt lat="45.3744" lon="5.80633">
        <ele>1811.589442945</ele>
        <time>2016-02-20T11:39:10Z</time>
      </trkpt>
      <trkpt lat="45.37439" lon="5.80635">
        <ele>1811.589442945</ele>
        <time>2016-02-20T11:39:15Z</time>
      </trkpt>
      <trkpt lat="45.37439" lon="5.80634">
        <ele>1811.589442945</ele>
        <time>2016-02-20T11:39:25Z</time>
      </trkpt>
      <trkpt lat="45.37439" lon="5.80634">
        <ele>1811.589442945</ele>
        <time>2016-02-20T11:39:30Z</time>
      </trkpt>
      <trkpt lat="45.37439" lon="5.80634">
        <ele>1811.589442945</ele>
        <time>2016-02-20T11:39:39Z</time>
      </trkpt>
      <trkpt lat="45.37439" lon="5.80634">
        <ele>1811.589442945</ele>
        <time>2016-02-20T11:39:45Z</time>
      </trkpt>
      <trkpt lat="45.3744" lon="5.80634">
        <ele>1811.589442945</ele>
        <time>2016-02-20T11:39:49Z</time>
      </trkpt>
      <trkpt lat="45.37439" lon="5.80632">
        <ele>1814.01478788</ele>
        <time>2016-02-20T11:39:55Z</time>
      </trkpt>
      <trkpt lat="45.37439" lon="5.80632">
        <ele>1814.01478788</ele>
        <time>2016-02-20T11:39:59Z</time>
      </trkpt>
      <trkpt lat="45.37439" lon="5.80632">
        <ele>1814.01478788</ele>
        <time>2016-02-20T11:40:10Z</time>
      </trkpt>
      <trkpt lat="45.37439" lon="5.80632">
        <ele>1814.01478788</ele>
        <time>2016-02-20T11:40:15Z</time>
      </trkpt>
      <trkpt lat="45.37439" lon="5.80632">
        <ele>1814.01478788</ele>
        <time>2016-02-20T11:40:25Z</time>
      </trkpt>
      <trkpt lat="45.37439" lon="5.80632">
        <ele>1814.01478788</ele>
        <time>2016-02-20T11:40:30Z</time>
      </trkpt>
      <trkpt lat="45.37439" lon="5.80632">
        <ele>1814.01478788</ele>
        <time>2016-02-20T11:40:41Z</time>
      </trkpt>
      <trkpt lat="45.37439" lon="5.80632">
        <ele>1814.01478788</ele>
        <time>2016-02-20T11:40:46Z</time>
      </trkpt>
      <trkpt lat="45.37439" lon="5.80632">
        <ele>1814.01478788</ele>
        <time>2016-02-20T11:40:50Z</time>
      </trkpt>
      <trkpt lat="45.37439" lon="5.80632">
        <ele>1814.01478788</ele>
        <time>2016-02-20T11:41:00Z</time>
      </trkpt>
      <trkpt lat="45.37439" lon="5.80632">
        <ele>1814.01478788</ele>
        <time>2016-02-20T11:41:16Z</time>
      </trkpt>
      <trkpt lat="45.37439" lon="5.80632">
        <ele>1814.01478788</ele>
        <time>2016-02-20T11:41:20Z</time>
      </trkpt>
      <trkpt lat="45.37439" lon="5.80632">
        <ele>1814.01478788</ele>
        <time>2016-02-20T11:41:31Z</time>
      </trkpt>
      <trkpt lat="45.37439" lon="5.80632">
        <ele>1814.01478788</ele>
        <time>2016-02-20T11:41:35Z</time>
      </trkpt>
      <trkpt lat="45.37439" lon="5.80632">
        <ele>1814.01478788</ele>
        <time>2016-02-20T11:41:45Z</time>
      </trkpt>
      <trkpt lat="45.37439" lon="5.80632">
        <ele>1814.01478788</ele>
        <time>2016-02-20T11:41:51Z</time>
      </trkpt>
      <trkpt lat="45.37439" lon="5.80632">
        <ele>1814.01478788</ele>
        <time>2016-02-20T11:42:01Z</time>
      </trkpt>
      <trkpt lat="45.37439" lon="5.80632">
        <ele>1814.01478788</ele>
        <time>2016-02-20T11:42:05Z</time>
      </trkpt>
      <trkpt lat="45.37439" lon="5.80632">
        <ele>1814.01478788</ele>
        <time>2016-02-20T11:42:15Z</time>
      </trkpt>
      <trkpt lat="45.37439" lon="5.80632">
        <ele>1814.01478788</ele>
        <time>2016-02-20T11:42:21Z</time>
      </trkpt>
      <trkpt lat="45.37439" lon="5.80632">
        <ele>1814.01478788</ele>
        <time>2016-02-20T11:42:31Z</time>
      </trkpt>
      <trkpt lat="45.37439" lon="5.80632">
        <ele>1814.01478788</ele>
        <time>2016-02-20T11:42:35Z</time>
      </trkpt>
      <trkpt lat="45.37439" lon="5.80632">
        <ele>1814.01478788</ele>
        <time>2016-02-20T11:42:45Z</time>
      </trkpt>
      <trkpt lat="45.37439" lon="5.80632">
        <ele>1814.01478788</ele>
        <time>2016-02-20T11:42:51Z</time>
      </trkpt>
      <trkpt lat="45.37439" lon="5.80634">
        <ele>1814.01478788</ele>
        <time>2016-02-20T11:43:01Z</time>
      </trkpt>
      <trkpt lat="45.37439" lon="5.80634">
        <ele>1814.01478788</ele>
        <time>2016-02-20T11:43:05Z</time>
      </trkpt>
      <trkpt lat="45.37439" lon="5.80634">
        <ele>1814.01478788</ele>
        <time>2016-02-20T11:43:20Z</time>
      </trkpt>
      <trkpt lat="45.37439" lon="5.80634">
        <ele>1814.01478788</ele>
        <time>2016-02-20T11:43:24Z</time>
      </trkpt>
      <trkpt lat="45.37439" lon="5.80634">
        <ele>1814.01478788</ele>
        <time>2016-02-20T11:43:36Z</time>
      </trkpt>
      <trkpt lat="45.37439" lon="5.80634">
        <ele>1814.01478788</ele>
        <time>2016-02-20T11:43:40Z</time>
      </trkpt>
      <trkpt lat="45.37439" lon="5.80634">
        <ele>1814.01478788</ele>
        <time>2016-02-20T11:43:51Z</time>
      </trkpt>
      <trkpt lat="45.37439" lon="5.80634">
        <ele>1814.01478788</ele>
        <time>2016-02-20T11:43:55Z</time>
      </trkpt>
      <trkpt lat="45.37439" lon="5.80634">
        <ele>1814.01478788</ele>
        <time>2016-02-20T11:44:06Z</time>
      </trkpt>
      <trkpt lat="45.37439" lon="5.80634">
        <ele>1814.01478788</ele>
        <time>2016-02-20T11:44:11Z</time>
      </trkpt>
      <trkpt lat="45.37439" lon="5.80634">
        <ele>1814.01478788</ele>
        <time>2016-02-20T11:44:21Z</time>
      </trkpt>
      <trkpt lat="45.37439" lon="5.80634">
        <ele>1814.01478788</ele>
        <time>2016-02-20T11:44:25Z</time>
      </trkpt>
      <trkpt lat="45.37439" lon="5.80634">
        <ele>1814.01478788</ele>
        <time>2016-02-20T11:44:35Z</time>
      </trkpt>
      <trkpt lat="45.37439" lon="5.80634">
        <ele>1814.01478788</ele>
        <time>2016-02-20T11:44:40Z</time>
      </trkpt>
      <trkpt lat="45.37439" lon="5.80635">
        <ele>1814.01478788</ele>
        <time>2016-02-20T11:44:51Z</time>
      </trkpt>
      <trkpt lat="45.37439" lon="5.80635">
        <ele>1814.01478788</ele>
        <time>2016-02-20T11:44:55Z</time>
      </trkpt>
      <trkpt lat="45.37439" lon="5.80635">
        <ele>1814.01478788</ele>
        <time>2016-02-20T11:45:06Z</time>
      </trkpt>
      <trkpt lat="45.37439" lon="5.80635">
        <ele>1814.01478788</ele>
        <time>2016-02-20T11:45:10Z</time>
      </trkpt>
      <trkpt lat="45.37439" lon="5.80635">
        <ele>1814.01478788</ele>
        <time>2016-02-20T11:45:21Z</time>
      </trkpt>
      <trkpt lat="45.37439" lon="5.80635">
        <ele>1814.01478788</ele>
        <time>2016-02-20T11:45:26Z</time>
      </trkpt>
      <trkpt lat="45.37439" lon="5.80635">
        <ele>1814.01478788</ele>
        <time>2016-02-20T11:45:36Z</time>
      </trkpt>
      <trkpt lat="45.37439" lon="5.80635">
        <ele>1814.01478788</ele>
        <time>2016-02-20T11:45:41Z</time>
      </trkpt>
      <trkpt lat="45.37439" lon="5.80635">
        <ele>1814.01478788</ele>
        <time>2016-02-20T11:45:51Z</time>
      </trkpt>
      <trkpt lat="45.37439" lon="5.80635">
        <ele>1814.01478788</ele>
        <time>2016-02-20T11:45:55Z</time>
      </trkpt>
      <trkpt lat="45.37439" lon="5.80635">
        <ele>1814.01478788</ele>
        <time>2016-02-20T11:46:06Z</time>
      </trkpt>
      <trkpt lat="45.37439" lon="5.80635">
        <ele>1814.01478788</ele>
        <time>2016-02-20T11:46:10Z</time>
      </trkpt>
      <trkpt lat="45.37439" lon="5.80635">
        <ele>1814.01478788</ele>
        <time>2016-02-20T11:46:21Z</time>
      </trkpt>
      <trkpt lat="45.37439" lon="5.80635">
        <ele>1814.01478788</ele>
        <time>2016-02-20T11:46:25Z</time>
      </trkpt>
      <trkpt lat="45.37439" lon="5.80635">
        <ele>1814.01478788</ele>
        <time>2016-02-20T11:46:36Z</time>
      </trkpt>
      <trkpt lat="45.37439" lon="5.80635">
        <ele>1814.01478788</ele>
        <time>2016-02-20T11:46:40Z</time>
      </trkpt>
      <trkpt lat="45.37439" lon="5.80635">
        <ele>1814.01478788</ele>
        <time>2016-02-20T11:46:51Z</time>
      </trkpt>
      <trkpt lat="45.37439" lon="5.80635">
        <ele>1814.01478788</ele>
        <time>2016-02-20T11:46:55Z</time>
      </trkpt>
      <trkpt lat="45.37439" lon="5.80635">
        <ele>1814.01478788</ele>
        <time>2016-02-20T11:47:10Z</time>
      </trkpt>
      <trkpt lat="45.37439" lon="5.80635">
        <ele>1814.01478788</ele>
        <time>2016-02-20T11:47:16Z</time>
      </trkpt>
      <trkpt lat="45.37439" lon="5.80634">
        <ele>1814.01478788</ele>
        <time>2016-02-20T11:47:26Z</time>
      </trkpt>
      <trkpt lat="45.37439" lon="5.80634">
        <ele>1814.01478788</ele>
        <time>2016-02-20T11:47:30Z</time>
      </trkpt>
      <trkpt lat="45.37438" lon="5.80634">
        <ele>1814.01478788</ele>
        <time>2016-02-20T11:47:40Z</time>
      </trkpt>
      <trkpt lat="45.37438" lon="5.80634">
        <ele>1814.01478788</ele>
        <time>2016-02-20T11:47:44Z</time>
      </trkpt>
      <trkpt lat="45.37438" lon="5.80634">
        <ele>1814.01478788</ele>
        <time>2016-02-20T11:47:55Z</time>
      </trkpt>
      <trkpt lat="45.37438" lon="5.80634">
        <ele>1814.01478788</ele>
        <time>2016-02-20T11:47:59Z</time>
      </trkpt>
      <trkpt lat="45.37438" lon="5.80634">
        <ele>1814.01478788</ele>
        <time>2016-02-20T11:48:09Z</time>
      </trkpt>
      <trkpt lat="45.37438" lon="5.80634">
        <ele>1814.01478788</ele>
        <time>2016-02-20T11:48:15Z</time>
      </trkpt>
      <trkpt lat="45.37438" lon="5.80634">
        <ele>1814.01478788</ele>
        <time>2016-02-20T11:48:26Z</time>
      </trkpt>
      <trkpt lat="45.37438" lon="5.80634">
        <ele>1814.01478788</ele>
        <time>2016-02-20T11:48:30Z</time>
      </trkpt>
      <trkpt lat="45.37437" lon="5.80634">
        <ele>1814.01478788</ele>
        <time>2016-02-20T11:48:41Z</time>
      </trkpt>
      <trkpt lat="45.37437" lon="5.80634">
        <ele>1814.01478788</ele>
        <time>2016-02-20T11:48:47Z</time>
      </trkpt>
      <trkpt lat="45.37437" lon="5.80634">
        <ele>1814.01478788</ele>
        <time>2016-02-20T11:48:56Z</time>
      </trkpt>
      <trkpt lat="45.37437" lon="5.80634">
        <ele>1814.01478788</ele>
        <time>2016-02-20T11:49:00Z</time>
      </trkpt>
      <trkpt lat="45.37437" lon="5.80634">
        <ele>1814.01478788</ele>
        <time>2016-02-20T11:49:11Z</time>
      </trkpt>
      <trkpt lat="45.37437" lon="5.80634">
        <ele>1814.01478788</ele>
        <time>2016-02-20T11:49:15Z</time>
      </trkpt>
      <trkpt lat="45.37437" lon="5.80634">
        <ele>1814.01478788</ele>
        <time>2016-02-20T11:49:30Z</time>
      </trkpt>
      <trkpt lat="45.37437" lon="5.80634">
        <ele>1814.01478788</ele>
        <time>2016-02-20T11:49:36Z</time>
      </trkpt>
      <trkpt lat="45.37437" lon="5.80634">
        <ele>1814.01478788</ele>
        <time>2016-02-20T11:49:46Z</time>
      </trkpt>
      <trkpt lat="45.37437" lon="5.80634">
        <ele>1814.01478788</ele>
        <time>2016-02-20T11:49:50Z</time>
      </trkpt>
      <trkpt lat="45.37438" lon="5.80638">
        <ele>1816.133865284</ele>
        <time>2016-02-20T11:50:01Z</time>
      </trkpt>
      <trkpt lat="45.37438" lon="5.80638">
        <ele>1816.133865284</ele>
        <time>2016-02-20T11:50:06Z</time>
      </trkpt>
      <trkpt lat="45.37439" lon="5.80638">
        <ele>1816.133865284</ele>
        <time>2016-02-20T11:50:15Z</time>
      </trkpt>
      <trkpt lat="45.37439" lon="5.80638">
        <ele>1816.133865284</ele>
        <time>2016-02-20T11:50:20Z</time>
      </trkpt>
      <trkpt lat="45.37439" lon="5.80638">
        <ele>1816.133865284</ele>
        <time>2016-02-20T11:50:31Z</time>
      </trkpt>
      <trkpt lat="45.37442" lon="5.80638">
        <ele>1816.133865284</ele>
        <time>2016-02-20T11:50:35Z</time>
      </trkpt>
      <trkpt lat="45.37454" lon="5.80715">
        <ele>1814.803643601</ele>
        <time>2016-02-20T11:50:46Z</time>
      </trkpt>
      <trkpt lat="45.37463" lon="5.8074">
        <ele>1812.453728147</ele>
        <time>2016-02-20T11:50:50Z</time>
      </trkpt>
      <trkpt lat="45.37469" lon="5.80762">
        <ele>1809.464590962</ele>
        <time>2016-02-20T11:51:00Z</time>
      </trkpt>
      <trkpt lat="45.37471" lon="5.80762">
        <ele>1809.464590962</ele>
        <time>2016-02-20T11:51:05Z</time>
      </trkpt>
      <trkpt lat="45.37471" lon="5.80761">
        <ele>1809.464590962</ele>
        <time>2016-02-20T11:51:16Z</time>
      </trkpt>
      <trkpt lat="45.37471" lon="5.80761">
        <ele>1809.464590962</ele>
        <time>2016-02-20T11:51:21Z</time>
      </trkpt>
      <trkpt lat="45.37471" lon="5.80761">
        <ele>1809.464590962</ele>
        <time>2016-02-20T11:51:31Z</time>
      </trkpt>
      <trkpt lat="45.37471" lon="5.80761">
        <ele>1809.464590962</ele>
        <time>2016-02-20T11:51:35Z</time>
      </trkpt>
      <trkpt lat="45.37471" lon="5.80761">
        <ele>1809.464590962</ele>
        <time>2016-02-20T11:51:51Z</time>
      </trkpt>
      <trkpt lat="45.37471" lon="5.80761">
        <ele>1809.464590962</ele>
        <time>2016-02-20T11:51:56Z</time>
      </trkpt>
      <trkpt lat="45.37481" lon="5.8077">
        <ele>1805.902212521</ele>
        <time>2016-02-20T11:52:05Z</time>
      </trkpt>
      <trkpt lat="45.37496" lon="5.80785">
        <ele>1801.829173274</ele>
        <time>2016-02-20T11:52:09Z</time>
      </trkpt>
      <trkpt lat="45.3753" lon="5.80837">
        <ele>1796.72823296</ele>
        <time>2016-02-20T11:52:19Z</time>
      </trkpt>
      <trkpt lat="45.37549" lon="5.80849">
        <ele>1791.275658109</ele>
        <time>2016-02-20T11:52:24Z</time>
      </trkpt>
      <trkpt lat="45.37595" lon="5.80873">
        <ele>1783.504705719</ele>
        <time>2016-02-20T11:52:36Z</time>
      </trkpt>
      <trkpt lat="45.37613" lon="5.80895">
        <ele>1775.778463377</ele>
        <time>2016-02-20T11:52:40Z</time>
      </trkpt>
      <trkpt lat="45.37611" lon="5.80898">
        <ele>1775.778463377</ele>
        <time>2016-02-20T11:52:50Z</time>
      </trkpt>
      <trkpt lat="45.37612" lon="5.80898">
        <ele>1775.778463377</ele>
        <time>2016-02-20T11:52:55Z</time>
      </trkpt>
      <trkpt lat="45.37612" lon="5.80898">
        <ele>1775.778463377</ele>
        <time>2016-02-20T11:53:05Z</time>
      </trkpt>
      <trkpt lat="45.37612" lon="5.80898">
        <ele>1775.778463377</ele>
        <time>2016-02-20T11:53:11Z</time>
      </trkpt>
      <trkpt lat="45.37631" lon="5.80911">
        <ele>1766.53897916</ele>
        <time>2016-02-20T11:53:20Z</time>
      </trkpt>
      <trkpt lat="45.37648" lon="5.80927">
        <ele>1757.372833221</ele>
        <time>2016-02-20T11:53:25Z</time>
      </trkpt>
      <trkpt lat="45.37674" lon="5.8096">
        <ele>1746.578847576</ele>
        <time>2016-02-20T11:53:37Z</time>
      </trkpt>
      <trkpt lat="45.37676" lon="5.80959">
        <ele>1746.578847576</ele>
        <time>2016-02-20T11:53:40Z</time>
      </trkpt>
      <trkpt lat="45.37678" lon="5.80959">
        <ele>1746.578847576</ele>
        <time>2016-02-20T11:53:51Z</time>
      </trkpt>
      <trkpt lat="45.37685" lon="5.80972">
        <ele>1736.331649921</ele>
        <time>2016-02-20T11:53:55Z</time>
      </trkpt>
      <trkpt lat="45.37686" lon="5.80987">
        <ele>1725.905796723</ele>
        <time>2016-02-20T11:54:00Z</time>
      </trkpt>
      <trkpt lat="45.37697" lon="5.81029">
        <ele>1715.493569806</ele>
        <time>2016-02-20T11:54:10Z</time>
      </trkpt>
      <trkpt lat="45.37708" lon="5.81047">
        <ele>1705.560527316</ele>
        <time>2016-02-20T11:54:16Z</time>
      </trkpt>
      <trkpt lat="45.37739" lon="5.81052">
        <ele>1695.527080096</ele>
        <time>2016-02-20T11:54:25Z</time>
      </trkpt>
      <trkpt lat="45.37748" lon="5.8106">
        <ele>1686.008525896</ele>
        <time>2016-02-20T11:54:31Z</time>
      </trkpt>
      <trkpt lat="45.37781" lon="5.81081">
        <ele>1675.699183339</ele>
        <time>2016-02-20T11:54:40Z</time>
      </trkpt>
      <trkpt lat="45.37808" lon="5.81088">
        <ele>1665.264034508</ele>
        <time>2016-02-20T11:54:45Z</time>
      </trkpt>
      <trkpt lat="45.37865" lon="5.81115">
        <ele>1654.74218489</ele>
        <time>2016-02-20T11:54:55Z</time>
      </trkpt>
      <trkpt lat="45.37895" lon="5.81129">
        <ele>1644.889714067</ele>
        <time>2016-02-20T11:55:01Z</time>
      </trkpt>
      <trkpt lat="45.37974" lon="5.81174">
        <ele>1635.539651144</ele>
        <time>2016-02-20T11:55:10Z</time>
      </trkpt>
      <trkpt lat="45.38001" lon="5.81184">
        <ele>1626.679022262</ele>
        <time>2016-02-20T11:55:15Z</time>
      </trkpt>
      <trkpt lat="45.38062" lon="5.81196">
        <ele>1617.717018927</ele>
        <time>2016-02-20T11:55:31Z</time>
      </trkpt>
      <trkpt lat="45.38072" lon="5.812">
        <ele>1609.402555085</ele>
        <time>2016-02-20T11:55:35Z</time>
      </trkpt>
      <trkpt lat="45.38089" lon="5.81206">
        <ele>1602.282653199</ele>
        <time>2016-02-20T11:55:49Z</time>
      </trkpt>
      <trkpt lat="45.38086" lon="5.81204">
        <ele>1602.282653199</ele>
        <time>2016-02-20T11:55:49Z</time>
      </trkpt>
      <trkpt lat="45.38083" lon="5.81201">
        <ele>1602.282653199</ele>
        <time>2016-02-20T11:56:00Z</time>
      </trkpt>
      <trkpt lat="45.38081" lon="5.81201">
        <ele>1595.562870982</ele>
        <time>2016-02-20T11:56:05Z</time>
      </trkpt>
      <trkpt lat="45.38081" lon="5.812">
        <ele>1595.562870982</ele>
        <time>2016-02-20T11:56:15Z</time>
      </trkpt>
      <trkpt lat="45.38081" lon="5.812">
        <ele>1595.562870982</ele>
        <time>2016-02-20T11:56:20Z</time>
      </trkpt>
      <trkpt lat="45.38081" lon="5.812">
        <ele>1595.562870982</ele>
        <time>2016-02-20T11:56:31Z</time>
      </trkpt>
      <trkpt lat="45.38081" lon="5.812">
        <ele>1595.562870982</ele>
        <time>2016-02-20T11:56:37Z</time>
      </trkpt>
      <trkpt lat="45.38081" lon="5.812">
        <ele>1595.562870982</ele>
        <time>2016-02-20T11:56:45Z</time>
      </trkpt>
      <trkpt lat="45.38081" lon="5.812">
        <ele>1595.562870982</ele>
        <time>2016-02-20T11:56:49Z</time>
      </trkpt>
      <trkpt lat="45.38081" lon="5.812">
        <ele>1595.562870982</ele>
        <time>2016-02-20T11:57:00Z</time>
      </trkpt>
      <trkpt lat="45.38081" lon="5.812">
        <ele>1595.562870982</ele>
        <time>2016-02-20T11:57:05Z</time>
      </trkpt>
      <trkpt lat="45.38081" lon="5.812">
        <ele>1595.562870982</ele>
        <time>2016-02-20T11:57:16Z</time>
      </trkpt>
      <trkpt lat="45.38081" lon="5.812">
        <ele>1595.562870982</ele>
        <time>2016-02-20T11:57:20Z</time>
      </trkpt>
      <trkpt lat="45.38081" lon="5.812">
        <ele>1595.562870982</ele>
        <time>2016-02-20T11:57:36Z</time>
      </trkpt>
      <trkpt lat="45.38081" lon="5.812">
        <ele>1595.562870982</ele>
        <time>2016-02-20T11:57:40Z</time>
      </trkpt>
      <trkpt lat="45.38081" lon="5.81201">
        <ele>1595.562870982</ele>
        <time>2016-02-20T11:57:51Z</time>
      </trkpt>
      <trkpt lat="45.38081" lon="5.81201">
        <ele>1595.562870982</ele>
        <time>2016-02-20T11:57:56Z</time>
      </trkpt>
      <trkpt lat="45.38081" lon="5.81201">
        <ele>1595.562870982</ele>
        <time>2016-02-20T11:58:06Z</time>
      </trkpt>
      <trkpt lat="45.38081" lon="5.81201">
        <ele>1595.562870982</ele>
        <time>2016-02-20T11:58:10Z</time>
      </trkpt>
      <trkpt lat="45.3808" lon="5.81201">
        <ele>1595.562870982</ele>
        <time>2016-02-20T11:58:21Z</time>
      </trkpt>
      <trkpt lat="45.3808" lon="5.81201">
        <ele>1595.562870982</ele>
        <time>2016-02-20T11:58:25Z</time>
      </trkpt>
      <trkpt lat="45.3808" lon="5.81201">
        <ele>1595.562870982</ele>
        <time>2016-02-20T11:58:35Z</time>
      </trkpt>
      <trkpt lat="45.3808" lon="5.81201">
        <ele>1595.562870982</ele>
        <time>2016-02-20T11:58:40Z</time>
      </trkpt>
      <trkpt lat="45.3808" lon="5.81201">
        <ele>1595.562870982</ele>
        <time>2016-02-20T11:58:56Z</time>
      </trkpt>
      <trkpt lat="45.3808" lon="5.81202">
        <ele>1595.562870982</ele>
        <time>2016-02-20T11:59:11Z</time>
      </trkpt>
      <trkpt lat="45.3808" lon="5.81202">
        <ele>1595.562870982</ele>
        <time>2016-02-20T11:59:15Z</time>
      </trkpt>
      <trkpt lat="45.3808" lon="5.81202">
        <ele>1595.562870982</ele>
        <time>2016-02-20T11:59:25Z</time>
      </trkpt>
      <trkpt lat="45.3808" lon="5.81202">
        <ele>1595.562870982</ele>
        <time>2016-02-20T11:59:30Z</time>
      </trkpt>
      <trkpt lat="45.3808" lon="5.81202">
        <ele>1595.562870982</ele>
        <time>2016-02-20T11:59:40Z</time>
      </trkpt>
      <trkpt lat="45.3808" lon="5.81202">
        <ele>1595.562870982</ele>
        <time>2016-02-20T11:59:46Z</time>
      </trkpt>
      <trkpt lat="45.3808" lon="5.81202">
        <ele>1595.562870982</ele>
        <time>2016-02-20T11:59:55Z</time>
      </trkpt>
      <trkpt lat="45.3808" lon="5.81202">
        <ele>1595.562870982</ele>
        <time>2016-02-20T11:59:59Z</time>
      </trkpt>
      <trkpt lat="45.3808" lon="5.81203">
        <ele>1595.562870982</ele>
        <time>2016-02-20T12:00:09Z</time>
      </trkpt>
      <trkpt lat="45.3808" lon="5.81203">
        <ele>1595.562870982</ele>
        <time>2016-02-20T12:00:14Z</time>
      </trkpt>
      <trkpt lat="45.38079" lon="5.81204">
        <ele>1595.562870982</ele>
        <time>2016-02-20T12:00:25Z</time>
      </trkpt>
      <trkpt lat="45.38081" lon="5.81201">
        <ele>1595.562870982</ele>
        <time>2016-02-20T12:00:30Z</time>
      </trkpt>
      <trkpt lat="45.38083" lon="5.81196">
        <ele>1589.369766912</ele>
        <time>2016-02-20T12:00:40Z</time>
      </trkpt>
      <trkpt lat="45.38083" lon="5.81196">
        <ele>1589.369766912</ele>
        <time>2016-02-20T12:00:45Z</time>
      </trkpt>
      <trkpt lat="45.38083" lon="5.81196">
        <ele>1589.369766912</ele>
        <time>2016-02-20T12:01:01Z</time>
      </trkpt>
      <trkpt lat="45.38083" lon="5.81196">
        <ele>1589.369766912</ele>
        <time>2016-02-20T12:01:01Z</time>
      </trkpt>
      <trkpt lat="45.38083" lon="5.81197">
        <ele>1589.369766912</ele>
        <time>2016-02-20T12:01:20Z</time>
      </trkpt>
      <trkpt lat="45.38083" lon="5.81197">
        <ele>1589.369766912</ele>
        <time>2016-02-20T12:01:20Z</time>
      </trkpt>
      <trkpt lat="45.38078" lon="5.81202">
        <ele>1589.369766912</ele>
        <time>2016-02-20T12:02:04Z</time>
      </trkpt>
      <trkpt lat="45.38079" lon="5.81202">
        <ele>1589.369766912</ele>
        <time>2016-02-20T12:02:20Z</time>
      </trkpt>
      <trkpt lat="45.38079" lon="5.81202">
        <ele>1589.369766912</ele>
        <time>2016-02-20T12:02:25Z</time>
      </trkpt>
      <trkpt lat="45.38079" lon="5.81202">
        <ele>1589.369766912</ele>
        <time>2016-02-20T12:02:31Z</time>
      </trkpt>
      <trkpt lat="45.38079" lon="5.81202">
        <ele>1589.369766912</ele>
        <time>2016-02-20T12:02:35Z</time>
      </trkpt>
      <trkpt lat="45.38079" lon="5.81203">
        <ele>1589.369766912</ele>
        <time>2016-02-20T12:02:46Z</time>
      </trkpt>
      <trkpt lat="45.38079" lon="5.81203">
        <ele>1589.369766912</ele>
        <time>2016-02-20T12:02:50Z</time>
      </trkpt>
      <trkpt lat="45.38079" lon="5.81203">
        <ele>1589.369766912</ele>
        <time>2016-02-20T12:02:55Z</time>
      </trkpt>
      <trkpt lat="45.38079" lon="5.81203">
        <ele>1589.369766912</ele>
        <time>2016-02-20T12:03:06Z</time>
      </trkpt>
      <trkpt lat="45.38079" lon="5.81203">
        <ele>1589.369766912</ele>
        <time>2016-02-20T12:03:10Z</time>
      </trkpt>
      <trkpt lat="45.38079" lon="5.81203">
        <ele>1589.369766912</ele>
        <time>2016-02-20T12:03:20Z</time>
      </trkpt>
      <trkpt lat="45.38079" lon="5.81203">
        <ele>1589.369766912</ele>
        <time>2016-02-20T12:03:25Z</time>
      </trkpt>
      <trkpt lat="45.38079" lon="5.81203">
        <ele>1589.369766912</ele>
        <time>2016-02-20T12:03:35Z</time>
      </trkpt>
      <trkpt lat="45.38079" lon="5.81203">
        <ele>1583.385920579</ele>
        <time>2016-02-20T12:03:40Z</time>
      </trkpt>
      <trkpt lat="45.38079" lon="5.81203">
        <ele>1583.385920579</ele>
        <time>2016-02-20T12:03:50Z</time>
      </trkpt>
      <trkpt lat="45.38079" lon="5.81203">
        <ele>1583.385920579</ele>
        <time>2016-02-20T12:04:06Z</time>
      </trkpt>
      <trkpt lat="45.38079" lon="5.81204">
        <ele>1583.385920579</ele>
        <time>2016-02-20T12:04:10Z</time>
      </trkpt>
      <trkpt lat="45.38078" lon="5.81204">
        <ele>1583.385920579</ele>
        <time>2016-02-20T12:04:20Z</time>
      </trkpt>
      <trkpt lat="45.38078" lon="5.81204">
        <ele>1583.385920579</ele>
        <time>2016-02-20T12:04:25Z</time>
      </trkpt>
      <trkpt lat="45.38078" lon="5.81204">
        <ele>1583.385920579</ele>
        <time>2016-02-20T12:04:35Z</time>
      </trkpt>
      <trkpt lat="45.38078" lon="5.81204">
        <ele>1583.385920579</ele>
        <time>2016-02-20T12:04:40Z</time>
      </trkpt>
      <trkpt lat="45.38078" lon="5.81204">
        <ele>1583.385920579</ele>
        <time>2016-02-20T12:04:51Z</time>
      </trkpt>
      <trkpt lat="45.38078" lon="5.81204">
        <ele>1583.385920579</ele>
        <time>2016-02-20T12:04:55Z</time>
      </trkpt>
      <trkpt lat="45.3808" lon="5.81204">
        <ele>1583.385920579</ele>
        <time>2016-02-20T12:05:06Z</time>
      </trkpt>
      <trkpt lat="45.38083" lon="5.81205">
        <ele>1583.385920579</ele>
        <time>2016-02-20T12:05:10Z</time>
      </trkpt>
      <trkpt lat="45.38096" lon="5.81216">
        <ele>1578.324586867</ele>
        <time>2016-02-20T12:05:25Z</time>
      </trkpt>
      <trkpt lat="45.381" lon="5.8122">
        <ele>1578.324586867</ele>
        <time>2016-02-20T12:05:30Z</time>
      </trkpt>
      <trkpt lat="45.38109" lon="5.81229">
        <ele>1573.258021806</ele>
        <time>2016-02-20T12:05:41Z</time>
      </trkpt>
      <trkpt lat="45.3811" lon="5.81231">
        <ele>1573.258021806</ele>
        <time>2016-02-20T12:05:45Z</time>
      </trkpt>
      <trkpt lat="45.38113" lon="5.81236">
        <ele>1573.258021806</ele>
        <time>2016-02-20T12:05:55Z</time>
      </trkpt>
      <trkpt lat="45.38114" lon="5.81236">
        <ele>1573.258021806</ele>
        <time>2016-02-20T12:06:00Z</time>
      </trkpt>
      <trkpt lat="45.38119" lon="5.8124">
        <ele>1568.478787509</ele>
        <time>2016-02-20T12:06:10Z</time>
      </trkpt>
      <trkpt lat="45.38122" lon="5.81241">
        <ele>1568.478787509</ele>
        <time>2016-02-20T12:06:16Z</time>
      </trkpt>
      <trkpt lat="45.38124" lon="5.81243">
        <ele>1568.478787509</ele>
        <time>2016-02-20T12:06:26Z</time>
      </trkpt>
      <trkpt lat="45.38124" lon="5.81243">
        <ele>1568.478787509</ele>
        <time>2016-02-20T12:06:30Z</time>
      </trkpt>
      <trkpt lat="45.38125" lon="5.81243">
        <ele>1568.478787509</ele>
        <time>2016-02-20T12:06:41Z</time>
      </trkpt>
      <trkpt lat="45.38127" lon="5.81243">
        <ele>1568.478787509</ele>
        <time>2016-02-20T12:06:45Z</time>
      </trkpt>
      <trkpt lat="45.38132" lon="5.81247">
        <ele>1564.112333529</ele>
        <time>2016-02-20T12:06:55Z</time>
      </trkpt>
      <trkpt lat="45.38136" lon="5.81248">
        <ele>1564.112333529</ele>
        <time>2016-02-20T12:06:59Z</time>
      </trkpt>
      <trkpt lat="45.38141" lon="5.8125">
        <ele>1560.84952527</ele>
        <time>2016-02-20T12:07:10Z</time>
      </trkpt>
      <trkpt lat="45.38148" lon="5.81249">
        <ele>1560.84952527</ele>
        <time>2016-02-20T12:07:16Z</time>
      </trkpt>
      <trkpt lat="45.38151" lon="5.81248">
        <ele>1558.750333166</ele>
        <time>2016-02-20T12:07:26Z</time>
      </trkpt>
      <trkpt lat="45.38153" lon="5.8125">
        <ele>1558.750333166</ele>
        <time>2016-02-20T12:07:30Z</time>
      </trkpt>
      <trkpt lat="45.38163" lon="5.81248">
        <ele>1557.57828821</ele>
        <time>2016-02-20T12:07:41Z</time>
      </trkpt>
      <trkpt lat="45.38164" lon="5.81248">
        <ele>1557.57828821</ele>
        <time>2016-02-20T12:07:45Z</time>
      </trkpt>
      <trkpt lat="45.38171" lon="5.81246">
        <ele>1557.57828821</ele>
        <time>2016-02-20T12:07:56Z</time>
      </trkpt>
      <trkpt lat="45.38174" lon="5.81246">
        <ele>1557.54353941</ele>
        <time>2016-02-20T12:08:00Z</time>
      </trkpt>
      <trkpt lat="45.38178" lon="5.81246">
        <ele>1557.54353941</ele>
        <time>2016-02-20T12:08:11Z</time>
      </trkpt>
      <trkpt lat="45.38185" lon="5.81245">
        <ele>1558.693079348</ele>
        <time>2016-02-20T12:08:15Z</time>
      </trkpt>
      <trkpt lat="45.38193" lon="5.81241">
        <ele>1558.693079348</ele>
        <time>2016-02-20T12:08:26Z</time>
      </trkpt>
      <trkpt lat="45.38196" lon="5.8124">
        <ele>1560.778559664</ele>
        <time>2016-02-20T12:08:30Z</time>
      </trkpt>
      <trkpt lat="45.38206" lon="5.81246">
        <ele>1562.846425584</ele>
        <time>2016-02-20T12:08:41Z</time>
      </trkpt>
      <trkpt lat="45.38206" lon="5.8125">
        <ele>1562.846425584</ele>
        <time>2016-02-20T12:08:45Z</time>
      </trkpt>
      <trkpt lat="45.38216" lon="5.81255">
        <ele>1565.742362848</ele>
        <time>2016-02-20T12:09:01Z</time>
      </trkpt>
      <trkpt lat="45.38219" lon="5.81258">
        <ele>1565.742362848</ele>
        <time>2016-02-20T12:09:05Z</time>
      </trkpt>
      <trkpt lat="45.38224" lon="5.81263">
        <ele>1569.382831671</ele>
        <time>2016-02-20T12:09:15Z</time>
      </trkpt>
      <trkpt lat="45.38228" lon="5.81268">
        <ele>1569.382831671</ele>
        <time>2016-02-20T12:09:21Z</time>
      </trkpt>
      <trkpt lat="45.38232" lon="5.81269">
        <ele>1573.255972175</ele>
        <time>2016-02-20T12:09:31Z</time>
      </trkpt>
      <trkpt lat="45.38233" lon="5.81269">
        <ele>1573.255972175</ele>
        <time>2016-02-20T12:09:36Z</time>
      </trkpt>
      <trkpt lat="45.38234" lon="5.81269">
        <ele>1573.255972175</ele>
        <time>2016-02-20T12:09:45Z</time>
      </trkpt>
      <trkpt lat="45.38234" lon="5.81269">
        <ele>1573.255972175</ele>
        <time>2016-02-20T12:09:50Z</time>
      </trkpt>
      <trkpt lat="45.38234" lon="5.81269">
        <ele>1573.255972175</ele>
        <time>2016-02-20T12:10:00Z</time>
      </trkpt>
      <trkpt lat="45.38234" lon="5.81269">
        <ele>1573.255972175</ele>
        <time>2016-02-20T12:10:05Z</time>
      </trkpt>
      <trkpt lat="45.38234" lon="5.81269">
        <ele>1573.255972175</ele>
        <time>2016-02-20T12:10:14Z</time>
      </trkpt>
      <trkpt lat="45.38234" lon="5.81269">
        <ele>1573.255972175</ele>
        <time>2016-02-20T12:10:20Z</time>
      </trkpt>
      <trkpt lat="45.38234" lon="5.81269">
        <ele>1573.255972175</ele>
        <time>2016-02-20T12:10:30Z</time>
      </trkpt>
      <trkpt lat="45.38234" lon="5.81269">
        <ele>1573.255972175</ele>
        <time>2016-02-20T12:10:36Z</time>
      </trkpt>
      <trkpt lat="45.38234" lon="5.8127">
        <ele>1573.255972175</ele>
        <time>2016-02-20T12:10:39Z</time>
      </trkpt>
      <trkpt lat="45.38235" lon="5.81271">
        <ele>1573.255972175</ele>
        <time>2016-02-20T12:10:45Z</time>
      </trkpt>
      <trkpt lat="45.38238" lon="5.81271">
        <ele>1573.255972175</ele>
        <time>2016-02-20T12:10:51Z</time>
      </trkpt>
      <trkpt lat="45.38239" lon="5.81272">
        <ele>1573.255972175</ele>
        <time>2016-02-20T12:10:55Z</time>
      </trkpt>
      <trkpt lat="45.38239" lon="5.81272">
        <ele>1573.255972175</ele>
        <time>2016-02-20T12:11:06Z</time>
      </trkpt>
      <trkpt lat="45.38239" lon="5.81272">
        <ele>1573.255972175</ele>
        <time>2016-02-20T12:11:10Z</time>
      </trkpt>
      <trkpt lat="45.38239" lon="5.81272">
        <ele>1573.255972175</ele>
        <time>2016-02-20T12:11:16Z</time>
      </trkpt>
      <trkpt lat="45.38239" lon="5.81272">
        <ele>1573.255972175</ele>
        <time>2016-02-20T12:11:20Z</time>
      </trkpt>
      <trkpt lat="45.38239" lon="5.81272">
        <ele>1573.255972175</ele>
        <time>2016-02-20T12:11:25Z</time>
      </trkpt>
      <trkpt lat="45.38241" lon="5.81271">
        <ele>1577.895692337</ele>
        <time>2016-02-20T12:11:35Z</time>
      </trkpt>
      <trkpt lat="45.38245" lon="5.81271">
        <ele>1577.895692337</ele>
        <time>2016-02-20T12:11:40Z</time>
      </trkpt>
      <trkpt lat="45.38255" lon="5.81267">
        <ele>1582.929978661</ele>
        <time>2016-02-20T12:11:50Z</time>
      </trkpt>
      <trkpt lat="45.38261" lon="5.81264">
        <ele>1582.929978661</ele>
        <time>2016-02-20T12:11:56Z</time>
      </trkpt>
      <trkpt lat="45.38268" lon="5.81264">
        <ele>1588.301450756</ele>
        <time>2016-02-20T12:12:05Z</time>
      </trkpt>
      <trkpt lat="45.3827" lon="5.81263">
        <ele>1588.301450756</ele>
        <time>2016-02-20T12:12:10Z</time>
      </trkpt>
      <trkpt lat="45.38279" lon="5.81263">
        <ele>1593.523923591</ele>
        <time>2016-02-20T12:12:20Z</time>
      </trkpt>
      <trkpt lat="45.38283" lon="5.81262">
        <ele>1593.523923591</ele>
        <time>2016-02-20T12:12:25Z</time>
      </trkpt>
      <trkpt lat="45.38286" lon="5.8126">
        <ele>1593.523923591</ele>
        <time>2016-02-20T12:12:35Z</time>
      </trkpt>
      <trkpt lat="45.38292" lon="5.81259">
        <ele>1599.012338165</ele>
        <time>2016-02-20T12:12:40Z</time>
      </trkpt>
      <trkpt lat="45.38305" lon="5.81258">
        <ele>1604.574351495</ele>
        <time>2016-02-20T12:12:51Z</time>
      </trkpt>
      <trkpt lat="45.38311" lon="5.81258">
        <ele>1604.574351495</ele>
        <time>2016-02-20T12:12:55Z</time>
      </trkpt>
      <trkpt lat="45.38318" lon="5.81257">
        <ele>1610.464322445</ele>
        <time>2016-02-20T12:13:06Z</time>
      </trkpt>
      <trkpt lat="45.3832" lon="5.81256">
        <ele>1610.464322445</ele>
        <time>2016-02-20T12:13:10Z</time>
      </trkpt>
      <trkpt lat="45.38335" lon="5.81257">
        <ele>1616.77339233</ele>
        <time>2016-02-20T12:13:26Z</time>
      </trkpt>
      <trkpt lat="45.3834" lon="5.81259">
        <ele>1616.77339233</ele>
        <time>2016-02-20T12:13:31Z</time>
      </trkpt>
      <trkpt lat="45.38347" lon="5.81261">
        <ele>1623.297157769</ele>
        <time>2016-02-20T12:13:39Z</time>
      </trkpt>
      <trkpt lat="45.3835" lon="5.81261">
        <ele>1623.297157769</ele>
        <time>2016-02-20T12:13:44Z</time>
      </trkpt>
      <trkpt lat="45.38357" lon="5.8126">
        <ele>1629.558000454</ele>
        <time>2016-02-20T12:13:54Z</time>
      </trkpt>
      <trkpt lat="45.3836" lon="5.8126">
        <ele>1629.558000454</ele>
        <time>2016-02-20T12:14:00Z</time>
      </trkpt>
      <trkpt lat="45.38369" lon="5.81259">
        <ele>1635.835317302</ele>
        <time>2016-02-20T12:14:11Z</time>
      </trkpt>
      <trkpt lat="45.38371" lon="5.81258">
        <ele>1635.835317302</ele>
        <time>2016-02-20T12:14:16Z</time>
      </trkpt>
      <trkpt lat="45.38383" lon="5.81257">
        <ele>1642.244497283</ele>
        <time>2016-02-20T12:14:31Z</time>
      </trkpt>
      <trkpt lat="45.38394" lon="5.81255">
        <ele>1648.604566983</ele>
        <time>2016-02-20T12:14:46Z</time>
      </trkpt>
      <trkpt lat="45.38398" lon="5.81255">
        <ele>1648.604566983</ele>
        <time>2016-02-20T12:14:51Z</time>
      </trkpt>
      <trkpt lat="45.38405" lon="5.81252">
        <ele>1654.892830035</ele>
        <time>2016-02-20T12:15:00Z</time>
      </trkpt>
      <trkpt lat="45.38408" lon="5.81251">
        <ele>1654.892830035</ele>
        <time>2016-02-20T12:15:05Z</time>
      </trkpt>
      <trkpt lat="45.38413" lon="5.81247">
        <ele>1654.892830035</ele>
        <time>2016-02-20T12:15:16Z</time>
      </trkpt>
      <trkpt lat="45.38415" lon="5.81245">
        <ele>1660.656881672</ele>
        <time>2016-02-20T12:15:20Z</time>
      </trkpt>
      <trkpt lat="45.3842" lon="5.81243">
        <ele>1660.656881672</ele>
        <time>2016-02-20T12:15:31Z</time>
      </trkpt>
      <trkpt lat="45.38425" lon="5.81242">
        <ele>1666.200350653</ele>
        <time>2016-02-20T12:15:35Z</time>
      </trkpt>
      <trkpt lat="45.38433" lon="5.81241">
        <ele>1666.200350653</ele>
        <time>2016-02-20T12:15:46Z</time>
      </trkpt>
      <trkpt lat="45.38437" lon="5.8124">
        <ele>1671.805966072</ele>
        <time>2016-02-20T12:15:50Z</time>
      </trkpt>
      <trkpt lat="45.38441" lon="5.81239">
        <ele>1671.805966072</ele>
        <time>2016-02-20T12:16:01Z</time>
      </trkpt>
      <trkpt lat="45.38444" lon="5.81239">
        <ele>1671.805966072</ele>
        <time>2016-02-20T12:16:05Z</time>
      </trkpt>
      <trkpt lat="45.38454" lon="5.81236">
        <ele>1678.024530271</ele>
        <time>2016-02-20T12:16:16Z</time>
      </trkpt>
      <trkpt lat="45.38457" lon="5.81236">
        <ele>1678.024530271</ele>
        <time>2016-02-20T12:16:20Z</time>
      </trkpt>
      <trkpt lat="45.38463" lon="5.81235">
        <ele>1678.024530271</ele>
        <time>2016-02-20T12:16:36Z</time>
      </trkpt>
      <trkpt lat="45.38464" lon="5.81234">
        <ele>1684.356686061</ele>
        <time>2016-02-20T12:16:40Z</time>
      </trkpt>
      <trkpt lat="45.38468" lon="5.81232">
        <ele>1684.356686061</ele>
        <time>2016-02-20T12:16:50Z</time>
      </trkpt>
      <trkpt lat="45.38469" lon="5.81231">
        <ele>1684.356686061</ele>
        <time>2016-02-20T12:16:54Z</time>
      </trkpt>
      <trkpt lat="45.38477" lon="5.81225">
        <ele>1690.916688687</ele>
        <time>2016-02-20T12:17:06Z</time>
      </trkpt>
      <trkpt lat="45.3848" lon="5.81223">
        <ele>1690.916688687</ele>
        <time>2016-02-20T12:17:10Z</time>
      </trkpt>
      <trkpt lat="45.38491" lon="5.81222">
        <ele>1697.810568901</ele>
        <time>2016-02-20T12:17:21Z</time>
      </trkpt>
      <trkpt lat="45.38493" lon="5.81224">
        <ele>1697.810568901</ele>
        <time>2016-02-20T12:17:25Z</time>
      </trkpt>
      <trkpt lat="45.38504" lon="5.8122">
        <ele>1703.983552192</ele>
        <time>2016-02-20T12:17:35Z</time>
      </trkpt>
      <trkpt lat="45.38507" lon="5.81215">
        <ele>1703.983552192</ele>
        <time>2016-02-20T12:17:40Z</time>
      </trkpt>
      <trkpt lat="45.38517" lon="5.8121">
        <ele>1709.758178534</ele>
        <time>2016-02-20T12:17:50Z</time>
      </trkpt>
      <trkpt lat="45.38519" lon="5.81208">
        <ele>1709.758178534</ele>
        <time>2016-02-20T12:17:56Z</time>
      </trkpt>
      <trkpt lat="45.38529" lon="5.81202">
        <ele>1715.579327093</ele>
        <time>2016-02-20T12:18:06Z</time>
      </trkpt>
      <trkpt lat="45.38533" lon="5.81199">
        <ele>1715.579327093</ele>
        <time>2016-02-20T12:18:10Z</time>
      </trkpt>
      <trkpt lat="45.3854" lon="5.81192">
        <ele>1719.986414179</ele>
        <time>2016-02-20T12:18:21Z</time>
      </trkpt>
      <trkpt lat="45.38545" lon="5.81189">
        <ele>1719.986414179</ele>
        <time>2016-02-20T12:18:25Z</time>
      </trkpt>
      <trkpt lat="45.38551" lon="5.81186">
        <ele>1724.801340455</ele>
        <time>2016-02-20T12:18:35Z</time>
      </trkpt>
      <trkpt lat="45.38554" lon="5.81182">
        <ele>1724.801340455</ele>
        <time>2016-02-20T12:18:40Z</time>
      </trkpt>
      <trkpt lat="45.3856" lon="5.81174">
        <ele>1729.11778388</ele>
        <time>2016-02-20T12:18:50Z</time>
      </trkpt>
      <trkpt lat="45.38563" lon="5.81171">
        <ele>1729.11778388</ele>
        <time>2016-02-20T12:18:55Z</time>
      </trkpt>
      <trkpt lat="45.38566" lon="5.81164">
        <ele>1729.11778388</ele>
        <time>2016-02-20T12:19:05Z</time>
      </trkpt>
      <trkpt lat="45.38569" lon="5.81157">
        <ele>1733.683356711</ele>
        <time>2016-02-20T12:19:11Z</time>
      </trkpt>
      <trkpt lat="45.38578" lon="5.81148">
        <ele>1738.037873413</ele>
        <time>2016-02-20T12:19:26Z</time>
      </trkpt>
      <trkpt lat="45.38578" lon="5.81144">
        <ele>1738.037873413</ele>
        <time>2016-02-20T12:19:30Z</time>
      </trkpt>
      <trkpt lat="45.38583" lon="5.81134">
        <ele>1741.468005114</ele>
        <time>2016-02-20T12:19:40Z</time>
      </trkpt>
      <trkpt lat="45.38585" lon="5.81132">
        <ele>1741.468005114</ele>
        <time>2016-02-20T12:19:46Z</time>
      </trkpt>
      <trkpt lat="45.38589" lon="5.81127">
        <ele>1741.468005114</ele>
        <time>2016-02-20T12:19:54Z</time>
      </trkpt>
      <trkpt lat="45.38592" lon="5.81126">
        <ele>1745.477737868</ele>
        <time>2016-02-20T12:20:00Z</time>
      </trkpt>
      <trkpt lat="45.38593" lon="5.81117">
        <ele>1745.477737868</ele>
        <time>2016-02-20T12:20:11Z</time>
      </trkpt>
      <trkpt lat="45.38596" lon="5.81111">
        <ele>1749.009683279</ele>
        <time>2016-02-20T12:20:15Z</time>
      </trkpt>
      <trkpt lat="45.38603" lon="5.81099">
        <ele>1752.527171891</ele>
        <time>2016-02-20T12:20:30Z</time>
      </trkpt>
      <trkpt lat="45.38606" lon="5.81093">
        <ele>1752.527171891</ele>
        <time>2016-02-20T12:20:35Z</time>
      </trkpt>
      <trkpt lat="45.38613" lon="5.81085">
        <ele>1755.739542317</ele>
        <time>2016-02-20T12:20:45Z</time>
      </trkpt>
      <trkpt lat="45.38615" lon="5.81082">
        <ele>1755.739542317</ele>
        <time>2016-02-20T12:20:50Z</time>
      </trkpt>
      <trkpt lat="45.38618" lon="5.81078">
        <ele>1755.739542317</ele>
        <time>2016-02-20T12:21:01Z</time>
      </trkpt>
      <trkpt lat="45.38622" lon="5.81076">
        <ele>1759.819981136</ele>
        <time>2016-02-20T12:21:05Z</time>
      </trkpt>
      <trkpt lat="45.38627" lon="5.81072">
        <ele>1759.819981136</ele>
        <time>2016-02-20T12:21:15Z</time>
      </trkpt>
      <trkpt lat="45.38632" lon="5.81069">
        <ele>1764.124222898</ele>
        <time>2016-02-20T12:21:21Z</time>
      </trkpt>
      <trkpt lat="45.38636" lon="5.81065">
        <ele>1764.124222898</ele>
        <time>2016-02-20T12:21:30Z</time>
      </trkpt>
      <trkpt lat="45.38637" lon="5.81064">
        <ele>1764.124222898</ele>
        <time>2016-02-20T12:21:35Z</time>
      </trkpt>
      <trkpt lat="45.38637" lon="5.81064">
        <ele>1764.124222898</ele>
        <time>2016-02-20T12:21:45Z</time>
      </trkpt>
      <trkpt lat="45.38637" lon="5.81064">
        <ele>1764.124222898</ele>
        <time>2016-02-20T12:21:51Z</time>
      </trkpt>
      <trkpt lat="45.38637" lon="5.81064">
        <ele>1764.124222898</ele>
        <time>2016-02-20T12:21:55Z</time>
      </trkpt>
      <trkpt lat="45.38637" lon="5.81064">
        <ele>1764.124222898</ele>
        <time>2016-02-20T12:22:06Z</time>
      </trkpt>
      <trkpt lat="45.38637" lon="5.81064">
        <ele>1764.124222898</ele>
        <time>2016-02-20T12:22:10Z</time>
      </trkpt>
      <trkpt lat="45.38637" lon="5.81064">
        <ele>1764.124222898</ele>
        <time>2016-02-20T12:22:21Z</time>
      </trkpt>
      <trkpt lat="45.38637" lon="5.81064">
        <ele>1764.124222898</ele>
        <time>2016-02-20T12:22:26Z</time>
      </trkpt>
      <trkpt lat="45.38637" lon="5.81064">
        <ele>1764.124222898</ele>
        <time>2016-02-20T12:22:36Z</time>
      </trkpt>
      <trkpt lat="45.38637" lon="5.81064">
        <ele>1764.124222898</ele>
        <time>2016-02-20T12:22:40Z</time>
      </trkpt>
      <trkpt lat="45.38637" lon="5.81064">
        <ele>1764.124222898</ele>
        <time>2016-02-20T12:22:50Z</time>
      </trkpt>
      <trkpt lat="45.38637" lon="5.81064">
        <ele>1764.124222898</ele>
        <time>2016-02-20T12:22:56Z</time>
      </trkpt>
      <trkpt lat="45.38637" lon="5.81064">
        <ele>1764.124222898</ele>
        <time>2016-02-20T12:23:05Z</time>
      </trkpt>
      <trkpt lat="45.38637" lon="5.81064">
        <ele>1764.124222898</ele>
        <time>2016-02-20T12:23:11Z</time>
      </trkpt>
      <trkpt lat="45.38637" lon="5.81064">
        <ele>1764.124222898</ele>
        <time>2016-02-20T12:23:20Z</time>
      </trkpt>
      <trkpt lat="45.38637" lon="5.81064">
        <ele>1764.124222898</ele>
        <time>2016-02-20T12:23:25Z</time>
      </trkpt>
      <trkpt lat="45.38637" lon="5.81064">
        <ele>1764.124222898</ele>
        <time>2016-02-20T12:23:36Z</time>
      </trkpt>
      <trkpt lat="45.38637" lon="5.81064">
        <ele>1764.124222898</ele>
        <time>2016-02-20T12:23:40Z</time>
      </trkpt>
      <trkpt lat="45.38637" lon="5.81064">
        <ele>1764.124222898</ele>
        <time>2016-02-20T12:23:45Z</time>
      </trkpt>
      <trkpt lat="45.38637" lon="5.81064">
        <ele>1764.124222898</ele>
        <time>2016-02-20T12:23:51Z</time>
      </trkpt>
      <trkpt lat="45.38637" lon="5.81061">
        <ele>1764.124222898</ele>
        <time>2016-02-20T12:23:56Z</time>
      </trkpt>
      <trkpt lat="45.38636" lon="5.8106">
        <ele>1767.334615123</ele>
        <time>2016-02-20T12:24:00Z</time>
      </trkpt>
      <trkpt lat="45.38635" lon="5.8106">
        <ele>1767.334615123</ele>
        <time>2016-02-20T12:24:06Z</time>
      </trkpt>
      <trkpt lat="45.38635" lon="5.8106">
        <ele>1767.334615123</ele>
        <time>2016-02-20T12:24:10Z</time>
      </trkpt>
      <trkpt lat="45.38635" lon="5.8106">
        <ele>1767.334615123</ele>
        <time>2016-02-20T12:24:15Z</time>
      </trkpt>
      <trkpt lat="45.38635" lon="5.8106">
        <ele>1767.334615123</ele>
        <time>2016-02-20T12:24:25Z</time>
      </trkpt>
      <trkpt lat="45.38635" lon="5.8106">
        <ele>1767.334615123</ele>
        <time>2016-02-20T12:24:29Z</time>
      </trkpt>
      <trkpt lat="45.38635" lon="5.8106">
        <ele>1767.334615123</ele>
        <time>2016-02-20T12:24:41Z</time>
      </trkpt>
      <trkpt lat="45.38635" lon="5.8106">
        <ele>1767.334615123</ele>
        <time>2016-02-20T12:24:46Z</time>
      </trkpt>
      <trkpt lat="45.38635" lon="5.8106">
        <ele>1767.334615123</ele>
        <time>2016-02-20T12:24:55Z</time>
      </trkpt>
      <trkpt lat="45.38635" lon="5.8106">
        <ele>1767.334615123</ele>
        <time>2016-02-20T12:25:00Z</time>
      </trkpt>
      <trkpt lat="45.38635" lon="5.8106">
        <ele>1767.334615123</ele>
        <time>2016-02-20T12:25:10Z</time>
      </trkpt>
      <trkpt lat="45.38635" lon="5.8106">
        <ele>1767.334615123</ele>
        <time>2016-02-20T12:25:15Z</time>
      </trkpt>
      <trkpt lat="45.38635" lon="5.8106">
        <ele>1767.334615123</ele>
        <time>2016-02-20T12:25:26Z</time>
      </trkpt>
      <trkpt lat="45.38635" lon="5.8106">
        <ele>1767.334615123</ele>
        <time>2016-02-20T12:25:30Z</time>
      </trkpt>
      <trkpt lat="45.38635" lon="5.81063">
        <ele>1767.334615123</ele>
        <time>2016-02-20T12:25:40Z</time>
      </trkpt>
      <trkpt lat="45.38636" lon="5.81062">
        <ele>1767.334615123</ele>
        <time>2016-02-20T12:25:45Z</time>
      </trkpt>
      <trkpt lat="45.38635" lon="5.81062">
        <ele>1767.334615123</ele>
        <time>2016-02-20T12:25:56Z</time>
      </trkpt>
      <trkpt lat="45.38636" lon="5.81063">
        <ele>1767.334615123</ele>
        <time>2016-02-20T12:25:59Z</time>
      </trkpt>
      <trkpt lat="45.38636" lon="5.81063">
        <ele>1767.334615123</ele>
        <time>2016-02-20T12:26:04Z</time>
      </trkpt>
      <trkpt lat="45.38637" lon="5.81063">
        <ele>1767.334615123</ele>
        <time>2016-02-20T12:26:09Z</time>
      </trkpt>
      <trkpt lat="45.38637" lon="5.81062">
        <ele>1767.334615123</ele>
        <time>2016-02-20T12:26:15Z</time>
      </trkpt>
      <trkpt lat="45.38638" lon="5.81063">
        <ele>1767.334615123</ele>
        <time>2016-02-20T12:26:24Z</time>
      </trkpt>
      <trkpt lat="45.38638" lon="5.81063">
        <ele>1767.334615123</ele>
        <time>2016-02-20T12:26:29Z</time>
      </trkpt>
      <trkpt lat="45.38638" lon="5.81062">
        <ele>1767.334615123</ele>
        <time>2016-02-20T12:26:34Z</time>
      </trkpt>
      <trkpt lat="45.38638" lon="5.81062">
        <ele>1767.334615123</ele>
        <time>2016-02-20T12:26:44Z</time>
      </trkpt>
      <trkpt lat="45.38638" lon="5.81062">
        <ele>1767.334615123</ele>
        <time>2016-02-20T12:26:49Z</time>
      </trkpt>
      <trkpt lat="45.38638" lon="5.81062">
        <ele>1767.334615123</ele>
        <time>2016-02-20T12:26:59Z</time>
      </trkpt>
      <trkpt lat="45.38638" lon="5.81062">
        <ele>1767.334615123</ele>
        <time>2016-02-20T12:27:04Z</time>
      </trkpt>
      <trkpt lat="45.38638" lon="5.81062">
        <ele>1767.334615123</ele>
        <time>2016-02-20T12:27:14Z</time>
      </trkpt>
      <trkpt lat="45.38638" lon="5.81062">
        <ele>1767.334615123</ele>
        <time>2016-02-20T12:27:19Z</time>
      </trkpt>
      <trkpt lat="45.38638" lon="5.81062">
        <ele>1767.334615123</ele>
        <time>2016-02-20T12:27:29Z</time>
      </trkpt>
      <trkpt lat="45.38638" lon="5.81062">
        <ele>1767.334615123</ele>
        <time>2016-02-20T12:27:34Z</time>
      </trkpt>
      <trkpt lat="45.38636" lon="5.81062">
        <ele>1767.334615123</ele>
        <time>2016-02-20T12:27:44Z</time>
      </trkpt>
      <trkpt lat="45.38636" lon="5.81062">
        <ele>1769.819030387</ele>
        <time>2016-02-20T12:27:49Z</time>
      </trkpt>
      <trkpt lat="45.38636" lon="5.81062">
        <ele>1769.819030387</ele>
        <time>2016-02-20T12:27:59Z</time>
      </trkpt>
      <trkpt lat="45.3864" lon="5.81061">
        <ele>1769.819030387</ele>
        <time>2016-02-20T12:28:04Z</time>
      </trkpt>
      <trkpt lat="45.38639" lon="5.8106">
        <ele>1769.819030387</ele>
        <time>2016-02-20T12:28:14Z</time>
      </trkpt>
      <trkpt lat="45.38639" lon="5.8106">
        <ele>1769.819030387</ele>
        <time>2016-02-20T12:28:19Z</time>
      </trkpt>
      <trkpt lat="45.38639" lon="5.8106">
        <ele>1769.819030387</ele>
        <time>2016-02-20T12:28:34Z</time>
      </trkpt>
      <trkpt lat="45.38639" lon="5.8106">
        <ele>1769.819030387</ele>
        <time>2016-02-20T12:28:39Z</time>
      </trkpt>
      <trkpt lat="45.38639" lon="5.8106">
        <ele>1769.819030387</ele>
        <time>2016-02-20T12:28:49Z</time>
      </trkpt>
      <trkpt lat="45.3864" lon="5.81059">
        <ele>1769.819030387</ele>
        <time>2016-02-20T12:28:54Z</time>
      </trkpt>
      <trkpt lat="45.3864" lon="5.8106">
        <ele>1769.819030387</ele>
        <time>2016-02-20T12:29:05Z</time>
      </trkpt>
      <trkpt lat="45.3864" lon="5.8106">
        <ele>1769.819030387</ele>
        <time>2016-02-20T12:29:10Z</time>
      </trkpt>
      <trkpt lat="45.3864" lon="5.8106">
        <ele>1769.819030387</ele>
        <time>2016-02-20T12:29:20Z</time>
      </trkpt>
      <trkpt lat="45.3864" lon="5.8106">
        <ele>1769.819030387</ele>
        <time>2016-02-20T12:29:24Z</time>
      </trkpt>
      <trkpt lat="45.3864" lon="5.8106">
        <ele>1769.819030387</ele>
        <time>2016-02-20T12:29:39Z</time>
      </trkpt>
      <trkpt lat="45.3864" lon="5.8106">
        <ele>1769.819030387</ele>
        <time>2016-02-20T12:29:44Z</time>
      </trkpt>
      <trkpt lat="45.3864" lon="5.8106">
        <ele>1769.819030387</ele>
        <time>2016-02-20T12:29:54Z</time>
      </trkpt>
      <trkpt lat="45.3864" lon="5.8106">
        <ele>1769.819030387</ele>
        <time>2016-02-20T12:29:59Z</time>
      </trkpt>
      <trkpt lat="45.3864" lon="5.8106">
        <ele>1769.819030387</ele>
        <time>2016-02-20T12:30:09Z</time>
      </trkpt>
      <trkpt lat="45.3864" lon="5.8106">
        <ele>1769.819030387</ele>
        <time>2016-02-20T12:30:14Z</time>
      </trkpt>
      <trkpt lat="45.3864" lon="5.8106">
        <ele>1769.819030387</ele>
        <time>2016-02-20T12:30:24Z</time>
      </trkpt>
      <trkpt lat="45.3864" lon="5.8106">
        <ele>1769.819030387</ele>
        <time>2016-02-20T12:30:29Z</time>
      </trkpt>
      <trkpt lat="45.3864" lon="5.8106">
        <ele>1769.819030387</ele>
        <time>2016-02-20T12:30:39Z</time>
      </trkpt>
      <trkpt lat="45.3864" lon="5.8106">
        <ele>1769.819030387</ele>
        <time>2016-02-20T12:30:44Z</time>
      </trkpt>
      <trkpt lat="45.3864" lon="5.8106">
        <ele>1769.819030387</ele>
        <time>2016-02-20T12:30:54Z</time>
      </trkpt>
      <trkpt lat="45.3864" lon="5.8106">
        <ele>1769.819030387</ele>
        <time>2016-02-20T12:30:59Z</time>
      </trkpt>
      <trkpt lat="45.3864" lon="5.8106">
        <ele>1769.819030387</ele>
        <time>2016-02-20T12:31:10Z</time>
      </trkpt>
      <trkpt lat="45.3864" lon="5.8106">
        <ele>1769.819030387</ele>
        <time>2016-02-20T12:31:14Z</time>
      </trkpt>
      <trkpt lat="45.3864" lon="5.8106">
        <ele>1769.819030387</ele>
        <time>2016-02-20T12:31:24Z</time>
      </trkpt>
      <trkpt lat="45.3864" lon="5.8106">
        <ele>1769.819030387</ele>
        <time>2016-02-20T12:31:30Z</time>
      </trkpt>
      <trkpt lat="45.3864" lon="5.8106">
        <ele>1769.819030387</ele>
        <time>2016-02-20T12:31:34Z</time>
      </trkpt>
      <trkpt lat="45.3864" lon="5.8106">
        <ele>1769.819030387</ele>
        <time>2016-02-20T12:31:41Z</time>
      </trkpt>
      <trkpt lat="45.3864" lon="5.8106">
        <ele>1769.819030387</ele>
        <time>2016-02-20T12:31:45Z</time>
      </trkpt>
      <trkpt lat="45.3864" lon="5.8106">
        <ele>1769.819030387</ele>
        <time>2016-02-20T12:32:01Z</time>
      </trkpt>
      <trkpt lat="45.3864" lon="5.8106">
        <ele>1769.819030387</ele>
        <time>2016-02-20T12:32:05Z</time>
      </trkpt>
      <trkpt lat="45.3864" lon="5.8106">
        <ele>1769.819030387</ele>
        <time>2016-02-20T12:32:21Z</time>
      </trkpt>
      <trkpt lat="45.3864" lon="5.8106">
        <ele>1769.819030387</ele>
        <time>2016-02-20T12:32:25Z</time>
      </trkpt>
      <trkpt lat="45.3864" lon="5.8106">
        <ele>1769.819030387</ele>
        <time>2016-02-20T12:32:35Z</time>
      </trkpt>
      <trkpt lat="45.3864" lon="5.8106">
        <ele>1769.819030387</ele>
        <time>2016-02-20T12:32:41Z</time>
      </trkpt>
      <trkpt lat="45.3864" lon="5.8106">
        <ele>1769.819030387</ele>
        <time>2016-02-20T12:32:52Z</time>
      </trkpt>
      <trkpt lat="45.3864" lon="5.8106">
        <ele>1769.819030387</ele>
        <time>2016-02-20T12:32:54Z</time>
      </trkpt>
      <trkpt lat="45.3864" lon="5.8106">
        <ele>1769.819030387</ele>
        <time>2016-02-20T12:33:05Z</time>
      </trkpt>
      <trkpt lat="45.3864" lon="5.8106">
        <ele>1769.819030387</ele>
        <time>2016-02-20T12:33:10Z</time>
      </trkpt>
      <trkpt lat="45.3864" lon="5.8106">
        <ele>1769.819030387</ele>
        <time>2016-02-20T12:33:21Z</time>
      </trkpt>
      <trkpt lat="45.3864" lon="5.8106">
        <ele>1769.819030387</ele>
        <time>2016-02-20T12:33:25Z</time>
      </trkpt>
      <trkpt lat="45.3864" lon="5.8106">
        <ele>1769.819030387</ele>
        <time>2016-02-20T12:33:41Z</time>
      </trkpt>
      <trkpt lat="45.3864" lon="5.8106">
        <ele>1769.819030387</ele>
        <time>2016-02-20T12:34:00Z</time>
      </trkpt>
      <trkpt lat="45.3864" lon="5.8106">
        <ele>1769.819030387</ele>
        <time>2016-02-20T12:34:15Z</time>
      </trkpt>
      <trkpt lat="45.3864" lon="5.8106">
        <ele>1769.819030387</ele>
        <time>2016-02-20T12:34:15Z</time>
      </trkpt>
      <trkpt lat="45.3864" lon="5.8106">
        <ele>1769.819030387</ele>
        <time>2016-02-20T12:34:38Z</time>
      </trkpt>
      <trkpt lat="45.3864" lon="5.8106">
        <ele>1769.819030387</ele>
        <time>2016-02-20T12:34:50Z</time>
      </trkpt>
      <trkpt lat="45.3864" lon="5.8106">
        <ele>1769.819030387</ele>
        <time>2016-02-20T12:34:50Z</time>
      </trkpt>
      <trkpt lat="45.3864" lon="5.8106">
        <ele>1769.819030387</ele>
        <time>2016-02-20T12:35:10Z</time>
      </trkpt>
      <trkpt lat="45.3864" lon="5.8106">
        <ele>1769.819030387</ele>
        <time>2016-02-20T12:35:11Z</time>
      </trkpt>
      <trkpt lat="45.3864" lon="5.8106">
        <ele>1769.819030387</ele>
        <time>2016-02-20T12:35:29Z</time>
      </trkpt>
      <trkpt lat="45.3864" lon="5.8106">
        <ele>1769.819030387</ele>
        <time>2016-02-20T12:35:30Z</time>
      </trkpt>
      <trkpt lat="45.3864" lon="5.8106">
        <ele>1769.819030387</ele>
        <time>2016-02-20T12:35:46Z</time>
      </trkpt>
      <trkpt lat="45.3864" lon="5.8106">
        <ele>1769.819030387</ele>
        <time>2016-02-20T12:35:56Z</time>
      </trkpt>
      <trkpt lat="45.3864" lon="5.8106">
        <ele>1769.819030387</ele>
        <time>2016-02-20T12:36:15Z</time>
      </trkpt>
      <trkpt lat="45.3864" lon="5.8106">
        <ele>1769.819030387</ele>
        <time>2016-02-20T12:36:29Z</time>
      </trkpt>
      <trkpt lat="45.3864" lon="5.8106">
        <ele>1769.819030387</ele>
        <time>2016-02-20T12:36:31Z</time>
      </trkpt>
      <trkpt lat="45.3864" lon="5.8106">
        <ele>1769.819030387</ele>
        <time>2016-02-20T12:36:37Z</time>
      </trkpt>
      <trkpt lat="45.3864" lon="5.8106">
        <ele>1769.819030387</ele>
        <time>2016-02-20T12:36:47Z</time>
      </trkpt>
      <trkpt lat="45.3864" lon="5.8106">
        <ele>1769.819030387</ele>
        <time>2016-02-20T12:37:04Z</time>
      </trkpt>
      <trkpt lat="45.3864" lon="5.8106">
        <ele>1769.819030387</ele>
        <time>2016-02-20T12:37:17Z</time>
      </trkpt>
      <trkpt lat="45.3864" lon="5.8106">
        <ele>1769.819030387</ele>
        <time>2016-02-20T12:38:08Z</time>
      </trkpt>
      <trkpt lat="45.3864" lon="5.8106">
        <ele>1769.819030387</ele>
        <time>2016-02-20T12:38:10Z</time>
      </trkpt>
      <trkpt lat="45.3864" lon="5.8106">
        <ele>1769.819030387</ele>
        <time>2016-02-20T12:38:25Z</time>
      </trkpt>
      <trkpt lat="45.3864" lon="5.8106">
        <ele>1769.819030387</ele>
        <time>2016-02-20T12:38:25Z</time>
      </trkpt>
      <trkpt lat="45.3864" lon="5.8106">
        <ele>1769.819030387</ele>
        <time>2016-02-20T12:38:53Z</time>
      </trkpt>
      <trkpt lat="45.3864" lon="5.8106">
        <ele>1769.819030387</ele>
        <time>2016-02-20T12:38:54Z</time>
      </trkpt>
      <trkpt lat="45.3864" lon="5.8106">
        <ele>1769.819030387</ele>
        <time>2016-02-20T12:39:15Z</time>
      </trkpt>
      <trkpt lat="45.3864" lon="5.8106">
        <ele>1769.819030387</ele>
        <time>2016-02-20T12:39:36Z</time>
      </trkpt>
      <trkpt lat="45.3864" lon="5.8106">
        <ele>1769.819030387</ele>
        <time>2016-02-20T12:39:54Z</time>
      </trkpt>
      <trkpt lat="45.3864" lon="5.8106">
        <ele>1769.819030387</ele>
        <time>2016-02-20T12:39:54Z</time>
      </trkpt>
      <trkpt lat="45.3864" lon="5.8106">
        <ele>1769.819030387</ele>
        <time>2016-02-20T12:40:08Z</time>
      </trkpt>
      <trkpt lat="45.3864" lon="5.8106">
        <ele>1769.819030387</ele>
        <time>2016-02-20T12:40:16Z</time>
      </trkpt>
      <trkpt lat="45.38638" lon="5.8106">
        <ele>1769.819030387</ele>
        <time>2016-02-20T12:40:24Z</time>
      </trkpt>
      <trkpt lat="45.38639" lon="5.81061">
        <ele>1769.819030387</ele>
        <time>2016-02-20T12:40:29Z</time>
      </trkpt>
      <trkpt lat="45.38637" lon="5.81062">
        <ele>1771.48842863</ele>
        <time>2016-02-20T12:40:39Z</time>
      </trkpt>
      <trkpt lat="45.38636" lon="5.81063">
        <ele>1771.48842863</ele>
        <time>2016-02-20T12:40:44Z</time>
      </trkpt>
      <trkpt lat="45.38636" lon="5.81062">
        <ele>1771.48842863</ele>
        <time>2016-02-20T12:40:56Z</time>
      </trkpt>
      <trkpt lat="45.38636" lon="5.81062">
        <ele>1771.48842863</ele>
        <time>2016-02-20T12:40:59Z</time>
      </trkpt>
      <trkpt lat="45.38636" lon="5.81062">
        <ele>1771.48842863</ele>
        <time>2016-02-20T12:41:11Z</time>
      </trkpt>
      <trkpt lat="45.38636" lon="5.81062">
        <ele>1771.48842863</ele>
        <time>2016-02-20T12:41:15Z</time>
      </trkpt>
      <trkpt lat="45.38636" lon="5.81062">
        <ele>1771.48842863</ele>
        <time>2016-02-20T12:41:26Z</time>
      </trkpt>
      <trkpt lat="45.38636" lon="5.81062">
        <ele>1771.48842863</ele>
        <time>2016-02-20T12:41:30Z</time>
      </trkpt>
      <trkpt lat="45.38636" lon="5.81062">
        <ele>1771.48842863</ele>
        <time>2016-02-20T12:41:46Z</time>
      </trkpt>
      <trkpt lat="45.38636" lon="5.81062">
        <ele>1771.48842863</ele>
        <time>2016-02-20T12:41:50Z</time>
      </trkpt>
      <trkpt lat="45.38636" lon="5.81062">
        <ele>1771.48842863</ele>
        <time>2016-02-20T12:42:00Z</time>
      </trkpt>
      <trkpt lat="45.38636" lon="5.81062">
        <ele>1771.48842863</ele>
        <time>2016-02-20T12:42:05Z</time>
      </trkpt>
      <trkpt lat="45.38637" lon="5.81063">
        <ele>1771.48842863</ele>
        <time>2016-02-20T12:42:15Z</time>
      </trkpt>
      <trkpt lat="45.38636" lon="5.81063">
        <ele>1771.48842863</ele>
        <time>2016-02-20T12:42:19Z</time>
      </trkpt>
      <trkpt lat="45.38636" lon="5.81063">
        <ele>1771.48842863</ele>
        <time>2016-02-20T12:42:30Z</time>
      </trkpt>
      <trkpt lat="45.38638" lon="5.81063">
        <ele>1771.48842863</ele>
        <time>2016-02-20T12:42:35Z</time>
      </trkpt>
      <trkpt lat="45.38637" lon="5.81062">
        <ele>1771.48842863</ele>
        <time>2016-02-20T12:42:50Z</time>
      </trkpt>
      <trkpt lat="45.38638" lon="5.81063">
        <ele>1771.48842863</ele>
        <time>2016-02-20T12:43:06Z</time>
      </trkpt>
      <trkpt lat="45.38638" lon="5.81062">
        <ele>1771.97474561</ele>
        <time>2016-02-20T12:43:10Z</time>
      </trkpt>
      <trkpt lat="45.38639" lon="5.81065">
        <ele>1771.97474561</ele>
        <time>2016-02-20T12:43:20Z</time>
      </trkpt>
      <trkpt lat="45.38638" lon="5.81066">
        <ele>1771.97474561</ele>
        <time>2016-02-20T12:43:26Z</time>
      </trkpt>
      <trkpt lat="45.38638" lon="5.81066">
        <ele>1771.97474561</ele>
        <time>2016-02-20T12:43:35Z</time>
      </trkpt>
      <trkpt lat="45.38638" lon="5.81066">
        <ele>1771.97474561</ele>
        <time>2016-02-20T12:43:40Z</time>
      </trkpt>
      <trkpt lat="45.38638" lon="5.81066">
        <ele>1771.97474561</ele>
        <time>2016-02-20T12:43:50Z</time>
      </trkpt>
      <trkpt lat="45.38638" lon="5.81066">
        <ele>1771.97474561</ele>
        <time>2016-02-20T12:43:54Z</time>
      </trkpt>
      <trkpt lat="45.38638" lon="5.81066">
        <ele>1771.97474561</ele>
        <time>2016-02-20T12:44:06Z</time>
      </trkpt>
      <trkpt lat="45.38638" lon="5.81066">
        <ele>1771.97474561</ele>
        <time>2016-02-20T12:44:09Z</time>
      </trkpt>
      <trkpt lat="45.38638" lon="5.81066">
        <ele>1771.97474561</ele>
        <time>2016-02-20T12:44:20Z</time>
      </trkpt>
      <trkpt lat="45.38638" lon="5.81066">
        <ele>1771.97474561</ele>
        <time>2016-02-20T12:44:25Z</time>
      </trkpt>
      <trkpt lat="45.38638" lon="5.81066">
        <ele>1771.97474561</ele>
        <time>2016-02-20T12:44:35Z</time>
      </trkpt>
      <trkpt lat="45.38638" lon="5.81066">
        <ele>1771.97474561</ele>
        <time>2016-02-20T12:44:40Z</time>
      </trkpt>
      <trkpt lat="45.38638" lon="5.81065">
        <ele>1771.97474561</ele>
        <time>2016-02-20T12:44:52Z</time>
      </trkpt>
      <trkpt lat="45.38638" lon="5.81065">
        <ele>1771.97474561</ele>
        <time>2016-02-20T12:44:55Z</time>
      </trkpt>
      <trkpt lat="45.38638" lon="5.81065">
        <ele>1771.97474561</ele>
        <time>2016-02-20T12:45:11Z</time>
      </trkpt>
      <trkpt lat="45.38638" lon="5.81065">
        <ele>1771.97474561</ele>
        <time>2016-02-20T12:45:15Z</time>
      </trkpt>
      <trkpt lat="45.38638" lon="5.81065">
        <ele>1771.97474561</ele>
        <time>2016-02-20T12:45:25Z</time>
      </trkpt>
      <trkpt lat="45.38638" lon="5.81065">
        <ele>1771.97474561</ele>
        <time>2016-02-20T12:45:30Z</time>
      </trkpt>
      <trkpt lat="45.38638" lon="5.81065">
        <ele>1771.97474561</ele>
        <time>2016-02-20T12:45:40Z</time>
      </trkpt>
      <trkpt lat="45.38638" lon="5.81065">
        <ele>1771.97474561</ele>
        <time>2016-02-20T12:45:45Z</time>
      </trkpt>
      <trkpt lat="45.38638" lon="5.81065">
        <ele>1771.97474561</ele>
        <time>2016-02-20T12:45:55Z</time>
      </trkpt>
      <trkpt lat="45.38638" lon="5.81065">
        <ele>1771.97474561</ele>
        <time>2016-02-20T12:45:59Z</time>
      </trkpt>
      <trkpt lat="45.38638" lon="5.81065">
        <ele>1771.97474561</ele>
        <time>2016-02-20T12:46:09Z</time>
      </trkpt>
      <trkpt lat="45.38638" lon="5.81065">
        <ele>1771.97474561</ele>
        <time>2016-02-20T12:46:15Z</time>
      </trkpt>
      <trkpt lat="45.38638" lon="5.81065">
        <ele>1771.97474561</ele>
        <time>2016-02-20T12:46:25Z</time>
      </trkpt>
      <trkpt lat="45.38638" lon="5.81065">
        <ele>1771.97474561</ele>
        <time>2016-02-20T12:46:31Z</time>
      </trkpt>
      <trkpt lat="45.38638" lon="5.81065">
        <ele>1771.97474561</ele>
        <time>2016-02-20T12:46:40Z</time>
      </trkpt>
      <trkpt lat="45.38638" lon="5.81065">
        <ele>1771.97474561</ele>
        <time>2016-02-20T12:46:45Z</time>
      </trkpt>
      <trkpt lat="45.38638" lon="5.81065">
        <ele>1771.97474561</ele>
        <time>2016-02-20T12:46:55Z</time>
      </trkpt>
      <trkpt lat="45.38638" lon="5.81065">
        <ele>1771.97474561</ele>
        <time>2016-02-20T12:47:01Z</time>
      </trkpt>
      <trkpt lat="45.3864" lon="5.81063">
        <ele>1771.97474561</ele>
        <time>2016-02-20T12:47:14Z</time>
      </trkpt>
      <trkpt lat="45.3864" lon="5.81063">
        <ele>1771.97474561</ele>
        <time>2016-02-20T12:47:19Z</time>
      </trkpt>
      <trkpt lat="45.3864" lon="5.81061">
        <ele>1771.97474561</ele>
        <time>2016-02-20T12:47:29Z</time>
      </trkpt>
      <trkpt lat="45.3864" lon="5.81061">
        <ele>1771.97474561</ele>
        <time>2016-02-20T12:47:34Z</time>
      </trkpt>
      <trkpt lat="45.3864" lon="5.81061">
        <ele>1771.97474561</ele>
        <time>2016-02-20T12:47:44Z</time>
      </trkpt>
      <trkpt lat="45.3864" lon="5.81061">
        <ele>1771.97474561</ele>
        <time>2016-02-20T12:47:49Z</time>
      </trkpt>
      <trkpt lat="45.3864" lon="5.81061">
        <ele>1771.97474561</ele>
        <time>2016-02-20T12:47:59Z</time>
      </trkpt>
      <trkpt lat="45.3864" lon="5.81061">
        <ele>1771.97474561</ele>
        <time>2016-02-20T12:48:04Z</time>
      </trkpt>
      <trkpt lat="45.3864" lon="5.81061">
        <ele>1771.97474561</ele>
        <time>2016-02-20T12:48:14Z</time>
      </trkpt>
      <trkpt lat="45.3864" lon="5.81061">
        <ele>1771.97474561</ele>
        <time>2016-02-20T12:48:19Z</time>
      </trkpt>
      <trkpt lat="45.3864" lon="5.81061">
        <ele>1771.97474561</ele>
        <time>2016-02-20T12:48:29Z</time>
      </trkpt>
      <trkpt lat="45.3864" lon="5.81061">
        <ele>1771.97474561</ele>
        <time>2016-02-20T12:48:34Z</time>
      </trkpt>
      <trkpt lat="45.3864" lon="5.81061">
        <ele>1771.97474561</ele>
        <time>2016-02-20T12:48:49Z</time>
      </trkpt>
      <trkpt lat="45.3864" lon="5.81061">
        <ele>1771.97474561</ele>
        <time>2016-02-20T12:48:54Z</time>
      </trkpt>
      <trkpt lat="45.3864" lon="5.81061">
        <ele>1771.97474561</ele>
        <time>2016-02-20T12:49:04Z</time>
      </trkpt>
      <trkpt lat="45.3864" lon="5.81061">
        <ele>1771.97474561</ele>
        <time>2016-02-20T12:49:09Z</time>
      </trkpt>
      <trkpt lat="45.3864" lon="5.81061">
        <ele>1771.97474561</ele>
        <time>2016-02-20T12:49:19Z</time>
      </trkpt>
      <trkpt lat="45.3864" lon="5.81061">
        <ele>1771.97474561</ele>
        <time>2016-02-20T12:49:24Z</time>
      </trkpt>
      <trkpt lat="45.3864" lon="5.81061">
        <ele>1771.97474561</ele>
        <time>2016-02-20T12:49:34Z</time>
      </trkpt>
      <trkpt lat="45.3864" lon="5.81061">
        <ele>1771.97474561</ele>
        <time>2016-02-20T12:49:39Z</time>
      </trkpt>
      <trkpt lat="45.3864" lon="5.81061">
        <ele>1771.97474561</ele>
        <time>2016-02-20T12:49:49Z</time>
      </trkpt>
      <trkpt lat="45.3864" lon="5.81061">
        <ele>1771.97474561</ele>
        <time>2016-02-20T12:49:54Z</time>
      </trkpt>
      <trkpt lat="45.3864" lon="5.81061">
        <ele>1771.97474561</ele>
        <time>2016-02-20T12:50:04Z</time>
      </trkpt>
      <trkpt lat="45.3864" lon="5.81061">
        <ele>1771.97474561</ele>
        <time>2016-02-20T12:50:09Z</time>
      </trkpt>
      <trkpt lat="45.3864" lon="5.81061">
        <ele>1771.97474561</ele>
        <time>2016-02-20T12:50:19Z</time>
      </trkpt>
      <trkpt lat="45.3864" lon="5.81061">
        <ele>1771.97474561</ele>
        <time>2016-02-20T12:50:24Z</time>
      </trkpt>
      <trkpt lat="45.3864" lon="5.81061">
        <ele>1771.97474561</ele>
        <time>2016-02-20T12:50:34Z</time>
      </trkpt>
      <trkpt lat="45.3864" lon="5.81061">
        <ele>1771.97474561</ele>
        <time>2016-02-20T12:50:39Z</time>
      </trkpt>
      <trkpt lat="45.3864" lon="5.81061">
        <ele>1771.97474561</ele>
        <time>2016-02-20T12:50:49Z</time>
      </trkpt>
      <trkpt lat="45.3864" lon="5.81061">
        <ele>1771.97474561</ele>
        <time>2016-02-20T12:50:54Z</time>
      </trkpt>
      <trkpt lat="45.3864" lon="5.81061">
        <ele>1771.97474561</ele>
        <time>2016-02-20T12:51:04Z</time>
      </trkpt>
      <trkpt lat="45.3864" lon="5.81061">
        <ele>1771.97474561</ele>
        <time>2016-02-20T12:51:09Z</time>
      </trkpt>
      <trkpt lat="45.3864" lon="5.81061">
        <ele>1771.97474561</ele>
        <time>2016-02-20T12:51:24Z</time>
      </trkpt>
      <trkpt lat="45.3864" lon="5.81061">
        <ele>1771.97474561</ele>
        <time>2016-02-20T12:51:29Z</time>
      </trkpt>
      <trkpt lat="45.3864" lon="5.81062">
        <ele>1771.97474561</ele>
        <time>2016-02-20T12:51:39Z</time>
      </trkpt>
      <trkpt lat="45.38642" lon="5.81063">
        <ele>1771.805269052</ele>
        <time>2016-02-20T12:51:44Z</time>
      </trkpt>
      <trkpt lat="45.38642" lon="5.81063">
        <ele>1771.805269052</ele>
        <time>2016-02-20T12:51:54Z</time>
      </trkpt>
      <trkpt lat="45.38642" lon="5.81063">
        <ele>1771.805269052</ele>
        <time>2016-02-20T12:51:59Z</time>
      </trkpt>
      <trkpt lat="45.38642" lon="5.81063">
        <ele>1771.805269052</ele>
        <time>2016-02-20T12:52:09Z</time>
      </trkpt>
      <trkpt lat="45.38642" lon="5.81063">
        <ele>1771.805269052</ele>
        <time>2016-02-20T12:52:14Z</time>
      </trkpt>
      <trkpt lat="45.38642" lon="5.81063">
        <ele>1771.805269052</ele>
        <time>2016-02-20T12:52:24Z</time>
      </trkpt>
      <trkpt lat="45.38642" lon="5.81063">
        <ele>1771.805269052</ele>
        <time>2016-02-20T12:52:29Z</time>
      </trkpt>
      <trkpt lat="45.38642" lon="5.81063">
        <ele>1771.805269052</ele>
        <time>2016-02-20T12:52:39Z</time>
      </trkpt>
      <trkpt lat="45.38642" lon="5.81063">
        <ele>1771.805269052</ele>
        <time>2016-02-20T12:52:44Z</time>
      </trkpt>
      <trkpt lat="45.38642" lon="5.81063">
        <ele>1771.805269052</ele>
        <time>2016-02-20T12:52:54Z</time>
      </trkpt>
      <trkpt lat="45.38642" lon="5.81063">
        <ele>1771.805269052</ele>
        <time>2016-02-20T12:52:59Z</time>
      </trkpt>
      <trkpt lat="45.38642" lon="5.81063">
        <ele>1771.805269052</ele>
        <time>2016-02-20T12:53:09Z</time>
      </trkpt>
      <trkpt lat="45.38642" lon="5.81063">
        <ele>1771.805269052</ele>
        <time>2016-02-20T12:53:14Z</time>
      </trkpt>
      <trkpt lat="45.38642" lon="5.81063">
        <ele>1771.805269052</ele>
        <time>2016-02-20T12:53:24Z</time>
      </trkpt>
      <trkpt lat="45.38642" lon="5.81063">
        <ele>1771.805269052</ele>
        <time>2016-02-20T12:53:29Z</time>
      </trkpt>
      <trkpt lat="45.38642" lon="5.81063">
        <ele>1771.805269052</ele>
        <time>2016-02-20T12:53:39Z</time>
      </trkpt>
      <trkpt lat="45.38642" lon="5.81063">
        <ele>1771.805269052</ele>
        <time>2016-02-20T12:53:44Z</time>
      </trkpt>
      <trkpt lat="45.38643" lon="5.81064">
        <ele>1771.805269052</ele>
        <time>2016-02-20T12:53:59Z</time>
      </trkpt>
      <trkpt lat="45.38642" lon="5.81063">
        <ele>1771.805269052</ele>
        <time>2016-02-20T12:54:04Z</time>
      </trkpt>
      <trkpt lat="45.38641" lon="5.81063">
        <ele>1771.805269052</ele>
        <time>2016-02-20T12:54:14Z</time>
      </trkpt>
      <trkpt lat="45.38641" lon="5.81063">
        <ele>1771.805269052</ele>
        <time>2016-02-20T12:54:19Z</time>
      </trkpt>
      <trkpt lat="45.38641" lon="5.81063">
        <ele>1771.805269052</ele>
        <time>2016-02-20T12:54:29Z</time>
      </trkpt>
      <trkpt lat="45.38641" lon="5.81063">
        <ele>1771.805269052</ele>
        <time>2016-02-20T12:54:34Z</time>
      </trkpt>
      <trkpt lat="45.38641" lon="5.81061">
        <ele>1771.805269052</ele>
        <time>2016-02-20T12:54:44Z</time>
      </trkpt>
      <trkpt lat="45.38639" lon="5.81064">
        <ele>1771.805269052</ele>
        <time>2016-02-20T12:54:49Z</time>
      </trkpt>
      <trkpt lat="45.38637" lon="5.81063">
        <ele>1771.182450977</ele>
        <time>2016-02-20T12:55:00Z</time>
      </trkpt>
      <trkpt lat="45.38638" lon="5.81064">
        <ele>1771.182450977</ele>
        <time>2016-02-20T12:55:05Z</time>
      </trkpt>
      <trkpt lat="45.38638" lon="5.81064">
        <ele>1771.182450977</ele>
        <time>2016-02-20T12:55:15Z</time>
      </trkpt>
      <trkpt lat="45.38638" lon="5.81064">
        <ele>1771.182450977</ele>
        <time>2016-02-20T12:55:21Z</time>
      </trkpt>
      <trkpt lat="45.38638" lon="5.81064">
        <ele>1771.182450977</ele>
        <time>2016-02-20T12:55:31Z</time>
      </trkpt>
      <trkpt lat="45.38638" lon="5.81064">
        <ele>1771.182450977</ele>
        <time>2016-02-20T12:55:35Z</time>
      </trkpt>
      <trkpt lat="45.38638" lon="5.81064">
        <ele>1771.182450977</ele>
        <time>2016-02-20T12:55:46Z</time>
      </trkpt>
      <trkpt lat="45.38638" lon="5.81064">
        <ele>1771.182450977</ele>
        <time>2016-02-20T12:55:50Z</time>
      </trkpt>
      <trkpt lat="45.38638" lon="5.81064">
        <ele>1771.182450977</ele>
        <time>2016-02-20T12:56:00Z</time>
      </trkpt>
      <trkpt lat="45.38638" lon="5.81064">
        <ele>1771.182450977</ele>
        <time>2016-02-20T12:56:05Z</time>
      </trkpt>
      <trkpt lat="45.38636" lon="5.81065">
        <ele>1771.182450977</ele>
        <time>2016-02-20T12:56:16Z</time>
      </trkpt>
      <trkpt lat="45.38636" lon="5.81066">
        <ele>1771.182450977</ele>
        <time>2016-02-20T12:56:20Z</time>
      </trkpt>
      <trkpt lat="45.38635" lon="5.81066">
        <ele>1771.182450977</ele>
        <time>2016-02-20T12:56:24Z</time>
      </trkpt>
      <trkpt lat="45.38635" lon="5.81066">
        <ele>1771.182450977</ele>
        <time>2016-02-20T12:56:34Z</time>
      </trkpt>
      <trkpt lat="45.38635" lon="5.81066">
        <ele>1771.182450977</ele>
        <time>2016-02-20T12:56:39Z</time>
      </trkpt>
      <trkpt lat="45.38635" lon="5.81066">
        <ele>1771.182450977</ele>
        <time>2016-02-20T12:56:49Z</time>
      </trkpt>
      <trkpt lat="45.38635" lon="5.81066">
        <ele>1771.182450977</ele>
        <time>2016-02-20T12:56:54Z</time>
      </trkpt>
      <trkpt lat="45.38635" lon="5.81066">
        <ele>1771.182450977</ele>
        <time>2016-02-20T12:57:04Z</time>
      </trkpt>
      <trkpt lat="45.38635" lon="5.81066">
        <ele>1771.182450977</ele>
        <time>2016-02-20T12:57:09Z</time>
      </trkpt>
      <trkpt lat="45.38641" lon="5.81054">
        <ele>1770.295374069</ele>
        <time>2016-02-20T12:57:20Z</time>
      </trkpt>
      <trkpt lat="45.38647" lon="5.81037">
        <ele>1749.288664906</ele>
        <time>2016-02-20T12:57:25Z</time>
      </trkpt>
      <trkpt lat="45.38668" lon="5.8101">
        <ele>1740.6932541</ele>
        <time>2016-02-20T12:57:34Z</time>
      </trkpt>
      <trkpt lat="45.38684" lon="5.80975">
        <ele>1733.687932777</ele>
        <time>2016-02-20T12:57:39Z</time>
      </trkpt>
      <trkpt lat="45.38727" lon="5.80853">
        <ele>1728.617801401</ele>
        <time>2016-02-20T12:57:49Z</time>
      </trkpt>
      <trkpt lat="45.38742" lon="5.80857">
        <ele>1723.635265794</ele>
        <time>2016-02-20T12:57:54Z</time>
      </trkpt>
      <trkpt lat="45.38771" lon="5.80857">
        <ele>1718.036677019</ele>
        <time>2016-02-20T12:58:09Z</time>
      </trkpt>
      <trkpt lat="45.38776" lon="5.80875">
        <ele>1712.468442368</ele>
        <time>2016-02-20T12:58:14Z</time>
      </trkpt>
      <trkpt lat="45.38804" lon="5.80894">
        <ele>1706.376101806</ele>
        <time>2016-02-20T12:58:24Z</time>
      </trkpt>
      <trkpt lat="45.38803" lon="5.80895">
        <ele>1706.376101806</ele>
        <time>2016-02-20T12:58:29Z</time>
      </trkpt>
      <trkpt lat="45.3883" lon="5.809">
        <ele>1698.238162977</ele>
        <time>2016-02-20T12:58:39Z</time>
      </trkpt>
      <trkpt lat="45.38841" lon="5.80887">
        <ele>1689.244138479</ele>
        <time>2016-02-20T12:58:44Z</time>
      </trkpt>
      <trkpt lat="45.38887" lon="5.80881">
        <ele>1679.633342082</ele>
        <time>2016-02-20T12:58:54Z</time>
      </trkpt>
      <trkpt lat="45.38906" lon="5.80874">
        <ele>1669.484521416</ele>
        <time>2016-02-20T12:58:59Z</time>
      </trkpt>
      <trkpt lat="45.38937" lon="5.80864">
        <ele>1658.150931964</ele>
        <time>2016-02-20T12:59:09Z</time>
      </trkpt>
      <trkpt lat="45.38958" lon="5.80865">
        <ele>1646.621169549</ele>
        <time>2016-02-20T12:59:16Z</time>
      </trkpt>
      <trkpt lat="45.38984" lon="5.80874">
        <ele>1635.955102729</ele>
        <time>2016-02-20T12:59:25Z</time>
      </trkpt>
      <trkpt lat="45.38985" lon="5.80874">
        <ele>1635.955102729</ele>
        <time>2016-02-20T12:59:30Z</time>
      </trkpt>
      <trkpt lat="45.39012" lon="5.80882">
        <ele>1623.816945771</ele>
        <time>2016-02-20T12:59:44Z</time>
      </trkpt>
      <trkpt lat="45.39031" lon="5.80882">
        <ele>1616.260109232</ele>
        <time>2016-02-20T13:00:00Z</time>
      </trkpt>
      <trkpt lat="45.39036" lon="5.80884">
        <ele>1616.260109232</ele>
        <time>2016-02-20T13:00:05Z</time>
      </trkpt>
      <trkpt lat="45.39078" lon="5.80895">
        <ele>1602.883238822</ele>
        <time>2016-02-20T13:00:16Z</time>
      </trkpt>
      <trkpt lat="45.39102" lon="5.80893">
        <ele>1590.06079889</ele>
        <time>2016-02-20T13:00:19Z</time>
      </trkpt>
      <trkpt lat="45.39133" lon="5.80907">
        <ele>1576.923252966</ele>
        <time>2016-02-20T13:00:30Z</time>
      </trkpt>
      <trkpt lat="45.39132" lon="5.80906">
        <ele>1576.923252966</ele>
        <time>2016-02-20T13:00:35Z</time>
      </trkpt>
      <trkpt lat="45.39159" lon="5.8091">
        <ele>1563.673615377</ele>
        <time>2016-02-20T13:00:45Z</time>
      </trkpt>
      <trkpt lat="45.39181" lon="5.80926">
        <ele>1551.796284521</ele>
        <time>2016-02-20T13:00:49Z</time>
      </trkpt>
      <trkpt lat="45.39189" lon="5.80953">
        <ele>1541.076504197</ele>
        <time>2016-02-20T13:01:00Z</time>
      </trkpt>
      <trkpt lat="45.39196" lon="5.8096">
        <ele>1541.076504197</ele>
        <time>2016-02-20T13:01:05Z</time>
      </trkpt>
      <trkpt lat="45.39204" lon="5.80962">
        <ele>1530.878662268</ele>
        <time>2016-02-20T13:01:15Z</time>
      </trkpt>
      <trkpt lat="45.3921" lon="5.8096">
        <ele>1530.878662268</ele>
        <time>2016-02-20T13:01:20Z</time>
      </trkpt>
      <trkpt lat="45.39218" lon="5.80953">
        <ele>1520.467209259</ele>
        <time>2016-02-20T13:01:30Z</time>
      </trkpt>
      <trkpt lat="45.39228" lon="5.80952">
        <ele>1512.186518218</ele>
        <time>2016-02-20T13:01:35Z</time>
      </trkpt>
      <trkpt lat="45.39264" lon="5.80916">
        <ele>1503.44607185</ele>
        <time>2016-02-20T13:01:45Z</time>
      </trkpt>
      <trkpt lat="45.3928" lon="5.80915">
        <ele>1495.448714809</ele>
        <time>2016-02-20T13:01:50Z</time>
      </trkpt>
      <trkpt lat="45.39304" lon="5.80902">
        <ele>1484.694308525</ele>
        <time>2016-02-20T13:02:06Z</time>
      </trkpt>
      <trkpt lat="45.39315" lon="5.80907">
        <ele>1474.863948196</ele>
        <time>2016-02-20T13:02:10Z</time>
      </trkpt>
      <trkpt lat="45.39368" lon="5.80927">
        <ele>1463.312122703</ele>
        <time>2016-02-20T13:02:20Z</time>
      </trkpt>
      <trkpt lat="45.39398" lon="5.80914">
        <ele>1452.49135179</ele>
        <time>2016-02-20T13:02:25Z</time>
      </trkpt>
      <trkpt lat="45.39453" lon="5.80873">
        <ele>1441.932931512</ele>
        <time>2016-02-20T13:02:35Z</time>
      </trkpt>
      <trkpt lat="45.39487" lon="5.80859">
        <ele>1432.065637706</ele>
        <time>2016-02-20T13:02:40Z</time>
      </trkpt>
      <trkpt lat="45.39528" lon="5.80817">
        <ele>1423.428061067</ele>
        <time>2016-02-20T13:02:49Z</time>
      </trkpt>
      <trkpt lat="45.39515" lon="5.80817">
        <ele>1416.803171579</ele>
        <time>2016-02-20T13:02:54Z</time>
      </trkpt>
      <trkpt lat="45.39507" lon="5.80816">
        <ele>1416.803171579</ele>
        <time>2016-02-20T13:03:04Z</time>
      </trkpt>
      <trkpt lat="45.39502" lon="5.80791">
        <ele>1409.739539524</ele>
        <time>2016-02-20T13:03:10Z</time>
      </trkpt>
      <trkpt lat="45.39502" lon="5.80763">
        <ele>1402.416188535</ele>
        <time>2016-02-20T13:03:20Z</time>
      </trkpt>
      <trkpt lat="45.39501" lon="5.8076">
        <ele>1402.416188535</ele>
        <time>2016-02-20T13:03:25Z</time>
      </trkpt>
      <trkpt lat="45.39515" lon="5.80732">
        <ele>1394.566684418</ele>
        <time>2016-02-20T13:03:35Z</time>
      </trkpt>
      <trkpt lat="45.39529" lon="5.80714">
        <ele>1387.241985738</ele>
        <time>2016-02-20T13:03:40Z</time>
      </trkpt>
      <trkpt lat="45.39507" lon="5.80684">
        <ele>1381.125543003</ele>
        <time>2016-02-20T13:03:50Z</time>
      </trkpt>
      <trkpt lat="45.39502" lon="5.80668">
        <ele>1375.405534533</ele>
        <time>2016-02-20T13:03:55Z</time>
      </trkpt>
      <trkpt lat="45.3948" lon="5.80645">
        <ele>1369.760478113</ele>
        <time>2016-02-20T13:04:05Z</time>
      </trkpt>
      <trkpt lat="45.39469" lon="5.80635">
        <ele>1365.044719517</ele>
        <time>2016-02-20T13:04:09Z</time>
      </trkpt>
      <trkpt lat="45.39455" lon="5.80614">
        <ele>1360.173377672</ele>
        <time>2016-02-20T13:04:19Z</time>
      </trkpt>
      <trkpt lat="45.39443" lon="5.80586">
        <ele>1355.870674346</ele>
        <time>2016-02-20T13:04:26Z</time>
      </trkpt>
      <trkpt lat="45.39429" lon="5.8057">
        <ele>1351.220501562</ele>
        <time>2016-02-20T13:04:39Z</time>
      </trkpt>
      <trkpt lat="45.39422" lon="5.8056">
        <ele>1347.104097165</ele>
        <time>2016-02-20T13:04:44Z</time>
      </trkpt>
      <trkpt lat="45.39397" lon="5.80514">
        <ele>1344.192146588</ele>
        <time>2016-02-20T13:04:54Z</time>
      </trkpt>
      <trkpt lat="45.3941" lon="5.80491">
        <ele>1342.093753411</ele>
        <time>2016-02-20T13:04:59Z</time>
      </trkpt>
      <trkpt lat="45.39409" lon="5.80489">
        <ele>1342.093753411</ele>
        <time>2016-02-20T13:05:10Z</time>
      </trkpt>
      <trkpt lat="45.39402" lon="5.8048">
        <ele>1340.444350722</ele>
        <time>2016-02-20T13:05:15Z</time>
      </trkpt>
      <trkpt lat="45.39395" lon="5.80406">
        <ele>1338.328399273</ele>
        <time>2016-02-20T13:05:25Z</time>
      </trkpt>
      <trkpt lat="45.39389" lon="5.80369">
        <ele>1335.907706072</ele>
        <time>2016-02-20T13:05:30Z</time>
      </trkpt>
      <trkpt lat="45.39383" lon="5.80349">
        <ele>1353.941033303</ele>
        <time>2016-02-20T13:05:40Z</time>
      </trkpt>
      <trkpt lat="45.39381" lon="5.80346">
        <ele>1353.941033303</ele>
        <time>2016-02-20T13:05:45Z</time>
      </trkpt>
      <trkpt lat="45.394" lon="5.80343">
        <ele>1352.375308454</ele>
        <time>2016-02-20T13:05:55Z</time>
      </trkpt>
      <trkpt lat="45.39407" lon="5.80349">
        <ele>1352.375308454</ele>
        <time>2016-02-20T13:06:00Z</time>
      </trkpt>
      <trkpt lat="45.39408" lon="5.80348">
        <ele>1347.620192979</ele>
        <time>2016-02-20T13:06:09Z</time>
      </trkpt>
      <trkpt lat="45.39438" lon="5.80343">
        <ele>1343.216146001</ele>
        <time>2016-02-20T13:06:16Z</time>
      </trkpt>
      <trkpt lat="45.39471" lon="5.80347">
        <ele>1338.119565576</ele>
        <time>2016-02-20T13:06:25Z</time>
      </trkpt>
      <trkpt lat="45.3948" lon="5.80352">
        <ele>1333.959798884</ele>
        <time>2016-02-20T13:06:30Z</time>
      </trkpt>
      <trkpt lat="45.39508" lon="5.80346">
        <ele>1328.785546404</ele>
        <time>2016-02-20T13:06:45Z</time>
      </trkpt>
      <trkpt lat="45.39533" lon="5.8034">
        <ele>1324.538924098</ele>
        <time>2016-02-20T13:06:50Z</time>
      </trkpt>
      <trkpt lat="45.39537" lon="5.80332">
        <ele>1324.538924098</ele>
        <time>2016-02-20T13:07:00Z</time>
      </trkpt>
      <trkpt lat="45.39548" lon="5.80338">
        <ele>1319.990778774</ele>
        <time>2016-02-20T13:07:05Z</time>
      </trkpt>
      <trkpt lat="45.39575" lon="5.80333">
        <ele>1315.30042696</ele>
        <time>2016-02-20T13:07:15Z</time>
      </trkpt>
      <trkpt lat="45.39588" lon="5.80328">
        <ele>1310.904429278</ele>
        <time>2016-02-20T13:07:20Z</time>
      </trkpt>
      <trkpt lat="45.39625" lon="5.80306">
        <ele>1305.765660029</ele>
        <time>2016-02-20T13:07:30Z</time>
      </trkpt>
      <trkpt lat="45.39637" lon="5.80293">
        <ele>1300.943134136</ele>
        <time>2016-02-20T13:07:35Z</time>
      </trkpt>
      <trkpt lat="45.39652" lon="5.80294">
        <ele>1296.40871326</ele>
        <time>2016-02-20T13:07:45Z</time>
      </trkpt>
      <trkpt lat="45.39678" lon="5.80286">
        <ele>1292.135817296</ele>
        <time>2016-02-20T13:07:50Z</time>
      </trkpt>
      <trkpt lat="45.39768" lon="5.8027">
        <ele>1286.370040847</ele>
        <time>2016-02-20T13:08:05Z</time>
      </trkpt>
      <trkpt lat="45.398" lon="5.80256">
        <ele>1274.896312723</ele>
        <time>2016-02-20T13:08:19Z</time>
      </trkpt>
      <trkpt lat="45.39808" lon="5.80254">
        <ele>1274.896312723</ele>
        <time>2016-02-20T13:08:24Z</time>
      </trkpt>
      <trkpt lat="45.39822" lon="5.8025">
        <ele>1264.201456611</ele>
        <time>2016-02-20T13:08:34Z</time>
      </trkpt>
      <trkpt lat="45.39832" lon="5.80258">
        <ele>1254.241127188</ele>
        <time>2016-02-20T13:08:39Z</time>
      </trkpt>
      <trkpt lat="45.39853" lon="5.80255">
        <ele>1245.40466777</ele>
        <time>2016-02-20T13:08:49Z</time>
      </trkpt>
      <trkpt lat="45.39865" lon="5.80248">
        <ele>1237.329226264</ele>
        <time>2016-02-20T13:08:56Z</time>
      </trkpt>
      <trkpt lat="45.39886" lon="5.80237">
        <ele>1229.388327516</ele>
        <time>2016-02-20T13:09:04Z</time>
      </trkpt>
      <trkpt lat="45.39903" lon="5.80224">
        <ele>1221.43352469</ele>
        <time>2016-02-20T13:09:09Z</time>
      </trkpt>
      <trkpt lat="45.39946" lon="5.80205">
        <ele>1213.759678245</ele>
        <time>2016-02-20T13:09:20Z</time>
      </trkpt>
      <trkpt lat="45.3997" lon="5.80193">
        <ele>1207.215658252</ele>
        <time>2016-02-20T13:09:24Z</time>
      </trkpt>
      <trkpt lat="45.39997" lon="5.80163">
        <ele>1199.846694461</ele>
        <time>2016-02-20T13:09:35Z</time>
      </trkpt>
      <trkpt lat="45.39991" lon="5.80163">
        <ele>1199.846694461</ele>
        <time>2016-02-20T13:09:40Z</time>
      </trkpt>
      <trkpt lat="45.39989" lon="5.80163">
        <ele>1199.846694461</ele>
        <time>2016-02-20T13:09:49Z</time>
      </trkpt>
      <trkpt lat="45.39993" lon="5.8016">
        <ele>1189.843909685</ele>
        <time>2016-02-20T13:09:54Z</time>
      </trkpt>
      <trkpt lat="45.40004" lon="5.80153">
        <ele>1180.438440153</ele>
        <time>2016-02-20T13:10:10Z</time>
      </trkpt>
      <trkpt lat="45.40008" lon="5.80135">
        <ele>1171.307778892</ele>
        <time>2016-02-20T13:10:14Z</time>
      </trkpt>
      <trkpt lat="45.40042" lon="5.80098">
        <ele>1161.719928996</ele>
        <time>2016-02-20T13:10:24Z</time>
      </trkpt>
      <trkpt lat="45.4006" lon="5.80073">
        <ele>1152.294848497</ele>
        <time>2016-02-20T13:10:29Z</time>
      </trkpt>
      <trkpt lat="45.4007" lon="5.80035">
        <ele>1142.453486084</ele>
        <time>2016-02-20T13:10:35Z</time>
      </trkpt>
      <trkpt lat="45.4008" lon="5.79997">
        <ele>1132.813242826</ele>
        <time>2016-02-20T13:10:41Z</time>
      </trkpt>
      <trkpt lat="45.40097" lon="5.7997">
        <ele>1124.089554098</ele>
        <time>2016-02-20T13:10:55Z</time>
      </trkpt>
      <trkpt lat="45.401" lon="5.79966">
        <ele>1124.089554098</ele>
        <time>2016-02-20T13:11:01Z</time>
      </trkpt>
      <trkpt lat="45.40105" lon="5.79971">
        <ele>1116.222001129</ele>
        <time>2016-02-20T13:11:10Z</time>
      </trkpt>
      <trkpt lat="45.40105" lon="5.79972">
        <ele>1116.222001129</ele>
        <time>2016-02-20T13:11:16Z</time>
      </trkpt>
      <trkpt lat="45.40104" lon="5.79973">
        <ele>1116.222001129</ele>
        <time>2016-02-20T13:11:26Z</time>
      </trkpt>
      <trkpt lat="45.40104" lon="5.79973">
        <ele>1116.222001129</ele>
        <time>2016-02-20T13:11:30Z</time>
      </trkpt>
      <trkpt lat="45.40104" lon="5.79973">
        <ele>1116.222001129</ele>
        <time>2016-02-20T13:11:40Z</time>
      </trkpt>
      <trkpt lat="45.40104" lon="5.79973">
        <ele>1116.222001129</ele>
        <time>2016-02-20T13:11:44Z</time>
      </trkpt>
      <trkpt lat="45.40104" lon="5.79973">
        <ele>1116.222001129</ele>
        <time>2016-02-20T13:11:54Z</time>
      </trkpt>
      <trkpt lat="45.40107" lon="5.79974">
        <ele>1116.222001129</ele>
        <time>2016-02-20T13:12:01Z</time>
      </trkpt>
      <trkpt lat="45.40107" lon="5.79972">
        <ele>1116.222001129</ele>
        <time>2016-02-20T13:12:10Z</time>
      </trkpt>
      <trkpt lat="45.40107" lon="5.79972">
        <ele>1116.222001129</ele>
        <time>2016-02-20T13:12:15Z</time>
      </trkpt>
      <trkpt lat="45.40107" lon="5.79973">
        <ele>1116.222001129</ele>
        <time>2016-02-20T13:12:30Z</time>
      </trkpt>
      <trkpt lat="45.40107" lon="5.79973">
        <ele>1116.222001129</ele>
        <time>2016-02-20T13:12:45Z</time>
      </trkpt>
      <trkpt lat="45.40107" lon="5.79973">
        <ele>1116.222001129</ele>
        <time>2016-02-20T13:12:49Z</time>
      </trkpt>
      <trkpt lat="45.40107" lon="5.79973">
        <ele>1116.222001129</ele>
        <time>2016-02-20T13:13:01Z</time>
      </trkpt>
      <trkpt lat="45.40107" lon="5.79973">
        <ele>1116.222001129</ele>
        <time>2016-02-20T13:13:05Z</time>
      </trkpt>
      <trkpt lat="45.40107" lon="5.79973">
        <ele>1116.222001129</ele>
        <time>2016-02-20T13:13:16Z</time>
      </trkpt>
      <trkpt lat="45.40107" lon="5.79973">
        <ele>1116.222001129</ele>
        <time>2016-02-20T13:13:20Z</time>
      </trkpt>
      <trkpt lat="45.40107" lon="5.79973">
        <ele>1116.222001129</ele>
        <time>2016-02-20T13:13:31Z</time>
      </trkpt>
      <trkpt lat="45.40107" lon="5.79973">
        <ele>1116.222001129</ele>
        <time>2016-02-20T13:13:35Z</time>
      </trkpt>
      <trkpt lat="45.40107" lon="5.79973">
        <ele>1116.222001129</ele>
        <time>2016-02-20T13:13:45Z</time>
      </trkpt>
      <trkpt lat="45.40107" lon="5.79973">
        <ele>1116.222001129</ele>
        <time>2016-02-20T13:13:50Z</time>
      </trkpt>
      <trkpt lat="45.40107" lon="5.79973">
        <ele>1116.222001129</ele>
        <time>2016-02-20T13:14:01Z</time>
      </trkpt>
      <trkpt lat="45.40107" lon="5.79973">
        <ele>1116.222001129</ele>
        <time>2016-02-20T13:14:05Z</time>
      </trkpt>
      <trkpt lat="45.40107" lon="5.79973">
        <ele>1116.222001129</ele>
        <time>2016-02-20T13:14:15Z</time>
      </trkpt>
      <trkpt lat="45.40107" lon="5.79973">
        <ele>1116.222001129</ele>
        <time>2016-02-20T13:14:20Z</time>
      </trkpt>
      <trkpt lat="45.40107" lon="5.79973">
        <ele>1116.222001129</ele>
        <time>2016-02-20T13:14:31Z</time>
      </trkpt>
      <trkpt lat="45.40107" lon="5.79973">
        <ele>1116.222001129</ele>
        <time>2016-02-20T13:14:34Z</time>
      </trkpt>
      <trkpt lat="45.40107" lon="5.79973">
        <ele>1116.222001129</ele>
        <time>2016-02-20T13:14:50Z</time>
      </trkpt>
      <trkpt lat="45.40109" lon="5.79975">
        <ele>1109.58435722</ele>
        <time>2016-02-20T13:15:05Z</time>
      </trkpt>
      <trkpt lat="45.4011" lon="5.79975">
        <ele>1109.58435722</ele>
        <time>2016-02-20T13:15:20Z</time>
      </trkpt>
      <trkpt lat="45.4011" lon="5.79975">
        <ele>1109.58435722</ele>
        <time>2016-02-20T13:15:24Z</time>
      </trkpt>
      <trkpt lat="45.4011" lon="5.79975">
        <ele>1109.58435722</ele>
        <time>2016-02-20T13:15:34Z</time>
      </trkpt>
      <trkpt lat="45.4011" lon="5.79975">
        <ele>1109.58435722</ele>
        <time>2016-02-20T13:15:39Z</time>
      </trkpt>
      <trkpt lat="45.4011" lon="5.79975">
        <ele>1109.58435722</ele>
        <time>2016-02-20T13:15:50Z</time>
      </trkpt>
      <trkpt lat="45.4011" lon="5.79975">
        <ele>1109.58435722</ele>
        <time>2016-02-20T13:15:54Z</time>
      </trkpt>
      <trkpt lat="45.40106" lon="5.79976">
        <ele>1109.58435722</ele>
        <time>2016-02-20T13:16:04Z</time>
      </trkpt>
      <trkpt lat="45.40107" lon="5.79975">
        <ele>1109.58435722</ele>
        <time>2016-02-20T13:16:09Z</time>
      </trkpt>
    </trkseg>
  </trk>
</gpx>